[[{"header":{"parameterUnit":"m.s-1","parameterCategory":1,"la1":30.6,"la2":29.2853,"lo1":-89.7004,"lo2":-87.6739,"dy":0.0162,"dx":0.0183,"nx":112,"ny":82,"refTime":"2026-05-07T00:00:00:Z","depth":0,"parameterNumber":2,"parameterNumberName":"U-component_of_WINDS"},"data":[0.0,0.0,0.0,0.0,0.0,0.0,0.0,0.0,0.0,0.0,0.0,0.0,0.0,0.0,0.0,0.0,0.0,0.0,0.0,0.0,0.0,0.0,0.0,0.0,0.0,0.0,0.0,0.0,0.0,0.0,0.0,0.0,0.0,0.0,0.0,0.0,0.0,0.0,0.0,0.0,0.0,0.0,0.0,0.0,0.0,0.0,0.0,0.0,0.0,0.0,0.0,0.0,0.0,0.0,0.0,0.0,0.0,0.0,0.0,0.0,0.0,0.0,0.0,0.0,0.0,0.0,0.0,0.0,0.0,0.0,0.0,0.0,0.0,0.0,0.0,0.0,0.0,0.0,0.0,0.0,0.0,0.0,0.0,0.0,0.0,0.0,0.0,0.0,0.0,0.0,0.0,2.8121,3.0103,3.1316,3.1438,2.8858,2.5938,2.2924,0.0,0.0,0.0,0.0,0.0,0.0,0.0,0.0,0.0,0.0,0.0,0.0,0.0,0.0,0.0,0.0,0.0,0.0,0.0,0.0,0.0,0.0,0.0,0.0,0.0,0.0,0.0,0.0,0.0,0.0,0.0,0.0,0.0,0.0,0.0,0.0,0.0,0.0,0.0,0.0,0.0,0.0,0.0,0.0,0.0,0.0,0.0,0.0,0.0,0.0,0.0,0.0,0.0,0.0,0.0,0.0,0.0,0.0,0.0,0.0,0.0,0.0,0.0,0.0,0.0,0.0,0.0,0.0,0.0,0.0,0.0,0.0,0.0,0.0,0.0,0.0,0.0,0.0,0.0,0.0,0.0,0.0,0.0,0.0,0.0,0.0,0.0,0.0,0.0,0.0,0.0,0.0,0.0,0.0,0.0,0.0,0.0,0.0,0.0,0.0,0.0,0.0,0.0,0.0,2.553,3.0261,3.0689,3.0671,3.0751,2.7758,2.503,2.298,0.0,0.0,0.0,0.0,0.0,0.0,0.0,0.0,0.0,0.0,0.0,0.0,0.0,0.0,0.0,0.0,0.0,0.0,0.0,0.0,0.0,0.0,0.0,0.0,0.0,0.0,0.0,0.0,0.0,0.0,0.0,0.0,0.0,0.0,0.0,0.0,0.0,0.0,0.0,0.0,0.0,0.0,0.0,0.0,0.0,0.0,0.0,0.0,0.0,0.0,0.0,0.0,0.0,0.0,0.0,0.0,0.0,0.0,0.0,0.0,0.0,0.0,0.0,0.0,0.0,0.0,0.0,0.0,0.0,0.0,0.0,0.0,0.0,0.0,0.0,0.0,0.0,0.0,0.0,0.0,0.0,0.0,0.0,0.0,0.0,0.0,0.0,0.0,0.0,0.0,0.0,0.0,0.0,0.0,0.0,0.0,0.0,0.0,0.0,0.0,0.0,0.0,0.0,2.6033,2.7992,3.2044,3.1325,3.0553,3.0596,2.7856,2.5218,2.3036,2.1325,0.0,0.0,0.0,0.0,0.0,0.0,0.0,0.0,0.0,0.0,0.0,0.0,0.0,0.0,0.0,0.0,0.0,0.0,0.0,0.0,0.0,0.0,0.0,0.0,0.0,0.0,0.0,0.0,0.0,0.0,0.0,0.0,0.0,0.0,0.0,0.0,0.0,0.0,0.0,0.0,0.0,0.0,0.0,0.0,0.0,0.0,0.0,0.0,0.0,0.0,0.0,0.0,0.0,0.0,0.0,0.0,0.0,0.0,0.0,0.0,0.0,0.0,0.0,0.0,0.0,0.0,0.0,0.0,0.0,0.0,0.0,0.0,0.0,0.0,0.0,0.0,0.0,0.0,0.0,0.0,0.0,0.0,0.0,0.0,0.0,0.0,0.0,0.0,0.0,0.0,0.0,0.0,0.0,0.0,0.0,0.0,0.0,0.0,0.0,0.0,0.0,0.0,2.9003,3.044,3.2755,3.17,3.0696,3.0402,2.791,2.526,2.2684,2.0686,0.0,0.0,0.0,0.0,0.0,0.0,0.0,0.0,0.0,0.0,0.0,0.0,0.0,0.0,0.0,0.0,0.0,0.0,0.0,0.0,0.0,0.0,0.0,0.0,0.0,0.0,0.0,0.0,0.0,0.0,0.0,0.0,0.0,0.0,0.0,0.0,0.0,0.0,0.0,0.0,0.0,0.0,0.0,0.0,0.0,0.0,0.0,0.0,0.0,0.0,0.0,0.0,0.0,0.0,0.0,0.0,0.0,0.0,0.0,0.0,0.0,0.0,0.0,0.0,0.0,0.0,0.0,0.0,0.0,0.0,0.0,0.0,0.0,0.0,0.0,0.0,0.0,0.0,0.0,0.0,0.0,0.0,0.0,0.0,0.0,0.0,0.0,0.0,0.0,0.0,0.0,0.0,0.0,0.0,0.0,0.0,0.0,0.0,0.0,0.0,0.0,0.0,2.8968,3.1235,3.154,3.1554,3.1043,2.9786,2.7235,2.4425,2.149,1.9376,0.0,0.0,0.0,0.0,0.0,0.0,0.0,0.0,0.0,0.0,0.0,0.0,0.0,0.0,0.0,0.0,0.0,0.0,0.0,0.0,0.0,0.0,0.0,0.0,0.0,0.0,0.0,0.0,0.0,0.0,0.0,0.0,0.0,0.0,0.0,0.0,0.0,0.0,0.0,0.0,0.0,0.0,0.0,0.0,0.0,0.0,0.0,0.0,0.0,0.0,0.0,0.0,0.0,0.0,0.0,0.0,0.0,0.0,0.0,0.0,0.0,0.0,0.0,0.0,0.0,0.0,0.0,0.0,0.0,0.0,0.0,0.0,0.0,0.0,0.0,0.0,0.0,0.0,0.0,0.0,0.0,0.0,0.0,0.0,0.0,0.0,0.0,0.0,0.0,0.0,0.0,0.0,0.0,0.0,0.0,0.0,0.0,0.0,0.0,0.0,0.0,0.0,2.7969,3.0082,0.0,3.1381,3.0582,2.9693,2.7889,2.5221,2.1417,0.0,0.0,0.0,0.0,0.0,0.0,0.0,0.0,0.0,0.0,0.0,0.0,0.0,0.0,0.0,0.0,0.0,0.0,0.0,0.0,0.0,0.0,0.0,0.0,0.0,0.0,0.0,0.0,0.0,0.0,0.0,0.0,0.0,0.0,0.0,0.0,0.0,0.0,0.0,0.0,0.0,0.0,0.0,0.0,0.0,0.0,0.0,0.0,0.0,0.0,0.0,0.0,0.0,0.0,0.0,0.0,0.0,0.0,0.0,0.0,0.0,0.0,0.0,0.0,0.0,0.0,0.0,0.0,0.0,0.0,0.0,0.0,0.0,0.0,0.0,0.0,0.0,0.0,0.0,0.0,0.0,0.0,0.0,0.0,0.0,0.0,0.0,0.0,0.0,0.0,0.0,0.0,0.0,0.0,0.0,0.0,0.0,0.0,0.0,0.0,0.0,0.0,2.5866,2.7829,2.9776,0.0,3.1373,3.0492,2.9654,2.7973,2.5316,2.1383,0.0,0.0,0.0,0.0,0.0,0.0,0.0,0.0,0.0,0.0,0.0,0.0,0.0,0.0,0.0,0.0,0.0,0.0,0.0,0.0,0.0,0.0,0.0,0.0,0.0,0.0,0.0,0.0,0.0,0.0,0.0,0.0,0.0,0.0,0.0,0.0,0.0,0.0,0.0,0.0,0.0,0.0,0.0,0.0,0.0,0.0,0.0,0.0,0.0,0.0,0.0,0.0,0.0,0.0,0.0,0.0,0.0,0.0,0.0,0.0,0.0,0.0,0.0,0.0,0.0,0.0,0.0,0.0,0.0,0.0,0.0,0.0,0.0,0.0,0.0,0.0,0.0,0.0,0.0,0.0,0.0,0.0,0.0,0.0,0.0,0.0,0.0,0.0,0.0,0.0,0.0,0.0,0.0,0.0,0.0,0.0,0.0,0.0,0.0,0.0,0.0,0.0,2.6008,2.8771,3.0768,3.1447,3.1482,3.1001,2.9699,2.7129,2.4274,0.0,0.0,0.0,0.0,0.0,0.0,0.0,0.0,0.0,0.0,0.0,0.0,0.0,0.0,0.0,0.0,0.0,0.0,0.0,0.0,0.0,0.0,0.0,0.0,0.0,0.0,0.0,0.0,0.0,0.0,0.0,0.0,0.0,0.0,0.0,0.0,0.0,0.0,0.0,0.0,0.0,0.0,0.0,0.0,0.0,0.0,0.0,0.0,0.0,0.0,0.0,0.0,0.0,0.0,0.0,0.0,0.0,0.0,0.0,0.0,0.0,0.0,0.0,0.0,0.0,0.0,0.0,0.0,0.0,0.0,0.0,0.0,0.0,0.0,0.0,0.0,0.0,0.0,0.0,0.0,0.0,0.0,0.0,0.0,0.0,0.0,0.0,0.0,0.0,0.0,0.0,0.0,0.0,0.0,0.0,0.0,0.0,0.0,0.0,0.0,0.0,0.0,0.0,2.547,2.8173,3.0277,3.139,3.1482,3.1001,2.9699,2.7592,2.4785,2.1218,0.0,0.0,0.0,0.0,0.0,0.0,0.0,0.0,0.0,0.0,0.0,0.0,0.0,0.0,0.0,0.0,0.0,0.0,0.0,0.0,0.0,0.0,0.0,0.0,0.0,0.0,0.0,0.0,0.0,0.0,0.0,0.0,0.0,0.0,0.0,0.0,0.0,0.0,0.0,0.0,0.0,0.0,0.0,0.0,0.0,0.0,0.0,0.0,0.0,0.0,0.0,0.0,0.0,0.0,0.0,0.0,0.0,0.0,0.0,0.0,0.0,0.0,0.0,0.0,0.0,0.0,0.0,0.0,0.0,0.0,0.0,0.0,0.0,0.0,0.0,0.0,0.0,0.0,0.0,0.0,0.0,0.0,0.0,0.0,0.0,0.0,0.0,0.0,0.0,0.0,0.0,0.0,0.0,0.0,0.0,0.0,0.0,0.0,0.0,0.0,0.0,0.0,2.5257,2.7934,3.0088,3.1332,3.1482,3.1001,2.9699,2.7719,2.5048,2.1583,0.0,0.0,0.0,0.0,0.0,0.0,0.0,0.0,0.0,0.0,0.0,0.0,0.0,0.0,0.0,0.0,0.0,0.0,0.0,0.0,0.0,0.0,0.0,0.0,0.0,0.0,0.0,0.0,0.0,0.0,0.0,0.0,0.0,0.0,0.0,0.0,0.0,0.0,0.0,0.0,0.0,0.0,0.0,0.0,0.0,0.0,0.0,0.0,0.0,0.0,0.0,0.0,0.0,0.0,0.0,0.0,0.0,0.0,0.0,0.0,0.0,0.0,0.0,0.0,0.0,0.0,0.0,0.0,0.0,0.0,0.0,0.0,0.0,0.0,0.0,0.0,0.0,0.0,0.0,0.0,0.0,0.0,0.0,0.0,0.0,0.0,0.0,0.0,0.0,0.0,0.0,0.0,0.0,0.0,0.0,0.0,0.0,0.0,0.0,0.0,0.0,0.0,2.527,2.7979,3.0148,3.1405,3.1482,3.0944,2.9615,2.7707,2.5269,2.2075,0.0,0.0,0.0,0.0,0.0,0.0,0.0,0.0,0.0,0.0,0.0,0.0,0.0,0.0,0.0,0.0,0.0,0.0,0.0,0.0,0.0,0.0,0.0,0.0,0.0,0.0,0.0,0.0,0.0,0.0,0.0,0.0,0.0,0.0,0.0,0.0,0.0,0.0,0.0,0.0,0.0,0.0,0.0,0.0,0.0,0.0,0.0,0.0,0.0,0.0,0.0,0.0,0.0,0.0,0.0,0.0,0.0,0.0,0.0,0.0,1.956,0.0,0.0,0.0,0.0,0.0,0.0,0.0,0.0,0.0,0.0,0.0,0.0,0.0,0.0,0.0,0.0,0.0,0.0,0.0,0.0,0.0,0.0,0.0,0.0,0.0,0.0,0.0,0.0,0.0,0.0,0.0,0.0,0.0,0.0,0.0,0.0,0.0,0.0,0.0,0.0,0.0,2.527,2.8368,3.0612,3.1377,3.1482,3.0743,2.8808,2.7874,2.5716,2.1908,0.0,0.0,0.0,0.0,0.0,0.0,0.0,0.0,0.0,0.0,0.0,0.0,0.0,0.0,0.0,0.0,0.0,0.0,0.0,0.0,0.0,0.0,0.0,0.0,0.0,0.0,0.0,0.0,0.0,0.0,0.0,0.0,0.0,0.0,0.0,0.0,0.0,0.0,0.0,0.0,0.0,0.0,0.0,0.0,0.0,0.0,0.0,0.0,0.0,0.0,0.0,0.0,0.0,0.0,0.0,0.0,0.0,0.0,0.0,0.0,0.0,2.0965,0.0,0.0,0.0,0.0,0.0,0.0,0.0,0.0,0.0,0.0,0.0,0.0,0.0,0.0,0.0,0.0,0.0,0.0,0.0,0.0,0.0,0.0,0.0,0.0,0.0,0.0,0.0,0.0,0.0,0.0,0.0,0.0,0.0,0.0,0.0,0.0,0.0,0.0,0.0,0.0,2.5734,2.8667,3.0776,3.1407,3.1482,3.0934,2.9542,2.8504,2.6769,2.3801,2.201,0.0,0.0,0.0,0.0,0.0,0.0,0.0,0.0,0.0,0.0,0.0,0.0,0.0,0.0,0.0,0.0,0.0,0.0,0.0,0.0,0.0,0.0,0.0,0.0,0.0,0.0,0.0,0.0,0.0,0.0,0.0,0.0,0.0,0.0,0.0,0.0,0.0,0.0,0.0,0.0,0.0,0.0,0.0,0.0,0.0,0.0,0.0,0.0,0.0,0.0,0.0,0.0,0.0,2.9503,2.8228,2.6339,2.7203,2.769,2.7641,2.5294,2.4259,2.4142,0.0,0.0,0.0,0.0,0.0,0.0,0.0,0.0,0.0,0.0,0.0,0.0,0.0,0.0,0.0,0.0,0.0,0.0,0.0,0.0,0.0,0.0,0.0,0.0,0.0,2.4772,2.4792,0.0,0.0,0.0,0.0,0.0,0.0,0.0,0.0,0.0,0.0,0.0,0.0,2.6437,2.9056,3.0911,3.1422,3.1482,3.1198,3.0383,2.9239,2.781,2.5856,2.4038,2.1946,0.0,0.0,0.0,0.0,0.0,0.0,0.0,0.0,0.0,0.0,0.0,0.0,0.0,0.0,0.0,0.0,0.0,0.0,0.0,0.0,0.0,0.0,0.0,0.0,0.0,0.0,0.0,0.0,0.0,0.0,0.0,0.0,1.7099,1.779,0.0,0.0,0.0,0.0,0.0,0.0,0.0,0.0,0.0,0.0,0.0,0.0,0.0,2.0376,1.8945,2.6151,3.0269,3.1185,3.1133,3.0464,2.9227,2.8724,2.8862,2.944,2.9063,0.0,2.5109,2.4205,0.0,0.0,0.0,0.0,0.0,0.0,0.0,0.0,0.0,0.0,0.0,0.0,0.0,0.0,0.0,0.0,0.0,0.0,0.0,0.0,0.0,0.0,2.7899,2.7203,2.7591,2.7732,0.0,2.3447,2.1578,2.1865,2.0112,0.0,0.0,0.0,0.0,0.0,0.0,0.0,2.7186,2.9759,3.1377,3.1467,3.1482,3.0938,2.9639,2.9507,2.8316,2.5699,2.5334,2.4027,2.1413,2.0681,0.0,0.0,0.0,0.0,0.0,0.0,0.0,0.0,0.0,0.0,0.0,0.0,0.0,0.0,0.0,0.0,0.0,0.0,0.0,0.0,0.0,0.0,0.0,0.0,0.0,0.0,0.0,0.0,0.0,1.7036,1.8832,1.907,1.966,1.9597,0.0,0.0,0.0,0.0,0.0,0.0,0.0,0.0,0.0,2.4619,2.3816,2.4619,2.7243,3.0181,3.1876,3.2328,3.17,3.1148,3.0696,3.1009,3.1336,3.1637,3.1637,3.0896,2.9578,2.8009,2.585,2.3314,0.0,0.0,0.0,0.0,1.8794,1.9041,2.3764,2.8444,0.0,2.9477,0.0,0.0,0.0,0.0,0.0,0.0,0.0,0.0,0.0,0.0,0.0,2.7893,2.8118,2.8166,2.7601,2.6,2.4524,0.0,2.2976,2.1796,2.0345,0.0,0.0,0.0,0.0,0.0,2.8236,3.0148,3.1289,3.1304,3.0997,3.0778,3.0601,3.0294,2.9466,2.7893,2.7107,2.5878,2.3952,2.2572,2.0737,0.0,0.0,0.0,0.0,0.0,0.0,0.0,0.0,0.0,0.0,0.0,0.0,0.0,0.0,0.0,0.0,0.0,0.0,0.0,0.0,0.0,0.0,0.0,0.0,0.0,0.0,0.0,0.0,1.8882,2.0451,2.0451,2.1568,2.1744,0.0,0.0,0.0,0.0,0.0,0.0,2.5146,2.548,2.6586,2.8637,2.7268,2.8624,3.3031,3.3081,3.3081,3.3068,3.2227,3.1813,3.1851,3.2692,3.3081,3.3106,3.3671,3.3922,3.3746,3.1549,2.9327,2.7067,2.4582,2.3615,2.3514,2.2661,2.2711,2.3916,2.89,3.0633,3.0306,2.836,0.0,2.9189,2.8247,0.0,0.0,0.0,0.0,2.6827,2.7751,2.804,2.8119,2.8482,2.8536,2.8536,2.8536,2.8097,2.7341,0.0,2.5657,2.4757,2.2454,0.0,0.0,0.0,0.0,2.7937,2.943,3.0682,3.1426,3.1482,3.1107,3.1013,3.1482,3.0911,3.0238,2.9624,2.8487,2.723,2.5914,2.4462,2.2667,2.0498,0.0,0.0,0.0,0.0,0.0,0.0,0.0,0.0,0.0,0.0,0.0,0.0,0.0,0.0,0.0,0.0,0.0,0.0,0.0,0.0,0.0,0.0,0.0,0.0,0.0,0.0,0.0,0.0,0.0,2.2184,2.364,0.0,0.0,0.0,0.0,2.4418,2.5561,2.6728,2.7858,2.7811,2.8952,3.1712,3.1311,3.1712,3.3068,3.3081,3.3081,3.3081,3.3018,3.2993,3.2993,3.3056,3.3081,3.3194,3.529,3.6194,3.6019,3.3822,3.1612,2.9616,2.944,2.9377,2.9365,2.9315,3.0608,3.2453,3.2792,3.2905,3.2717,3.1524,2.9804,2.8109,2.7708,2.8087,0.0,0.0,2.8068,2.9106,2.9543,2.9693,2.9718,2.9691,2.9704,2.9704,2.9704,2.9252,2.8695,0.0,2.7302,2.6522,2.6598,0.0,2.5143,2.6517,2.685,2.794,3.0673,3.1631,3.2135,3.2392,3.2422,3.2154,3.1526,3.0911,3.0238,2.9624,2.8936,2.7949,2.6602,2.6452,2.5181,2.2619,2.1201,0.0,0.0,0.0,0.0,0.0,0.0,0.0,0.0,0.0,0.0,0.0,0.0,0.0,0.0,0.0,0.0,0.0,0.0,0.0,0.0,0.0,0.0,0.0,0.0,0.0,0.0,0.0,0.0,2.3706,2.4552,0.0,0.0,2.4424,2.5768,2.6521,2.712,2.8236,3.0188,2.9589,2.9827,3.1089,3.2678,3.3721,3.4135,3.4839,3.519,3.519,3.519,3.519,3.5086,3.1581,3.1871,3.5228,3.6019,3.6358,3.6307,3.5516,3.4311,3.2893,3.219,3.1901,3.1901,3.1901,3.2403,3.3081,3.3081,3.2767,3.2303,3.1901,3.0922,2.9867,2.9741,2.991,2.9935,2.9517,3.0023,3.0686,3.0788,3.0821,3.0821,3.0821,3.0821,3.0821,3.0821,3.0394,2.997,2.9859,2.8575,2.7403,2.6723,2.696,2.7178,2.736,2.8454,2.9821,3.1258,3.1727,3.2198,3.2809,3.2149,3.1808,3.2124,3.115,3.0238,2.9624,2.8966,2.8188,2.726,2.6408,2.5315,2.3969,2.2233,2.0034,0.0,0.0,0.0,0.0,0.0,0.0,0.0,0.0,0.0,0.0,0.0,0.0,0.0,0.0,0.0,0.0,0.0,0.0,0.0,0.0,0.0,0.0,0.0,0.0,0.0,0.0,2.3956,2.4269,2.5374,2.5562,2.4028,2.5744,2.7267,2.8114,2.8397,2.9338,3.1178,3.0152,3.0105,3.1309,3.1792,3.3146,3.5265,3.5994,3.6358,3.6358,3.6358,3.6358,3.6263,3.2621,3.2532,3.5041,3.5953,3.6358,3.6358,3.6358,3.5931,3.5203,3.4474,3.4186,3.4135,3.3771,3.3633,3.3583,3.3206,3.288,3.2604,3.2416,3.1888,3.1336,3.1336,3.1122,3.0922,3.111,3.1399,3.1675,3.1675,3.1675,3.1625,3.1436,3.1386,3.1386,3.1386,3.1122,3.0871,3.0871,2.9679,2.8373,2.7457,2.7997,2.844,2.8135,2.9184,3.0505,3.1791,3.1999,3.2497,3.3478,3.2616,3.2132,3.2467,3.1285,3.0238,2.9624,2.8966,2.8188,2.7275,2.6408,2.5525,2.4597,2.2697,2.0602,1.8388,0.0,0.0,0.0,0.0,0.0,0.0,0.0,0.0,0.0,0.0,0.0,0.0,0.0,0.0,0.0,0.0,0.0,0.0,0.0,0.0,0.0,0.0,0.0,2.0787,2.3465,2.501,2.4029,2.6113,2.7258,2.6234,2.7436,2.8564,2.912,2.962,3.0108,3.0671,2.9447,2.9882,3.2349,2.8974,3.0017,3.6048,3.6358,3.6301,3.6256,3.6256,3.6243,3.6313,3.6313,3.4896,3.2566,3.5174,3.6383,3.6358,3.6358,3.6358,3.6358,3.6345,3.6332,3.6207,3.5115,3.4726,3.4562,3.3495,3.3483,3.3834,3.3282,3.2717,3.2265,3.224,3.1863,3.1549,3.2089,3.224,3.224,3.224,3.224,3.2102,3.1574,3.1436,3.1436,3.1436,3.1436,3.1411,3.1411,3.057,2.9666,2.9101,2.8988,2.8976,2.8976,2.8963,0.0,3.2311,3.2593,3.3154,3.4371,3.3903,3.3245,3.2602,3.127,3.0223,2.9624,2.8921,2.7964,2.6677,2.6572,2.5959,2.4612,2.2742,2.1096,1.975,0.0,0.0,0.0,0.0,0.0,0.0,0.0,0.0,0.0,0.0,0.0,0.0,0.0,0.0,0.0,0.0,0.0,0.0,0.0,0.0,0.0,0.0,2.3056,2.3442,2.4204,2.5018,2.5791,2.6455,2.6678,2.634,2.6926,2.7863,2.8826,2.8507,2.8726,2.9827,2.8962,2.878,2.9466,2.8903,2.9196,3.0514,3.4435,3.5111,3.2443,3.2443,3.3149,3.4337,3.4048,3.3889,3.3957,3.5055,3.5903,3.6358,3.6358,3.6358,3.632,3.5931,3.5768,3.568,3.4977,3.4726,3.4675,3.4374,3.4374,3.4399,3.3847,3.3571,3.3357,3.2955,3.2729,3.2641,3.2792,3.2842,3.2842,3.2842,3.2842,3.2805,3.2654,3.2616,3.2616,3.2616,3.229,3.1989,3.1989,3.1424,3.0896,3.0733,3.0407,3.0156,3.0156,3.0368,0.0,3.2437,3.3171,3.4037,3.5106,3.4188,3.3425,3.3245,3.1135,2.9759,2.9594,2.8053,2.7186,2.7305,2.6378,2.548,2.4597,2.361,2.2443,0.0,0.0,0.0,0.0,0.0,0.0,0.0,0.0,0.0,0.0,0.0,0.0,0.0,0.0,0.0,0.0,0.0,0.0,0.0,0.0,0.0,0.0,2.282,2.4093,2.4992,2.5114,2.5303,2.6215,2.6338,2.6455,2.6631,2.7041,2.7574,2.8259,2.8083,2.8226,2.8917,2.8727,2.8584,2.8652,2.8994,2.9238,2.9375,3.252,3.2987,3.0889,3.1411,3.2194,3.3265,3.3202,3.3548,0.0,3.5074,3.5701,3.6235,3.6843,3.7048,0.0,0.0,0.0,0.0,0.0,3.5416,3.5366,3.5064,3.5002,3.4977,3.4424,3.4248,3.4186,3.3859,3.3608,3.342,3.342,3.3257,3.3081,3.3081,3.3081,3.3081,3.3081,3.3081,3.3081,3.3081,3.2805,3.2579,3.2579,3.2315,0.0,3.2102,3.1449,3.0947,3.0947,3.0904,3.1261,3.2266,3.2973,3.3822,3.4773,3.4327,3.3903,3.3903,3.1427,0.0,0.0,0.0,2.6356,2.6234,2.5849,0.0,0.0,0.0,0.0,0.0,0.0,0.0,0.0,2.3041,2.346,0.0,0.0,0.0,0.0,0.0,0.0,0.0,0.0,0.0,0.0,0.0,0.0,0.0,0.0,0.0,0.0,2.3916,2.4488,2.5723,2.595,2.592,2.581,2.624,2.668,2.7051,2.748,2.7734,2.7734,2.8086,2.831,2.8359,0.0,0.0,0.0,0.0,2.9766,3.0781,3.0859,3.0889,3.0889,3.1993,3.248,3.2469,3.3246,3.3509,3.3559,3.5155,3.5864,3.5919,3.7381,3.8002,3.7902,3.686,3.642,3.6358,3.6358,3.6358,3.627,3.5617,0.0,0.0,3.5002,3.4813,3.4801,3.4738,3.4374,3.3985,3.3985,3.3596,3.3169,3.3169,3.3131,3.3081,3.3081,3.3081,3.3081,3.3081,3.3081,3.3081,3.3081,3.3081,3.3081,3.3081,3.219,3.1486,3.1486,3.1103,3.1187,3.2051,3.2453,3.3101,3.4041,0.0,0.0,3.4345,3.1886,3.0341,3.0133,2.7715,2.5768,2.464,2.5423,2.5541,2.4848,2.6214,2.6886,2.6811,2.8098,2.8472,2.7964,2.545,2.554,0.0,0.0,0.0,0.0,0.0,0.0,0.0,0.0,0.0,0.0,0.0,0.0,0.0,0.0,0.0,2.309,2.4503,2.5532,2.5714,2.6063,2.6261,2.624,2.6943,2.7451,2.7529,2.792,2.8174,2.8174,2.8252,2.8437,2.8779,2.8877,0.0,2.9482,2.9824,3.0059,3.0185,3.0654,3.0889,3.0889,0.0,0.0,3.1271,3.2621,3.2918,3.2657,3.535,3.6196,3.5919,3.7381,3.8002,3.7939,3.7287,3.6759,3.6358,3.6358,3.6358,3.6345,3.6207,3.6169,3.6107,3.5567,3.5391,3.5303,3.4851,3.465,0.0,3.4562,3.4161,3.3746,3.3746,3.3407,3.3081,3.3081,3.3081,3.3081,3.3081,3.3081,3.3081,3.3081,3.3081,3.3081,3.3081,3.2503,3.2051,3.2051,3.2188,3.2579,3.3043,3.3175,3.3733,3.5045,3.3398,3.2475,3.3332,3.1902,3.0401,2.9192,2.7657,2.648,2.5709,2.7031,2.7458,2.6748,2.8252,2.8742,2.8218,2.9011,2.9864,3.0731,2.916,2.8697,0.0,0.0,0.0,0.0,0.0,0.0,0.0,0.0,0.0,0.0,0.0,2.1041,2.1443,0.0,2.39,2.4333,2.5198,2.5864,2.6065,2.6621,2.7031,2.7031,2.7402,2.7744,2.7959,2.8164,2.8291,2.8291,2.8486,2.8701,2.8906,2.9326,2.9658,2.9873,3.0312,3.0518,3.0449,3.0742,3.0889,3.0889,3.0889,3.0889,3.0889,3.1662,3.1856,3.1757,3.469,3.586,3.5735,3.7993,3.868,3.8417,3.814,3.7513,3.6772,3.6772,3.6596,3.6358,3.6358,3.6358,3.632,3.6044,3.5956,3.5906,3.5629,3.5353,3.514,3.514,3.4537,3.3897,3.3897,3.3483,3.3081,3.3081,3.3081,3.3081,3.3081,3.3081,3.3081,3.3081,3.3081,3.3081,3.3081,3.283,3.2641,3.2641,3.2542,3.2523,3.2397,3.2577,3.2845,3.3325,3.2626,3.2291,3.2804,3.2012,3.0477,2.8198,2.8292,2.781,2.6499,2.8194,2.8742,2.7893,2.9935,3.0731,3.0073,3.1061,3.1869,3.2497,3.1854,3.1539,0.0,0.0,0.0,0.0,0.0,0.0,0.0,0.0,1.9014,1.9931,2.15,2.2918,2.3691,2.4169,2.4798,2.5706,2.5799,2.6045,2.6562,2.7236,2.7695,2.7783,2.7783,2.792,2.8262,2.8291,2.833,2.8408,2.873,2.8994,2.916,2.9824,3.0234,3.0332,3.0693,3.0889,3.0889,3.0889,3.0889,3.0889,3.0889,3.0889,3.0889,3.0889,3.0889,3.1112,3.3979,3.5508,3.5945,3.8582,3.9433,3.9032,3.9032,3.8404,3.75,3.7387,3.6998,3.6521,3.6521,3.6458,3.6358,3.6358,3.6358,3.6358,3.6358,3.6056,3.5705,3.5705,3.4989,3.4223,3.4223,3.3734,3.3232,3.3232,3.3156,3.3081,3.3081,3.3081,3.3081,3.3081,3.3081,3.3081,3.3081,3.3081,3.3081,3.3081,3.2679,3.2261,3.1858,3.19,3.1845,3.1615,3.1896,3.2105,3.2321,3.1632,3.0254,2.8074,2.89,2.8799,2.7223,2.8972,2.9638,2.8854,3.1234,3.2243,3.1913,3.2976,3.3559,3.3679,3.3679,3.3679,1.6727,1.6166,1.6373,1.826,1.8209,1.8693,0.0,0.0,2.2635,2.3335,2.4252,2.4747,2.3909,2.4503,2.5198,2.57,2.6094,2.6602,2.7412,2.7607,2.7803,2.8174,2.8223,2.8242,2.8291,2.8291,2.8447,2.8818,2.8887,2.9248,3.001,3.0146,3.0391,3.0801,3.0859,3.0889,3.0889,3.0889,3.0889,3.0889,3.0889,3.0889,3.0889,3.0889,3.0889,3.1112,3.3979,3.6054,3.7358,3.9025,3.9659,3.9597,3.9597,3.922,3.8617,3.8103,3.7563,3.7098,3.7098,3.6772,3.6358,3.6358,3.6358,3.6358,3.6358,3.632,3.627,3.627,3.583,3.5366,3.5366,3.4587,3.3809,3.3809,3.3432,3.3081,3.3081,3.3081,3.3081,3.3081,3.3081,3.3081,3.3081,3.3081,3.3081,3.3081,3.3018,3.3094,3.3388,3.2265,3.1913,3.3022,3.136,3.0419,3.1328,3.0015,2.9446,3.0033,2.8903,2.8151,2.7965,2.8961,2.9807,3.053,3.1589,3.2533,3.3275,3.3425,3.3799,3.4367,3.4367,3.4367,1.9427,1.9441,0.0,0.0,2.0777,2.1362,2.2754,2.3064,2.3185,2.376,2.4546,2.5075,2.4624,2.5039,2.5605,0.0,2.6475,2.6973,2.7578,2.7666,2.7725,2.791,2.793,2.8027,2.8271,2.8291,2.8467,2.8887,2.915,2.956,3.0166,3.0449,3.0693,3.0889,3.0889,3.0889,3.0889,3.0889,3.0889,3.0889,3.0889,3.0889,3.0889,3.0889,3.1325,3.2322,3.4414,3.6162,3.7571,3.9129,3.9697,3.9697,3.9697,3.9546,3.9283,3.8718,3.8153,3.7663,3.7663,3.7299,3.6835,3.6835,3.6621,3.6358,3.6358,3.6358,3.6358,3.6358,3.5968,3.5542,3.5542,3.4964,3.4374,3.4374,3.396,3.3558,3.3558,3.3307,3.3081,3.3081,3.3081,3.3081,3.3081,3.3081,3.3081,3.3081,3.3081,3.3025,3.2848,3.225,3.1851,3.1798,3.084,3.0274,3.0381,3.0325,3.0196,3.0085,2.9977,2.9753,2.9357,3.0079,3.0552,3.0677,3.2316,3.3209,3.3279,3.4203,3.5011,3.5639,3.5639,3.5833,2.0482,0.0,0.0,2.1528,2.2454,2.3186,2.2839,2.3156,2.376,2.4082,2.4736,2.5254,2.5254,2.5518,2.5918,2.6475,2.6816,2.7207,2.7764,2.7744,2.7666,2.7666,2.7559,2.7656,2.8076,2.8223,2.8516,2.9053,2.9394,2.9814,3.0361,3.0703,3.0889,3.0889,3.0889,3.0889,3.0889,3.0889,3.0889,3.0889,3.0889,3.0889,3.0889,3.0889,3.1441,3.253,3.408,3.5508,3.7037,3.8465,3.9349,3.9697,3.9697,3.9697,3.9647,3.9245,3.873,3.8253,3.8253,3.7877,3.7387,3.7236,3.691,3.6558,3.6408,3.6358,3.6358,3.6358,3.6081,3.5768,3.5768,3.5366,3.4951,3.4951,3.4525,3.4085,3.3935,3.3583,3.3257,3.3106,3.3081,3.3081,3.3081,3.3081,3.3081,3.3081,3.3081,3.2918,3.2503,3.2303,3.1863,3.0934,3.0708,3.0457,3.0055,3.0509,3.0558,2.9856,3.0419,3.0576,3.0099,3.055,3.0797,3.0771,3.2652,3.3525,3.3379,3.4957,3.5866,3.6043,3.6507,3.6924,0.0,0.0,2.0174,2.1036,2.2242,2.331,2.3712,2.4385,2.501,2.5029,2.54,2.5713,2.5713,2.5723,2.6016,2.6855,2.7012,2.7314,2.8154,2.792,2.7666,2.7666,2.7295,2.7207,0.0,2.8057,2.8643,2.9482,2.956,2.9951,3.082,3.0889,3.0889,3.0889,3.0889,3.0889,3.0889,3.0889,3.0889,3.0889,3.0889,3.0889,3.0889,3.0889,3.0889,3.0995,3.253,3.3957,3.5508,3.693,3.8465,3.9697,3.9697,3.9697,3.9697,3.9672,3.932,3.8843,3.8843,3.8467,3.7889,3.7362,3.7174,3.7061,3.6521,3.6358,3.6358,3.6358,3.6358,3.6332,3.6332,3.5931,3.5516,3.5516,3.5102,3.455,3.401,3.3884,3.3721,3.3181,3.3081,3.3081,3.3081,3.3081,3.3081,3.3081,3.3081,3.3068,3.3056,3.2554,3.2001,3.1424,3.0922,3.0608,3.0595,3.0105,2.9869,2.9792,2.9869,2.9856,2.9844,2.9856,3.0266,3.1201,3.215,3.3087,3.3998,3.5674,3.5946,3.4965,3.665,3.7201,0.0,0.0,2.1846,2.2715,2.3682,2.4463,2.46,2.5098,2.543,2.5127,2.5195,2.5205,2.4912,2.5098,2.5576,2.6455,2.6836,2.7314,2.8174,2.793,2.7559,2.7266,2.7363,0.0,0.0,0.0,0.0,2.9072,2.9404,2.9824,3.04,3.0723,3.0889,3.0889,3.0889,3.0889,3.0889,3.0889,3.0889,3.0889,3.0889,3.0889,3.0889,3.0889,3.0889,3.1005,3.2426,3.3968,3.5288,3.5836,3.693,3.8243,3.8243,3.8243,3.8348,3.9362,3.9584,3.9421,3.9421,3.9044,3.8555,3.8366,3.7801,3.7149,3.696,3.6646,3.6358,3.6358,3.6358,3.6358,3.6358,3.6219,3.6094,3.6094,3.5667,3.5215,3.5039,3.47,3.4286,3.3721,3.3621,3.3508,3.3144,3.3081,3.3081,3.3081,3.3081,3.3081,3.3081,3.2905,3.2566,3.2001,3.1775,3.1524,3.116,3.0959,3.0846,3.0846,3.0532,3.0331,3.0331,3.0331,3.0476,3.0764,3.2053,3.2912,3.32,3.4472,3.5102,3.5199,3.5709,3.6193,2.1719,2.2529,2.3086,2.3467,2.4089,2.4496,2.3994,2.3989,2.4068,2.4146,2.3918,2.3808,2.3923,2.4072,2.4541,2.5723,2.6279,2.6914,2.793,2.7832,2.7559,2.7285,2.7363,0.0,0.0,0.0,0.0,2.8857,2.9316,2.9756,3.0176,3.0635,3.0889,3.0889,3.0889,3.0889,3.0889,3.0889,3.0889,3.0889,3.0889,3.0889,3.0889,3.0889,3.0889,3.1005,3.1872,3.3201,3.4515,3.4515,3.5715,3.7465,3.7465,3.7796,3.836,3.9362,3.9697,3.9697,3.9697,3.9459,3.9132,3.8931,3.8379,3.7713,3.7312,3.6935,3.6621,3.642,3.6358,3.6358,3.6358,3.6358,3.6358,3.6358,3.6094,3.578,3.5592,3.5265,3.4851,3.4299,3.4035,3.3784,3.3432,3.3206,3.3081,3.3081,3.3081,3.3081,3.3081,3.3081,3.293,3.2554,3.234,3.2077,3.1712,3.1499,3.1386,3.1386,3.1085,3.0896,3.0896,3.0896,3.0896,3.0896,3.2121,3.283,3.283,3.4041,3.4662,3.4733,3.5329,3.5631,2.2373,2.3125,2.3669,2.3222,2.3412,2.3375,2.2131,2.1537,2.1455,2.2218,2.1789,2.1682,0.0,0.0,2.3057,2.4707,2.542,2.6221,2.748,2.7685,2.7685,0.0,0.0,0.0,0.0,0.0,0.0,2.8896,0.0,2.9756,3.0176,3.0635,3.0889,3.0889,3.0889,3.0889,3.0889,3.0889,3.0889,3.0889,3.0889,3.0889,3.0889,3.0889,3.0889,3.0889,3.0889,3.1767,3.3067,3.2964,3.4725,3.724,3.724,3.8137,3.9465,3.9581,3.9685,3.9697,3.9697,3.9697,3.9609,3.9082,3.8894,3.8668,3.76,3.7224,3.7073,3.6546,3.6383,3.6358,3.6358,3.6358,3.6358,3.6358,3.6358,3.6219,3.5705,3.5592,3.5429,3.4876,3.4299,3.3897,3.3897,3.3445,3.3081,3.3081,3.3081,3.3081,3.3081,3.3081,3.3081,3.3081,3.2591,3.2252,3.2252,3.1775,3.1474,3.1474,3.1449,3.1436,3.1436,3.1436,3.1436,3.1436,3.2367,3.2843,3.2843,3.4411,3.4616,3.371,3.5316,3.5588,2.3335,2.3559,2.35,2.4726,2.4328,2.3808,2.41,2.3135,2.2187,2.24,2.2131,2.1553,0.0,0.0,0.0,2.3525,2.5098,0.0,2.7529,2.7939,0.0,0.0,0.0,2.8008,2.8125,2.8418,0.0,0.0,2.9502,2.9756,3.0176,3.0635,3.0889,3.0889,3.0889,3.0889,3.0889,3.0889,3.0889,3.0889,3.0889,3.0889,3.0889,3.0889,3.0889,3.0889,3.0889,3.1767,3.2964,3.1872,3.253,3.417,3.417,3.5167,3.6607,3.769,3.8792,3.9697,3.9697,3.9697,3.9672,3.9534,3.9207,3.8818,3.853,3.7852,3.7149,3.701,3.6684,3.6358,3.6358,3.6358,3.6358,3.6358,3.6358,3.632,3.6182,3.6157,3.5994,3.5441,3.4562,3.3897,3.3897,3.3445,3.3081,3.3081,3.3081,3.3081,3.3081,3.3081,3.3081,3.3081,3.2943,3.2855,3.2855,3.2729,3.2654,3.2654,3.224,3.2001,3.2001,3.2001,3.2001,3.2001,3.2655,3.3038,3.3038,3.3431,3.3495,3.3267,3.372,3.4178,2.2425,2.2646,2.2498,2.2924,2.2355,2.1685,2.134,2.0617,1.9968,1.9874,1.9737,0.0,0.0,0.0,0.0,0.0,0.0,0.0,2.7236,2.791,2.8271,0.0,2.8428,0.0,2.8828,2.9062,2.9385,0.0,2.9844,2.9941,3.0185,3.0635,3.0889,3.0889,3.0889,3.0889,3.0889,3.0889,3.0889,3.0889,3.0889,3.0889,3.0889,3.0889,3.0889,3.0889,0.0,3.1325,3.2092,3.1218,3.1767,3.3077,3.3077,3.4403,3.6379,3.7133,3.8465,3.9581,3.8921,3.8687,3.8804,3.9465,3.9034,3.8403,3.883,3.8429,3.7877,3.7613,3.7149,3.6722,3.6722,3.6546,3.6358,3.6358,3.6358,3.6358,3.6358,3.6358,3.6194,3.5655,3.5039,3.455,3.4299,3.3809,3.3432,3.3432,3.3232,3.3081,3.3081,3.3081,3.3081,3.3081,3.3081,3.3081,3.3081,3.3081,3.3081,3.3081,3.2767,3.2591,3.2591,3.2591,3.2591,3.2591,3.2918,3.3081,3.3081,3.3081,3.3081,3.3081,3.3319,3.3766,2.0892,2.1244,2.131,2.0349,1.9788,1.9055,1.7592,1.7179,1.7083,1.6793,0.0,1.7024,1.7552,1.8506,1.9756,2.1435,0.0,2.5391,2.6816,2.7705,2.8389,2.8867,2.8916,2.9111,2.96,2.9658,2.9834,3.0254,3.0293,3.0293,3.0293,3.0674,3.0889,3.0889,3.0889,3.0889,3.0889,3.0889,3.0889,3.0889,3.0889,3.0889,3.0889,3.0889,3.0889,3.0889,0.0,0.0,3.0889,3.0889,3.1652,3.2861,3.2861,3.4504,3.6918,3.7133,3.8137,3.9245,3.7914,3.7358,3.7477,3.8921,3.857,3.7712,3.8686,3.8931,3.8768,3.8266,3.7726,3.7274,3.7199,3.6822,3.6458,3.6383,3.6358,3.6358,3.6358,3.6358,3.6219,3.5742,3.5592,3.5391,3.4914,3.4374,3.401,3.401,3.3608,3.3269,3.3194,3.3119,3.3081,3.3081,3.3081,3.3081,3.3081,3.3081,3.3081,3.3081,3.3081,3.3081,3.3081,3.3081,3.3081,3.3081,3.3081,3.3081,3.3081,3.3081,3.3119,3.3206,3.3671,3.4023,2.1233,2.1004,2.0794,2.2552,2.1778,2.0939,2.1771,2.0294,0.0,0.0,0.0,1.6975,1.6013,1.7441,0.0,2.0576,0.0,0.0,0.0,0.0,2.8057,0.0,0.0,0.0,0.0,0.0,0.0,0.0,0.0,3.0771,3.0771,3.085,3.0889,3.0889,3.0889,3.0889,3.0889,3.0889,3.0889,3.0889,3.0889,3.0889,3.0889,3.0889,3.0889,3.0889,3.0889,0.0,3.0889,3.0889,3.0995,3.1334,3.1334,3.2311,3.4069,3.5288,3.6595,3.7796,3.7571,3.6703,3.5945,3.7358,3.769,3.7784,3.9134,3.9233,3.8856,3.8743,3.8304,3.7764,3.7299,3.7111,3.6923,3.6471,3.6358,3.6358,3.6358,3.6358,3.6332,3.6232,3.5855,3.5516,3.5416,3.4951,3.4575,3.4575,3.45,3.4274,3.3822,3.3357,3.3081,3.3081,3.3081,3.3081,3.3081,3.3081,3.3081,3.3081,3.3081,3.3081,3.3081,3.3081,3.3081,3.3081,3.3081,3.3081,3.3081,3.3081,3.3307,3.3759,3.3859,3.464,1.9361,1.9867,2.0355,2.1342,2.0999,2.0395,2.0367,0.0,0.0,0.0,0.0,1.6094,1.5244,0.0,0.0,0.0,0.0,0.0,0.0,0.0,0.0,0.0,0.0,0.0,0.0,0.0,0.0,0.0,0.0,3.0889,3.0889,3.0889,3.0889,3.0889,3.0889,3.0889,3.0889,3.0889,3.0889,3.0889,3.0889,3.0889,3.0889,3.0889,3.0889,3.0889,3.0889,0.0,3.0889,3.0889,3.0889,3.0889,3.0889,3.1767,3.3191,3.3856,3.5057,3.6271,3.5497,3.4725,3.4403,3.5836,3.6379,3.6823,3.9025,3.9509,3.9295,3.9295,3.8894,3.8391,3.8128,3.7626,3.7123,3.686,3.6571,3.6358,3.6358,3.6358,3.6358,3.6358,3.6157,3.5968,3.5968,3.5516,3.5152,3.5152,3.4901,3.4525,3.3972,3.3671,3.3395,3.3106,3.3081,3.3081,3.3081,3.3081,3.3081,3.3081,3.3081,3.3081,3.3081,3.3081,3.3081,3.3081,3.3081,3.3219,3.3508,3.3508,3.3784,3.4336,3.4625,3.5147,1.7649,1.8837,2.0046,2.0013,2.0157,2.002,1.8812,1.7793,0.0,0.0,1.4676,1.5039,1.4707,0.0,0.0,0.0,0.0,0.0,0.0,0.0,0.0,0.0,0.0,0.0,0.0,0.0,0.0,0.0,0.0,0.0,3.0889,3.0889,3.0889,3.0889,3.0889,3.0889,3.0889,3.0889,3.0889,3.0889,3.0889,3.0889,3.0889,3.0889,3.0889,3.0889,3.0889,0.0,0.0,3.0889,3.0889,3.0889,3.0889,3.1662,3.2633,3.2964,3.3856,3.4626,3.3519,3.3077,3.3293,3.4847,3.5288,3.5836,3.8816,3.9697,3.9697,3.9697,3.9383,3.9019,3.8906,3.8115,3.7299,3.7061,3.6671,3.6358,3.6358,3.6358,3.6358,3.6358,3.6358,3.6358,3.6358,3.6006,3.5717,3.5717,3.5353,3.4876,3.4324,3.4248,3.3997,3.3319,3.3156,3.3081,3.3081,3.3081,3.3081,3.3081,3.3081,3.3081,3.3081,3.3081,3.3131,3.3257,3.3257,3.352,3.4073,3.4073,3.4361,3.4914,3.5341,3.5697,1.7589,1.8837,2.0355,2.1232,2.1531,2.1518,2.1028,0.0,0.0,1.5168,1.4476,1.4184,1.4145,1.4961,1.626,0.0,0.0,2.0585,0.0,0.0,0.0,0.0,0.0,0.0,0.0,0.0,0.0,0.0,0.0,0.0,3.0889,3.0889,3.0889,3.0889,3.0889,3.0889,3.0889,3.0889,3.0889,3.0889,3.0889,3.0889,3.0889,3.0889,3.0889,3.0889,3.0889,0.0,0.0,3.0889,3.0889,3.0889,3.0889,3.1005,3.1218,3.2644,3.3191,3.3293,3.3191,3.3077,3.3293,3.4847,3.5288,3.5836,3.8816,3.9697,3.9697,3.9697,3.9659,3.9496,3.9007,3.8404,3.7676,3.6671,3.6395,3.6358,3.6358,3.6358,3.6358,3.6358,3.6358,3.6358,3.6358,3.632,3.6282,3.6282,3.6245,3.6019,3.5466,3.5391,3.4989,3.3935,3.337,3.3081,3.3081,3.3081,3.3081,3.3081,3.3081,3.3081,3.3081,3.3081,3.3319,3.3822,3.3822,3.4098,3.465,3.465,3.4926,3.5466,3.5516,3.6322,1.8327,1.9932,2.145,2.2278,2.1968,2.1222,2.0584,0.0,1.5726,1.4615,1.4053,1.3828,1.4038,1.436,1.5081,1.6421,1.6719,1.7117,0.0,0.0,0.0,0.0,0.0,0.0,0.0,0.0,0.0,0.0,0.0,0.0,3.0889,3.0889,3.0889,3.0889,3.0889,3.0889,3.0889,3.0889,3.0889,3.0889,3.0889,3.0889,3.0889,3.0889,3.0889,3.0889,3.0889,0.0,0.0,3.0889,3.0889,3.0889,3.0889,3.0889,3.1005,3.1546,3.1767,3.1767,3.1767,3.1767,3.2207,3.4526,3.5288,3.5836,3.8816,3.9697,3.9697,3.9697,3.9697,3.9647,3.9421,3.868,3.7814,3.7036,3.6596,3.6358,3.6358,3.6358,3.6358,3.6358,3.6358,3.6358,3.6358,3.6358,3.6358,3.6358,3.6358,3.6157,3.5617,3.5542,3.5253,3.4474,3.3897,3.3432,3.3106,3.3081,3.3081,3.3081,3.3081,3.3219,3.3558,3.3571,3.3834,3.4387,3.4399,3.4663,3.5215,3.5215,3.5504,3.6031,3.6031,3.6413,1.8607,2.0464,2.2214,2.2266,2.1817,2.0931,0.0,1.7005,1.4837,1.3948,1.3536,1.3447,1.3877,1.383,1.3989,1.4817,1.4843,1.4873,1.5404,0.0,0.0,0.0,0.0,0.0,0.0,0.0,0.0,0.0,0.0,0.0,0.0,3.0889,3.0889,3.0889,3.0889,3.0889,3.0889,3.0889,3.0889,3.0889,3.0889,3.0889,3.0889,3.0889,3.0889,3.0889,0.0,0.0,0.0,3.0889,3.0889,3.0889,3.0889,3.0889,3.0889,3.0889,3.0889,3.0889,3.0889,3.1218,3.1988,3.4526,3.5629,3.6391,3.8921,3.9697,3.9697,3.9697,3.9697,3.9647,3.9496,3.8856,3.8078,3.7362,3.6885,3.6558,3.6395,3.6358,3.6358,3.6358,3.6358,3.6358,3.6358,3.6358,3.6358,3.6358,3.6358,3.6219,3.583,3.5793,3.5579,3.5027,3.4613,3.4098,3.3382,3.3169,3.3144,3.3307,3.3319,3.3571,3.4123,3.4148,3.4399,3.4951,3.4964,3.524,3.5793,3.5793,3.5981,3.6358,3.6358,3.6803,1.7903,2.0227,2.2141,2.0971,2.123,2.1034,0.0,1.6504,1.5505,1.3331,1.2894,1.3018,1.3437,1.3206,1.3182,1.4087,1.4491,1.4888,1.539,0.0,0.0,0.0,0.0,0.0,0.0,0.0,0.0,0.0,0.0,0.0,0.0,3.0889,3.0889,3.0889,3.0889,3.0889,3.0889,3.0889,3.0889,3.0889,3.0889,3.0889,3.0889,3.0889,3.0889,0.0,0.0,0.0,0.0,3.0889,3.0889,3.0889,3.0889,3.0889,3.0889,3.0889,3.0889,3.0889,3.0889,3.1872,3.3293,3.4847,3.6271,3.7796,3.9245,3.9697,3.9697,3.9697,3.9697,3.9572,3.9019,3.8868,3.858,3.745,3.7174,3.7023,3.6471,3.6358,3.6358,3.6358,3.6358,3.6358,3.6358,3.6358,3.6358,3.6358,3.6358,3.6358,3.6358,3.6358,3.6144,3.5592,3.5529,3.509,3.3985,3.3395,3.3307,3.3859,3.3884,3.4135,3.4688,3.4713,3.4964,3.5437,3.5449,3.5805,3.6358,3.6358,3.6358,3.6358,3.6358,3.7599,1.7282,1.8551,1.9632,2.0034,1.9367,1.8416,1.7469,1.5716,1.4172,1.378,1.3253,1.3008,1.3428,1.293,1.2849,1.3955,1.3726,0.0,0.0,0.0,0.0,0.0,0.0,0.0,0.0,0.0,0.0,0.0,0.0,0.0,0.0,3.0889,3.0889,3.0889,3.0889,3.0889,3.0889,3.0889,3.0889,3.0889,3.0889,3.0889,3.0889,3.0889,0.0,0.0,0.0,0.0,0.0,3.0889,3.0889,3.0889,3.0889,3.0889,3.0889,3.0889,3.0889,3.0889,3.0889,3.1883,3.3293,3.4847,3.6271,3.7796,3.9245,3.9697,3.9697,3.9697,3.9697,3.9647,3.9484,3.9145,3.8781,3.8429,3.7751,3.7136,3.696,3.6621,3.6358,3.6358,3.6358,3.6358,3.6358,3.6358,3.6358,3.6358,3.6358,3.6358,3.6358,3.6358,3.6295,3.6119,3.5768,3.5253,3.4525,3.4299,3.4274,3.4449,3.4462,3.4713,3.5265,3.529,3.5542,3.6094,3.6107,3.6194,3.6358,3.6358,3.6358,3.6452,3.7243,3.8379,1.6773,1.7632,1.8253,1.8461,1.7761,1.6677,1.5408,1.4532,1.3699,1.286,1.2772,1.29,1.2843,1.2455,1.2299,1.3058,1.2676,0.0,0.0,0.0,0.0,0.0,0.0,0.0,0.0,0.0,0.0,0.0,0.0,0.0,0.0,3.0889,3.0889,3.0889,3.0889,3.0889,3.0889,3.0889,3.0889,3.0889,3.0889,3.0889,3.0889,3.0889,0.0,0.0,0.0,0.0,0.0,3.0889,3.0889,3.0889,3.0889,3.0889,3.0889,3.0889,3.0889,3.1005,3.1556,3.2644,3.4181,3.5617,3.7145,3.8465,3.9465,3.9697,3.9697,3.9697,3.9697,3.9697,3.9697,3.9433,3.9132,3.8919,3.8329,3.7701,3.7274,3.691,3.6609,3.6408,3.6358,3.6358,3.6358,3.6358,3.6358,3.6358,3.6358,3.6358,3.6358,3.6358,3.6358,3.6358,3.6056,3.5717,3.5366,3.4964,3.4813,3.5014,3.5039,3.5278,3.583,3.5855,3.6019,3.6358,3.6358,3.6358,3.6358,3.6358,3.6358,3.6452,3.7807,3.8879,0.0,1.727,1.7505,1.6311,1.6297,1.5668,1.2226,1.3055,0.0,1.0973,1.1661,1.2539,1.1931,1.1724,1.168,1.1849,0.0,0.0,0.0,0.0,0.0,0.0,0.0,0.0,0.0,0.0,0.0,0.0,0.0,0.0,0.0,3.0889,3.0889,3.0889,3.0889,3.0889,3.0889,3.0889,3.0889,3.0889,3.0889,3.0889,3.0889,3.0889,0.0,0.0,0.0,0.0,0.0,3.0889,3.0889,3.0889,3.0889,3.0889,3.0889,3.0889,3.0889,3.1112,3.2644,3.4069,3.5508,3.7145,3.857,3.9697,3.9697,3.9697,3.9697,3.9697,3.9697,3.9697,3.9697,3.9697,3.9559,3.9057,3.8894,3.858,3.7475,3.7211,3.7023,3.6471,3.6358,3.6358,3.6358,3.6358,3.6358,3.6358,3.6358,3.6358,3.6358,3.6358,3.6358,3.6358,3.6358,3.6358,3.6358,3.5429,3.5052,3.5567,3.5604,3.583,3.6345,3.6358,3.6358,3.6358,3.6358,3.6358,3.6358,3.6358,3.6358,3.6465,3.8344,3.915,1.4563,0.0,1.4648,1.3985,1.3888,1.3584,0.0,1.2122,1.2057,1.1346,0.0,1.143,1.195,1.1406,1.1488,0.0,0.0,0.0,0.0,0.0,0.0,0.0,0.0,0.0,0.0,0.0,0.0,0.0,0.0,0.0,0.0,3.0889,3.0889,3.0889,3.0889,3.0889,3.0889,3.0889,3.0889,3.0889,3.0889,3.0889,3.0889,3.0889,0.0,0.0,0.0,0.0,3.0889,3.0889,3.0889,3.0889,3.0889,3.0889,3.0889,3.0889,3.0889,3.1112,3.2644,3.4069,3.5738,3.836,3.9465,3.9697,3.9697,3.9697,3.9697,3.9697,3.9697,3.9697,3.9697,3.9697,3.9659,3.9534,3.9182,3.868,3.7965,3.7475,3.7023,3.6471,3.6358,3.6358,3.6358,3.6358,3.6358,3.6358,3.6358,3.6358,3.6358,3.6358,3.6358,3.6358,3.6358,3.6358,3.6358,3.6119,3.6031,3.6157,3.6169,3.6219,3.6358,3.6358,3.6358,3.6358,3.6358,3.6358,3.6358,3.6358,3.6358,3.6465,3.9146,4.0398,1.3099,1.3209,1.3271,1.3046,1.2704,1.2249,1.1403,1.1368,0.0,0.0,0.0,1.0889,1.1201,1.1171,0.0,0.0,0.0,0.0,0.0,0.0,0.0,0.0,0.0,0.0,0.0,0.0,0.0,0.0,0.0,0.0,0.0,3.0889,3.0889,3.0889,3.0889,3.0889,3.0889,3.0889,3.0889,3.0889,3.0889,3.0889,3.0889,3.0889,3.0889,0.0,0.0,0.0,3.0889,3.0889,3.0889,3.0889,3.0889,3.0889,3.0889,3.0889,3.0889,3.1112,3.2644,3.4069,3.5508,3.7156,3.7701,3.782,3.8477,3.8687,3.8804,3.9478,3.9697,3.9697,3.9697,3.9697,3.9697,3.9697,3.9471,3.9094,3.853,3.7965,3.74,3.6847,3.6533,3.6358,3.6358,3.6358,3.6358,3.6358,3.6358,3.6358,3.6358,3.6358,3.6358,3.6358,3.6358,3.6358,3.6358,3.6358,3.6358,3.6358,3.6358,3.6358,3.6358,3.6358,3.6358,3.6358,3.6358,3.6358,3.6358,3.6358,3.6358,3.6465,3.915,4.0078,1.2159,1.2388,1.2736,1.2518,1.205,1.1431,1.0288,0.0,0.0,0.0,0.0,0.0,0.0,0.0,0.0,0.0,0.0,0.0,0.0,0.0,0.0,0.0,0.0,0.0,0.0,0.0,0.0,0.0,0.0,0.0,0.0,3.0665,3.082,3.0889,3.0889,3.0889,3.0889,3.0889,3.0889,3.0889,3.0889,3.0889,3.0889,3.0889,3.0889,0.0,0.0,0.0,3.0889,3.0889,3.0889,3.0889,3.0889,3.0889,3.0889,3.0889,3.0889,3.1112,3.2644,3.4069,3.5288,3.5288,3.5288,3.5617,3.7037,3.7465,3.7796,3.9245,3.9697,3.9697,3.9697,3.9697,3.9697,3.9697,3.9697,3.9546,3.8994,3.8417,3.7839,3.7287,3.6734,3.6358,3.6358,3.6358,3.6358,3.6358,3.6358,3.6358,3.6358,3.6358,3.6358,3.6358,3.6358,3.6358,3.6358,3.6358,3.6358,3.6358,3.6358,3.6358,3.6358,3.6358,3.6358,3.6358,3.6358,3.6358,3.6358,3.6358,3.6358,3.6477,3.8398,3.8846,1.2976,1.3007,1.2609,1.1099,1.095,1.0974,0.9989,0.0,0.0,0.0,0.0,0.0,0.0,0.0,0.0,0.0,0.0,0.0,0.0,0.0,0.0,0.0,0.0,0.0,0.0,0.0,0.0,0.0,0.0,0.0,0.0,2.9594,3.0488,3.0879,3.0889,3.0889,3.0889,3.0889,3.0889,3.0889,3.0889,3.0889,3.0889,3.0889,3.0889,0.0,0.0,3.0889,3.0889,3.0889,3.0889,3.0889,3.0889,3.0889,3.0889,3.0889,3.0889,3.1112,3.2644,3.4069,3.5288,3.5288,3.5288,3.5617,3.7037,3.7465,3.7796,3.9245,3.9697,3.9697,3.9697,3.9697,3.9697,3.9697,3.9697,3.9546,3.8994,3.8417,3.7839,3.7287,3.6734,3.6358,3.6358,3.6358,3.6358,3.6358,3.6358,3.6358,3.6358,3.6358,3.6358,3.6358,3.6358,3.6358,3.6358,3.6358,3.6358,3.6358,3.6358,3.6358,3.6358,3.6358,3.6358,3.6358,3.6358,3.6358,3.6358,3.6358,3.6358,3.637,3.6805,3.7291,1.1449,1.1681,1.1752,1.0752,1.1122,1.1604,1.0994,0.0,0.0,0.0,0.0,0.0,0.0,0.0,0.0,0.0,0.0,0.0,0.0,0.0,0.0,0.0,0.0,0.0,0.0,0.0,0.0,0.0,0.0,0.0,0.0,0.0,3.0059,3.0508,3.0518,3.0635,3.0889,3.0889,3.0889,3.0889,3.0889,3.0889,3.0889,3.0889,3.0889,3.0889,0.0,3.0889,3.0889,3.0889,3.0889,3.0889,3.0889,3.0889,3.0889,3.0889,3.0889,3.1005,3.1662,3.2322,3.2882,3.2882,3.2882,3.3314,3.5606,3.6271,3.6811,3.9037,3.9697,3.9697,3.9697,3.9697,3.9697,3.9697,3.9697,3.9622,3.9371,3.863,3.8027,3.8078,3.7161,3.6458,3.6759,3.6558,3.6358,3.6358,3.6358,3.6358,3.6358,3.6358,3.6358,3.6358,3.6358,3.6358,3.6358,3.6358,3.6358,3.6358,3.6358,3.6358,3.6358,3.6358,3.6358,3.6358,3.6358,3.6358,3.6358,3.6358,3.6358,3.637,3.6973,3.7525,1.0371,1.0709,1.1131,1.086,0.0,1.2011,1.2064,0.0,0.0,0.0,0.0,0.0,0.0,0.0,0.0,0.0,0.0,0.0,0.0,0.0,0.0,0.0,0.0,0.0,0.0,0.0,0.0,0.0,0.0,0.0,0.0,0.0,2.9263,3.0039,3.0049,3.0225,3.0576,3.0586,3.0684,3.0889,3.0889,3.0889,3.0889,3.0889,3.0889,3.0889,3.0889,3.0889,3.0889,3.0889,3.0889,3.0889,3.0889,3.0889,3.0889,3.0889,3.0889,3.0889,3.0889,3.0889,3.1005,3.1334,3.1441,3.1998,3.4958,3.5836,3.6379,3.8921,3.9697,3.9697,3.9697,3.9697,3.9697,3.9697,3.9697,3.9697,3.9697,3.8919,3.8304,3.8617,3.7525,3.6646,3.6935,3.6634,3.6358,3.6358,3.6358,3.6358,3.6358,3.6358,3.6358,3.6358,3.6358,3.6358,3.6358,3.6358,3.6358,3.6358,3.6358,3.6358,3.6358,3.6358,3.6358,3.6358,3.6358,3.6358,3.6358,3.6358,3.6358,3.6395,3.7764,3.8404,1.1443,1.1497,1.1522,1.135,1.1223,0.0,1.2513,1.2245,0.0,1.2906,0.0,0.0,0.0,0.0,0.0,0.0,0.0,0.0,0.0,0.0,0.0,0.0,0.0,0.0,0.0,0.0,0.0,0.0,0.0,0.0,0.0,0.0,0.0,2.96,2.9619,2.9629,2.9658,2.9668,3.0078,3.0889,3.0889,3.0889,3.0889,3.0889,3.0889,3.0889,3.0889,3.0889,3.0889,3.0889,3.0889,3.0889,3.0889,3.0889,3.0889,3.0889,3.0889,3.0889,3.0889,3.0889,3.1112,3.253,3.2964,3.3519,3.6476,3.7358,3.769,3.9245,3.9697,3.9697,3.9697,3.9697,3.9697,3.9697,3.9697,3.9697,3.9697,3.9233,3.8668,3.8165,3.7563,3.6973,3.6508,3.6383,3.6358,3.6358,3.6358,3.6358,3.6358,3.6358,3.6358,3.6358,3.6358,3.6358,3.6358,3.6358,3.6358,3.6358,3.6358,3.6358,3.6358,3.6358,3.6358,3.6358,3.6358,3.6358,3.6358,3.6358,3.6358,3.6408,3.8567,3.9572,1.0037,1.0405,1.0726,1.1075,1.1483,0.0,0.0,1.3287,1.3721,0.0,0.0,0.0,0.0,0.0,0.0,0.0,0.0,0.0,0.0,0.0,0.0,0.0,0.0,0.0,0.0,0.0,0.0,0.0,0.0,0.0,0.0,0.0,0.0,2.915,2.917,2.9297,2.957,2.957,2.9736,3.0068,3.0068,3.0205,3.0459,3.0459,3.0615,3.0889,3.0889,3.0889,3.0889,3.0889,3.0889,3.0889,3.0889,3.0889,3.0889,3.0889,3.0889,3.0995,3.1988,3.1662,3.1334,3.3642,3.3856,3.362,3.6584,3.7465,3.7796,3.9245,3.9697,3.9697,3.9697,3.9697,3.9697,3.9697,3.9697,3.9697,3.9697,3.9258,3.8906,3.9032,3.8316,3.7701,3.7739,3.7374,3.691,3.6433,3.6358,3.6358,3.6358,3.6358,3.6358,3.6358,3.6358,3.6358,3.6358,3.6358,3.6358,3.6358,3.6358,3.6358,3.6358,3.6358,3.6358,3.6358,3.7726,3.8429,3.8429,3.8429,3.8429,3.8454,3.9295,3.9697,0.9352,0.9806,1.0401,1.0982,0.0,0.0,1.342,1.4088,1.4736,0.0,0.0,0.0,0.0,0.0,0.0,0.0,0.0,0.0,0.0,0.0,0.0,0.0,0.0,0.0,0.0,0.0,0.0,0.0,0.0,0.0,0.0,0.0,0.0,0.0,2.8721,2.8867,2.916,2.917,2.917,2.917,2.917,2.9531,3.0195,3.0195,3.0449,3.0889,3.0889,3.0889,3.0889,3.0889,3.0889,3.0889,3.0889,3.0889,3.0889,3.0889,3.1218,3.1767,3.2747,3.2758,3.2654,3.4637,3.4958,3.4836,3.6918,3.7796,3.8465,3.9465,3.9697,3.9697,3.9697,3.9697,3.9697,3.9697,3.9697,3.9697,3.9697,3.9396,3.9195,3.9396,3.8944,3.8479,3.8291,3.7927,3.7362,3.6496,3.6358,3.6358,3.6358,3.6358,3.6358,3.6358,3.6358,3.6646,3.7349,3.7412,3.7412,3.7412,3.7412,3.7098,3.6395,3.6358,3.6697,3.74,3.8919,3.9697,3.9697,3.9697,3.9697,3.9697,3.9697,3.9697,0.9753,1.0114,1.0766,0.0,0.0,0.0,1.4195,1.4529,1.4863,0.0,0.0,0.0,0.0,0.0,0.0,0.0,0.0,0.0,0.0,0.0,0.0,0.0,0.0,0.0,0.0,0.0,0.0,0.0,0.0,0.0,0.0,0.0,0.0,0.0,2.8291,2.8291,2.8291,2.8291,2.8291,2.8291,2.8291,2.8955,3.0185,3.0185,3.0439,3.0879,3.0879,3.0879,3.0889,3.0889,3.0889,3.0889,3.0889,3.0889,3.0889,3.0889,3.1883,3.3077,3.3077,3.4069,3.53,3.53,3.6271,3.7465,3.7465,3.857,3.9697,3.9697,3.9697,3.9697,3.9697,3.9697,3.9697,3.9697,3.9697,3.9697,3.9697,3.9697,3.9534,3.8981,3.932,3.9233,3.7776,3.7801,3.7651,3.6521,3.6358,3.6358,3.6358,3.6358,3.637,3.6395,3.6395,3.7287,3.9496,3.9697,3.9697,3.9697,3.9672,3.868,3.6483,3.6395,3.7437,3.9647,3.9697,3.9697,3.9697,3.9697,3.9697,3.9697,3.9697,3.9697,0.9505,1.0297,0.0,0.0,0.0,0.0,0.0,1.5297,0.0,0.0,0.0,0.0,0.0,0.0,0.0,0.0,0.0,0.0,0.0,0.0,0.0,0.0,0.0,0.0,0.0,0.0,0.0,0.0,0.0,0.0,0.0,0.0,0.0,0.0,2.8291,2.8291,2.8291,2.8291,2.8291,2.8291,2.8291,2.8652,2.9297,2.9297,2.9541,2.9961,2.9961,3.0137,3.043,3.0752,3.0889,3.0889,3.0889,3.0889,3.1005,3.2092,3.2092,3.1988,3.5167,3.5167,3.4292,3.737,3.8031,3.769,3.8687,3.9362,3.9697,3.9697,3.9697,3.9697,3.9697,3.9697,3.9697,3.9697,3.9697,3.9697,3.9697,3.9697,3.9647,3.9484,3.9584,3.9559,3.912,3.9132,3.8542,3.6646,3.6358,3.6358,3.6358,3.6358,3.696,3.853,3.8705,3.8981,3.9634,3.9697,3.9697,3.9697,3.8216,3.7764,3.8668,3.8705,3.9019,3.9685,3.9697,3.9697,3.9697,3.9697,3.9697,3.9697,3.9697,3.9697,1.01,0.0,0.0,0.0,0.0,0.0,0.0,0.0,0.0,0.0,0.0,0.0,0.0,0.0,0.0,0.0,0.0,0.0,0.0,0.0,0.0,0.0,0.0,0.0,0.0,0.0,0.0,0.0,0.0,0.0,0.0,0.0,0.0,0.0,2.8291,2.8291,2.8291,2.8291,2.8291,2.8291,2.8291,2.8428,2.8672,2.8848,2.916,2.957,2.957,2.9717,2.9971,3.0254,3.0469,3.0615,3.0615,3.0732,3.1005,3.1872,3.2426,3.2985,3.5057,3.5715,3.5934,3.7489,3.8137,3.8465,3.8687,3.9245,3.9697,3.9697,3.9697,3.9697,3.9697,3.9697,3.9697,3.9697,3.9697,3.9697,3.9697,3.9697,3.9697,3.9697,3.8981,3.8655,3.9546,3.8956,3.7914,3.6558,3.6358,3.6358,3.6358,3.7136,3.8203,3.9546,3.9697,3.9697,3.9697,3.9697,3.9697,3.9697,3.8429,3.8291,3.9634,3.9697,3.9697,3.9697,3.9697,3.9697,3.9697,3.9697,3.9697,3.9697,3.9697,3.9697,1.1009,0.0,0.0,0.0,0.0,0.0,0.0,0.0,0.0,0.0,0.0,0.0,0.0,0.0,0.0,0.0,0.0,0.0,0.0,0.0,0.0,0.0,0.0,0.0,0.0,0.0,0.0,0.0,0.0,0.0,0.0,0.0,0.0,2.8291,2.8291,2.8291,2.8291,2.8291,2.8291,0.0,2.8291,2.8291,2.8301,2.8682,2.9082,2.9453,2.9492,2.9512,2.9512,2.9551,2.9795,3.0137,3.0137,3.042,3.083,3.0937,3.2727,3.4748,3.3856,3.6054,3.8921,3.6499,3.7489,3.9465,3.8137,3.8687,3.9697,3.9697,3.9697,3.9697,3.9697,3.9697,3.9697,3.9697,3.9697,3.9697,3.9697,3.9697,3.9634,3.9433,3.7751,3.701,3.9044,3.7701,3.6358,3.6358,3.6358,3.6358,3.6358,3.8316,3.9697,3.9697,3.9697,3.9697,3.9697,3.9697,3.9697,3.9697,3.9697,3.9697,3.9697,3.9697,3.9697,3.9697,3.9697,3.9697,3.9697,3.9697,3.9697,3.9697,3.9697,3.9981,0.0,1.1687,0.0,0.0,0.0,0.0,0.0,0.0,0.0,0.0,0.0,0.0,0.0,0.0,0.0,0.0,0.0,0.0,0.0,0.0,0.0,0.0,0.0,0.0,0.0,0.0,0.0,0.0,0.0,0.0,0.0,0.0,0.0,2.8291,2.8291,2.8291,2.8291,2.8291,2.8291,0.0,2.8291,2.8291,2.8301,2.8389,2.8476,2.8584,2.8916,2.9062,2.9082,2.9434,2.9619,2.9707,2.9707,2.9971,3.0456,3.1656,3.2014,3.2322,3.5497,3.6379,3.6499,3.8255,3.9141,3.9685,3.9362,3.9465,3.9697,3.9697,3.9697,3.9697,3.9697,3.9697,3.9697,3.9697,3.9697,3.9697,3.9697,3.9697,3.9182,3.7425,3.6684,3.6508,3.6998,3.6684,3.6358,3.6358,3.6358,3.6358,3.6358,3.8316,3.9697,3.9697,3.9697,3.9697,3.9697,3.9697,3.9697,3.9697,3.9697,3.9697,3.9697,3.9697,3.9697,3.9697,3.9697,3.9697,3.9697,3.9697,3.9697,3.9697,3.9697,4.1887,0.0,0.0,0.0,0.0,0.0,0.0,0.0,0.0,0.0,0.0,0.0,0.0,0.0,0.0,0.0,0.0,0.0,0.0,0.0,0.0,0.0,0.0,0.0,0.0,0.0,0.0,0.0,0.0,0.0,0.0,0.0,2.6349,2.6997,2.7978,2.7988,2.8086,2.8291,2.8291,2.8291,2.8291,2.8291,2.8291,2.8291,2.8291,2.8291,2.8301,2.8525,2.8613,2.8633,2.8867,2.9072,2.9258,2.9258,2.9521,3.0005,3.0761,3.1136,3.1564,3.3168,3.4717,3.6117,3.7003,3.8374,3.9697,3.9697,3.9697,3.9697,3.9697,3.9697,3.9697,3.9697,3.9697,3.9421,3.8354,3.8919,3.9697,3.9697,3.8856,3.7751,3.6584,3.7224,3.7613,3.6546,3.6358,3.6722,3.7789,3.7965,3.7965,3.7965,3.8981,3.9697,3.9697,3.9697,3.9697,3.9697,3.9697,3.9697,3.9697,3.9697,3.9697,3.9697,3.9697,3.9697,3.9697,3.9697,3.9697,3.9697,3.9697,3.9697,3.9788,4.2168,4.4734,0.0,0.0,0.0,0.0,0.0,0.0,0.0,0.0,0.0,0.0,0.0,0.0,0.0,0.0,0.0,0.0,0.0,0.0,0.0,0.0,0.0,0.0,0.0,0.0,0.0,0.0,0.0,0.0,0.0,0.0,2.6803,2.6973,2.7178,2.7539,2.7559,2.7715,2.8066,2.8076,2.8105,2.8184,2.8262,2.8291,2.8291,2.8291,2.8291,2.8291,2.8291,2.8291,2.8291,2.8291,2.8496,2.8809,2.8809,2.9072,2.9453,2.9453,3.0249,3.1278,3.0319,3.2576,3.5806,3.5028,3.6731,3.9096,3.9544,3.9697,3.9697,3.9697,3.9697,3.9697,3.9697,3.9408,3.8655,3.681,3.7776,3.912,3.912,3.7663,3.6471,3.686,3.8429,3.8981,3.6747,3.6358,3.7123,3.9358,3.9697,3.9697,3.9697,3.9697,3.9697,3.9697,3.9697,3.9697,3.9697,3.9697,3.9697,3.9697,3.9697,3.9697,3.9697,3.9697,3.9697,3.9697,3.9697,3.9697,3.9697,3.9697,4.0173,4.1119,4.5312,4.7309,0.0,0.0,0.0,0.0,0.0,0.0,0.0,0.0,0.0,0.0,0.0,0.0,0.0,0.0,0.0,0.0,0.0,0.0,0.0,0.0,0.0,0.0,0.0,0.0,0.0,0.0,0.0,0.0,0.0,0.0,2.6365,2.6816,2.7041,2.71,2.71,2.7129,2.7187,2.7187,2.7373,2.7754,2.8115,2.8291,2.8291,2.8291,2.8291,2.8291,2.8291,2.8291,2.8291,2.8291,2.833,2.8379,2.8379,2.8633,2.9004,2.9004,2.9349,2.9996,3.1179,3.1962,3.2793,3.5001,3.6004,3.6808,3.9059,3.9697,3.9697,3.9697,3.9697,3.9697,3.9697,3.8266,3.6734,3.6433,3.6584,3.681,3.681,3.6571,3.6935,3.8868,3.9496,3.8981,3.6747,3.6358,3.7123,3.9358,3.9697,3.9697,3.9697,3.9697,3.9697,3.9697,3.9697,3.9697,3.9697,3.9697,3.9697,3.9697,3.9697,3.9697,3.9697,3.9697,3.9697,3.9697,3.9697,3.9697,3.9697,3.9697,4.1985,4.6255,4.7019,4.7309,1.0959,1.2026,1.3333,0.0,0.0,0.0,0.0,0.0,0.0,0.0,0.0,0.0,0.0,0.0,0.0,0.0,0.0,0.0,0.0,0.0,0.0,0.0,0.0,0.0,0.0,0.0,0.0,0.0,0.0,2.5395,2.5927,2.6201,2.6416,2.666,2.666,2.6777,2.7012,2.7012,2.7236,2.7666,2.7851,2.8066,2.8291,2.8291,2.8291,2.8291,2.8291,2.8291,2.8291,2.8291,2.8291,2.8291,2.8291,2.8408,2.8564,2.8564,2.8691,2.8957,2.9577,3.0729,3.1923,3.1721,3.3049,3.5457,3.8741,3.9697,3.9697,3.9697,3.9697,3.9697,3.9697,3.8969,3.8228,3.8228,3.8228,3.8228,3.8228,3.8228,3.8517,3.9496,3.868,3.7513,3.6533,3.6358,3.6697,3.7676,3.8894,3.9697,3.9697,3.9697,3.9697,3.9697,3.9697,3.9697,3.9697,3.9697,3.9697,3.9697,3.9697,3.9697,3.9697,4.2461,4.3975,4.3975,4.1119,3.9697,3.9697,4.2544,4.5115,4.7309,4.7309,4.7309,1.1402,1.1998,1.2472,1.4108,0.0,0.0,0.0,0.0,0.0,0.0,0.0,0.0,0.0,0.0,0.0,0.0,0.0,0.0,0.0,0.0,0.0,0.0,0.0,0.0,0.0,0.0,0.0,0.0,0.0,2.5742,2.5742,2.5742,2.5889,2.6211,2.6221,2.6377,2.6689,2.6807,2.7021,2.7344,2.7451,2.7725,2.8135,2.8135,2.8193,2.8291,2.8291,2.8291,2.8291,2.8291,2.8291,2.8291,2.8291,2.8291,2.8291,2.8291,2.8291,2.8291,2.8291,2.9596,3.081,2.8943,3.0271,3.3343,3.7621,3.8843,3.8969,3.9534,3.9697,3.9697,3.9697,3.9697,3.9697,3.9697,3.9697,3.9697,3.9697,3.9697,3.9521,3.8956,3.75,3.6358,3.6358,3.6358,3.6558,3.7123,3.863,3.9697,3.9697,3.9697,3.9697,3.9697,3.9697,3.9697,3.9697,4.0932,4.1132,3.9788,3.9697,3.9697,3.9697,4.3313,4.5403,4.5403,4.293,4.1604,4.1604,4.5494,4.7309,4.7309,4.7309,4.7309,0.9315,1.0067,0.0,0.0,0.0,0.0,0.0,0.0,0.0,0.0,0.0,0.0,0.0,0.0,0.0,0.0,0.0,0.0,0.0,0.0,0.0,0.0,0.0,0.0,0.0,0.0,0.0,0.0,0.0,2.5742,2.5742,2.5742,2.5752,2.5771,2.5771,2.5781,2.5801,2.6211,2.6435,2.6455,2.6855,2.7275,2.7695,2.7695,2.792,2.8291,2.8291,2.8291,2.8291,2.8291,2.8291,2.8291,2.8291,2.8291,2.8291,2.8291,2.8291,2.8291,2.8291,2.8417,2.8427,2.8301,2.8427,2.9584,3.4993,3.6533,3.6973,3.9094,3.9697,3.9697,3.9697,3.9697,3.9697,3.9697,3.9697,3.9697,3.9697,3.9697,3.9069,3.6948,3.6445,3.6358,3.6358,3.6358,3.7073,3.9195,3.9622,3.9697,3.9697,3.9697,3.9697,3.9697,3.9697,3.9697,3.9697,4.4163,4.4826,3.9981,3.9697,3.9697,3.9697,3.9981,4.007,4.007,4.4549,4.6916,4.6916,4.7207,4.7309,4.7309,4.7309,4.7309,0.8537,0.9332,0.0,0.0,0.0,0.0,0.0,0.0,0.0,0.0,0.0,0.0,0.0,0.0,0.0,0.0,0.0,0.0,0.0,0.0,0.0,0.0,0.0,0.0,0.0,0.0,0.0,0.0,0.0,0.0,2.5742,2.5742,2.5742,2.5742,2.5742,2.5742,2.5742,2.5889,2.6113,2.6387,2.6543,2.6836,2.7256,2.7539,2.7744,2.791,2.8174,2.8291,2.8291,2.8291,2.8291,2.8291,2.8291,2.8291,2.8291,2.8291,2.8291,2.8291,2.8291,2.8291,2.8291,2.8291,2.8291,2.9303,3.4739,3.6358,3.6533,3.7324,3.755,3.7889,3.932,3.9697,3.9333,3.7889,3.755,3.755,3.755,3.755,3.7324,3.6521,3.6358,3.6358,3.6358,3.755,3.8768,3.9572,3.9697,3.9697,3.9697,3.9697,3.9697,3.9697,3.9697,4.1032,4.4256,4.6255,4.6535,4.4734,4.1505,3.9697,3.9697,3.9697,3.9697,3.9697,4.1505,4.4069,4.7309,4.7309,4.7309,4.7309,4.7309,4.7309,0.7756,0.0,0.0,0.0,0.0,0.0,0.0,0.0,0.0,0.0,0.0,0.0,0.0,0.0,0.0,0.0,0.0,0.0,0.0,0.0,0.0,0.0,0.0,0.0,0.0,0.0,0.0,0.0,0.0,0.0,2.5742,2.5742,2.5742,2.5742,2.5742,2.5742,2.5742,2.5742,2.5889,2.6172,2.6172,2.6396,2.6816,2.7109,2.7314,2.7461,2.7744,2.8027,2.8291,2.8291,2.8291,2.8291,2.8291,2.8291,2.8291,2.8291,2.8291,2.8291,2.8291,2.8291,2.8291,2.8291,2.8291,2.9303,3.4739,3.6358,3.6358,3.6358,3.6358,3.6709,3.8191,3.858,3.8203,3.6709,3.6358,3.6358,3.6358,3.6358,3.6358,3.6358,3.6358,3.6609,3.7349,3.8718,3.9697,3.9697,3.9697,3.9697,3.9697,3.9697,3.9697,3.9697,4.1219,4.293,4.4642,4.6344,4.7309,4.7309,4.2558,3.9697,3.9697,3.9697,3.9697,3.9697,3.9697,4.1419,4.4734,4.6447,4.7309,4.7309,4.7309,4.7309,0.0,0.0,0.0,0.0,0.0,0.0,0.0,0.0,0.0,0.0,0.0,0.0,0.0,0.0,0.0,0.0,0.0,0.0,0.0,0.0,0.0,0.0,0.0,0.0,0.0,0.0,0.0,0.0,0.0,2.5742,2.5742,2.5742,2.5742,2.5742,2.5742,2.5635,2.5635,2.5635,2.5635,2.5635,2.5635,2.5957,2.6367,2.6387,2.6611,2.689,2.69,2.7376,2.8145,2.8262,2.8271,2.8271,2.8291,2.8291,2.8291,2.8291,2.8291,2.8291,2.8291,2.8291,2.8291,2.8291,2.8388,2.9503,3.4836,3.6358,3.6358,3.6358,3.6358,3.6358,3.6358,3.6358,3.6358,3.6358,3.6358,3.6358,3.6358,3.6358,3.6358,3.6358,3.6358,3.7073,3.9308,3.9697,3.9697,3.9697,3.9697,3.9697,3.9697,3.9697,3.9697,3.9697,4.4256,4.5298,4.0364,4.4456,4.7309,4.7309,4.2558,3.9697,3.9697,3.9697,3.9697,3.9697,3.9697,3.9697,3.9697,4.4642,4.7121,4.7309,4.7309,4.7309,0.672,0.0,0.0,0.0,0.0,0.0,0.0,0.0,0.0,0.0,0.0,0.0,0.0,0.0,0.0,0.0,0.0,0.0,0.0,0.0,0.0,0.0,0.0,0.0,0.0,0.0,0.0,0.0,2.5742,2.5742,2.5742,2.5742,2.5742,2.5742,2.5742,2.5226,2.4304,2.5226,2.5226,2.4304,2.5226,2.5801,2.5928,2.625,2.5915,2.508,2.5376,2.5104,2.4571,2.694,2.7842,2.7871,2.8174,2.8291,2.8291,2.8291,2.8291,2.8291,2.8291,2.8291,2.8291,2.8291,3.0916,3.4435,3.5953,3.6358,3.6358,3.6358,3.6358,3.6358,3.6358,3.6358,3.6358,3.6358,3.6358,3.6358,3.6358,3.6358,3.6358,3.6358,3.6358,3.7073,3.9308,3.9697,3.9697,3.9697,3.9697,3.9697,3.9697,3.9697,3.9697,3.9697,4.4256,4.6726,4.5298,4.6447,4.7309,4.7309,4.2558,3.9697,3.9697,3.9697,3.9697,3.9697,3.9697,3.9697,3.9697,4.1119,4.3693,4.7309,4.7309,4.7309,0.6847,0.7341,0.0,0.0,0.0,0.0,0.0,0.0,0.0,0.0,0.0,0.0,0.0,0.0,0.0,0.0,0.0,0.0,0.0,0.0,0.0,0.0,0.0,0.0,0.0,0.0,0.0,2.509,2.5361,2.5537,2.5723,2.5742,2.5742,2.5742,2.5742,2.502,2.3683,2.451,2.4196,2.2868,2.3692,2.4304,2.4824,2.5168,2.4864,2.4043,2.438,2.3642,2.252,2.4602,2.6029,2.6797,2.7034,2.768,2.8291,2.8291,2.8291,2.8291,2.8291,2.8291,2.8291,2.8291,3.1916,3.6358,3.6358,3.6358,3.5953,3.3639,3.4642,3.6358,3.6358,3.6358,3.6358,3.6358,3.6358,3.6358,3.6358,3.6358,3.6634,3.7575,3.7751,3.8165,3.9471,3.9697,3.9697,3.9697,3.9697,3.9697,3.9697,3.9697,3.9697,3.9697,4.2363,4.4163,4.4163,4.4163,4.4163,4.4163,4.1319,3.9697,3.9697,3.9697,3.9697,3.9697,3.9697,4.0743,4.2834,4.2834,4.4349,4.7309,4.7309,4.7309,0.7255,0.757,0.0,0.0,0.0,0.0,0.9933,1.0134,0.0,0.0,0.0,0.0,0.0,0.0,0.0,0.0,0.0,0.0,0.0,0.0,0.0,0.0,0.0,0.0,0.0,2.3056,2.299,2.4322,2.4775,2.5071,2.5363,2.5489,2.5392,2.5189,2.5295,2.4673,2.3152,2.3295,2.2807,2.1694,2.1828,2.2567,2.3692,2.3692,2.3484,2.3276,2.3276,2.2466,2.1269,2.1808,2.3391,2.5421,2.5475,2.6592,2.8154,2.8203,2.8223,2.8232,2.8271,2.8291,2.8291,2.8291,3.152,3.5547,3.5547,3.5547,3.4642,3.0411,3.2733,3.6358,3.6358,3.6358,3.6358,3.6358,3.6358,3.6358,3.6358,3.6358,3.6948,3.8931,3.9521,3.9697,3.9697,3.9697,3.9697,3.9697,3.9697,3.9697,3.9697,3.9697,3.9697,3.9697,3.9697,3.9697,3.9697,3.9697,3.9697,3.9697,3.9697,3.9584,3.9333,3.932,3.9446,3.9685,4.0262,4.2738,4.7309,4.7309,4.7309,4.7309,4.7309,4.7309,0.819,0.8537,0.8844,0.0,0.0,0.0,0.0,0.8891,0.0,0.0,0.0,0.0,0.0,0.0,0.0,0.0,0.0,0.0,0.0,0.0,0.0,0.0,0.0,0.0,0.0,2.2423,2.299,2.4322,2.4492,2.4105,2.3229,2.4097,2.3796,2.1856,2.2736,2.2057,1.9716,2.0966,2.161,2.1313,2.262,2.3484,2.3692,2.3692,2.2466,2.0444,2.0444,1.9627,1.8506,1.9695,2.1911,2.4633,2.4959,2.5993,2.7305,2.7666,2.7783,2.7832,2.8174,2.8291,2.8291,2.8291,2.9006,2.9911,2.9911,2.9911,3.0618,3.3934,3.5547,3.6358,3.6358,3.6358,3.6358,3.6358,3.6358,3.6358,3.6358,3.6358,3.6483,3.6923,3.8467,3.9697,3.9697,3.9697,3.9697,3.9697,3.9697,3.9697,3.9697,3.9697,3.9697,3.9697,3.9697,3.9697,3.9697,3.9697,3.9697,3.9697,3.9697,3.8881,3.7086,3.701,3.7864,3.9659,4.3693,4.6344,4.7309,4.7309,4.7309,4.7309,4.7309,4.7309,0.8115,0.8637,0.915,0.9065,0.0,0.0,0.0,0.0,0.0,0.0,0.0,0.0,0.0,0.0,0.0,0.0,0.0,0.0,0.0,0.0,0.0,0.0,0.0,0.0,0.0,2.2223,2.2905,2.3981,2.4102,2.3629,2.269,2.3177,2.269,2.0858,2.1345,2.077,1.8746,2.0167,2.0247,1.8987,2.0624,2.1395,2.1495,2.1577,2.0947,1.9627,1.9627,1.8812,1.7681,1.9013,2.0941,2.308,2.4199,2.5647,2.7041,2.7266,2.7432,2.7568,2.7783,2.8047,2.8291,2.8291,3.011,3.2331,3.2331,3.0411,2.89,3.1622,3.4338,3.6358,3.6358,3.6358,3.6358,3.6358,3.6358,3.6358,3.6358,3.6358,3.6358,3.6358,3.7274,3.8379,3.9496,3.9697,3.932,3.8203,3.8981,3.9697,3.9697,3.8718,3.8027,3.8027,3.8027,3.8027,3.8027,3.8027,3.8027,3.8027,3.8027,3.7525,3.6408,3.6358,3.8052,4.1471,4.3963,4.5319,4.5319,4.5319,4.6007,4.7309,4.7309,4.7309,0.0,0.0,0.0,0.0,0.0,0.9265,0.0,0.0,0.0,0.9993,0.0,0.0,0.0,0.0,0.0,0.0,0.0,0.0,0.0,0.0,0.0,0.0,0.0,0.0,0.0,2.1865,2.2402,2.335,2.3262,2.2786,2.1955,2.2137,2.1705,2.0268,2.0458,1.9981,1.8842,1.995,1.9508,1.7788,1.9086,1.9744,1.9852,1.9821,1.9778,1.9831,1.9633,1.9058,1.8499,1.9826,2.1049,2.219,2.3622,2.52,2.6777,2.6865,2.7051,2.7275,2.7373,2.7803,2.8291,2.8291,3.1916,3.6358,3.6358,3.333,2.9911,2.9911,3.3032,3.6358,3.6358,3.6358,3.6358,3.6358,3.6358,3.6358,3.6358,3.6358,3.6358,3.6358,3.6358,3.6935,3.8743,3.9044,3.8442,3.6634,3.7889,3.9044,3.9044,3.7475,3.6358,3.6358,3.6358,3.6358,3.6358,3.6358,3.6358,3.6358,3.6358,3.6358,3.6358,3.7243,3.9508,4.325,4.3329,4.3329,4.3329,4.3329,4.4436,4.6531,4.6531,4.6531,0.0,0.0,0.0,0.0,1.0408,0.0,0.0,0.0,0.9359,0.8751,0.0,0.0,0.0,0.0,0.0,0.0,0.0,0.0,0.0,0.0,0.0,0.0,0.0,0.0,0.0,0.0,2.0732,2.2012,2.1377,2.0447,1.936,2.0703,2.0434,1.8163,1.9068,1.9528,1.9428,1.9832,2.0474,2.1432,2.1819,2.2004,2.2004,2.0975,2.0573,2.0767,1.9691,1.9961,2.1347,2.2667,2.3285,2.3484,2.3737,2.4603,2.5928,2.6318,2.6543,2.6738,2.7246,2.7803,2.8291,2.8291,3.1916,3.6358,3.6358,3.5953,3.5451,3.5451,3.5953,3.6358,3.6358,3.6358,3.6358,3.6358,3.6358,3.6358,3.6358,3.6358,3.6358,3.6358,3.6358,3.6445,3.6697,3.6734,3.6659,3.6408,3.6571,3.6734,3.6734,3.6521,3.6358,3.6358,3.6358,3.6358,3.6358,3.6358,3.6358,3.6358,3.6358,3.6358,3.6358,4.0376,4.2725,4.325,4.3329,4.3329,4.3329,4.3329,4.3494,4.3778,4.3778,4.3778,0.0,0.0,0.0,0.0,0.0,0.0,0.0,0.0,0.8422,0.0,0.0,0.0,0.0,0.0,0.0,0.0,0.0,0.0,0.0,0.0,0.0,0.0,0.0,0.0,0.0,0.0,0.0,0.0,0.0,1.991,1.9219,2.0057,1.993,1.847,1.8823,1.9192,1.9497,2.0278,2.0637,2.0563,2.1609,2.1693,2.0934,2.067,2.0555,2.0598,2.0125,2.0416,2.1429,2.2733,2.3475,2.3791,2.4609,2.5226,2.5762,2.5947,2.6045,2.6123,2.6357,2.6602,2.7451,3.1662,3.4545,3.6119,3.4839,3.4462,3.4713,3.6006,3.6358,3.6358,3.6358,3.6358,3.6358,3.6358,3.6358,3.6358,3.6358,3.6358,3.6358,3.6358,3.6358,3.6358,3.6358,3.6358,3.6358,3.6358,3.6358,3.6358,3.6358,3.6358,3.6358,3.6358,3.6358,3.7507,4.0204,4.0376,4.0376,4.0376,4.0376,4.0376,4.0376,4.229,4.3329,4.3329,4.3329,4.3329,4.3329,4.3329,4.3329,4.3329,4.3329,4.3329,0.6662,0.0,0.0,0.0,0.0,0.0,0.0,0.0,0.0,0.0,0.0,0.0,0.0,0.0,0.0,0.0,0.0,0.0,0.0,0.0,0.0,0.0,0.0,0.0,0.0,0.0,0.0,0.0,0.0,0.0,1.9228,1.9576,1.963,1.9233,1.9255,1.9609,2.0338,2.1337,2.1391,2.0503,2.1617,2.1661,2.0819,2.0712,2.0899,2.1285,2.1001,2.1205,2.2039,2.3139,2.3763,2.4235,2.5275,2.5742,2.5742,2.5742,2.5742,2.583,2.6466,2.721,2.8629,3.3776,3.5466,3.5165,3.3571,3.3081,3.3407,3.5014,3.5893,3.6358,3.6358,3.6358,3.6358,3.6358,3.6358,3.6358,3.6358,3.6358,3.6358,3.6358,3.6358,3.6358,3.6358,3.6358,3.6358,3.6358,3.6358,3.6358,3.6358,3.6358,3.6883,3.8198,3.8289,3.9669,4.2996,4.3329,4.3329,4.3329,4.3329,4.3329,4.3329,4.3329,4.3329,4.3329,4.3329,4.3329,4.3329,4.3329,4.3329,4.3329,4.3329,4.3329,0.0,0.0,0.0,0.7716,0.0,0.0,0.0,0.0,0.8534,0.0,0.0,0.0,0.0,0.0,1.0007,1.001,0.0,0.0,0.0,0.0,0.0,0.0,0.0,0.0,0.0,0.0,0.0,0.0,0.0,0.0,1.8673,1.9173,1.9567,1.9951,2.0422,2.1176,2.2349,2.2843,2.3047,2.296,2.3057,2.3067,2.2979,2.1793,2.2193,2.3628,2.2419,2.2824,2.437,2.4798,2.5078,2.5127,2.5566,2.5742,2.5742,2.5742,2.5742,2.6014,2.8495,3.0866,3.2896,3.3156,3.3181,3.3169,3.3106,3.3081,3.3093,3.3169,3.4713,3.6358,3.6358,3.6358,3.6358,3.6358,3.6358,3.6358,3.6358,3.6358,3.6358,3.6358,3.6358,3.6358,3.6358,3.6358,3.6358,3.6358,3.6358,3.6358,3.6358,3.6358,3.8107,4.2629,4.3076,4.3155,4.325,4.3329,4.3329,4.3329,4.3329,4.3329,4.3329,4.3329,4.3329,4.3329,4.3329,4.3329,4.3329,4.3329,4.3329,4.3329,4.3329,4.3329,0.0,0.0,0.7114,0.6332,0.0,0.0,0.0,0.0,0.0,0.0,0.0,0.0,0.0,0.0,0.9533,0.9724,0.9713,0.0,0.0,0.0,0.0,0.0,0.0,0.0,0.0,0.0,0.0,0.0,0.0,0.0,0.0,1.9193,1.9904,2.04,2.0838,2.1499,2.251,2.2656,2.2861,2.3135,2.3135,2.3135,2.3057,2.2677,2.2381,2.2147,2.2532,2.2777,2.2889,2.3876,2.456,2.5117,2.5566,2.5742,2.582,2.6924,2.7652,2.8495,3.0956,3.2426,3.3081,3.3081,3.3081,3.3081,3.3081,3.3081,3.3081,3.3081,3.4663,3.6358,3.6358,3.6358,3.6358,3.6358,3.6358,3.6358,3.6358,3.6358,3.6358,3.6358,3.6358,3.6358,3.6358,3.6358,3.6358,3.6358,3.6358,3.6358,3.6358,3.6358,3.8198,4.2805,4.3329,4.3329,4.3329,4.3329,4.3329,4.3329,4.3329,4.3329,4.3329,4.1669,4.0741,4.0741,4.0741,4.0741,4.0741,4.0741,4.1873,4.4138,4.4138,4.5212,0.6125,0.6359,0.0,0.5705,0.5661,0.0,0.6618,0.0,0.0,0.0,0.0,0.0,0.0,0.0,0.95,0.9886,0.9465,0.9174,0.0,0.0,0.0,0.0,0.0,0.0,0.0,0.0,1.2757,1.4332,0.0,0.0,0.0,0.0,1.957,2.0312,2.0762,2.1338,2.2051,2.2363,2.2646,2.292,2.3066,2.2862,2.2492,2.2492,2.1756,2.0755,2.1943,2.219,2.1898,2.3252,2.4111,2.4658,2.5098,2.5459,2.5917,2.7934,2.9487,3.0866,3.2052,3.2698,3.3081,3.3081,3.3081,3.3081,3.3081,3.3081,3.3081,3.3081,3.4098,3.519,3.519,3.519,3.519,3.519,3.519,3.519,3.519,3.5805,3.6358,3.6358,3.6358,3.6358,3.6358,3.6358,3.6358,3.6358,3.6358,3.6977,3.8635,3.889,4.0017,4.2981,4.3329,4.3329,4.3329,4.2476,4.1938,4.1938,4.1938,4.1938,4.1938,4.0322,3.9424,3.9424,3.9424,3.999,4.1229,4.1229,4.2379,4.4587,4.4587,4.5602]},{"header":{"parameterUnit":"m.s-1","parameterCategory":1,"la1":30.6,"la2":29.2853,"lo1":-89.7004,"lo2":-87.6739,"dy":0.0162,"dx":0.0183,"nx":112,"ny":82,"refTime":"2026-05-07T00:00:00:Z","depth":0,"parameterNumber":3,"parameterNumberName":"V-component_of_WINDS"},"data":[0.0,0.0,0.0,0.0,0.0,0.0,0.0,0.0,0.0,0.0,0.0,0.0,0.0,0.0,0.0,0.0,0.0,0.0,0.0,0.0,0.0,0.0,0.0,0.0,0.0,0.0,0.0,0.0,0.0,0.0,0.0,0.0,0.0,0.0,0.0,0.0,0.0,0.0,0.0,0.0,0.0,0.0,0.0,0.0,0.0,0.0,0.0,0.0,0.0,0.0,0.0,0.0,0.0,0.0,0.0,0.0,0.0,0.0,0.0,0.0,0.0,0.0,0.0,0.0,0.0,0.0,0.0,0.0,0.0,0.0,0.0,0.0,0.0,0.0,0.0,0.0,0.0,0.0,0.0,0.0,0.0,0.0,0.0,0.0,0.0,0.0,0.0,0.0,0.0,0.0,0.0,1.6564,1.872,2.0629,2.2013,2.1451,2.054,1.9321,0.0,0.0,0.0,0.0,0.0,0.0,0.0,0.0,0.0,0.0,0.0,0.0,0.0,0.0,0.0,0.0,0.0,0.0,0.0,0.0,0.0,0.0,0.0,0.0,0.0,0.0,0.0,0.0,0.0,0.0,0.0,0.0,0.0,0.0,0.0,0.0,0.0,0.0,0.0,0.0,0.0,0.0,0.0,0.0,0.0,0.0,0.0,0.0,0.0,0.0,0.0,0.0,0.0,0.0,0.0,0.0,0.0,0.0,0.0,0.0,0.0,0.0,0.0,0.0,0.0,0.0,0.0,0.0,0.0,0.0,0.0,0.0,0.0,0.0,0.0,0.0,0.0,0.0,0.0,0.0,0.0,0.0,0.0,0.0,0.0,0.0,0.0,0.0,0.0,0.0,0.0,0.0,0.0,0.0,0.0,0.0,0.0,0.0,0.0,0.0,0.0,0.0,0.0,0.0,1.5189,1.9093,2.0409,2.1576,2.2963,2.208,2.1096,2.0421,0.0,0.0,0.0,0.0,0.0,0.0,0.0,0.0,0.0,0.0,0.0,0.0,0.0,0.0,0.0,0.0,0.0,0.0,0.0,0.0,0.0,0.0,0.0,0.0,0.0,0.0,0.0,0.0,0.0,0.0,0.0,0.0,0.0,0.0,0.0,0.0,0.0,0.0,0.0,0.0,0.0,0.0,0.0,0.0,0.0,0.0,0.0,0.0,0.0,0.0,0.0,0.0,0.0,0.0,0.0,0.0,0.0,0.0,0.0,0.0,0.0,0.0,0.0,0.0,0.0,0.0,0.0,0.0,0.0,0.0,0.0,0.0,0.0,0.0,0.0,0.0,0.0,0.0,0.0,0.0,0.0,0.0,0.0,0.0,0.0,0.0,0.0,0.0,0.0,0.0,0.0,0.0,0.0,0.0,0.0,0.0,0.0,0.0,0.0,0.0,0.0,0.0,0.0,1.5642,1.7491,2.0512,2.1731,2.2608,2.3266,2.2457,2.1538,2.0651,1.8784,0.0,0.0,0.0,0.0,0.0,0.0,0.0,0.0,0.0,0.0,0.0,0.0,0.0,0.0,0.0,0.0,0.0,0.0,0.0,0.0,0.0,0.0,0.0,0.0,0.0,0.0,0.0,0.0,0.0,0.0,0.0,0.0,0.0,0.0,0.0,0.0,0.0,0.0,0.0,0.0,0.0,0.0,0.0,0.0,0.0,0.0,0.0,0.0,0.0,0.0,0.0,0.0,0.0,0.0,0.0,0.0,0.0,0.0,0.0,0.0,0.0,0.0,0.0,0.0,0.0,0.0,0.0,0.0,0.0,0.0,0.0,0.0,0.0,0.0,0.0,0.0,0.0,0.0,0.0,0.0,0.0,0.0,0.0,0.0,0.0,0.0,0.0,0.0,0.0,0.0,0.0,0.0,0.0,0.0,0.0,0.0,0.0,0.0,0.0,0.0,0.0,0.0,1.8123,1.9863,2.1886,2.2926,2.3554,2.3646,2.2702,2.167,2.0604,1.8708,0.0,0.0,0.0,0.0,0.0,0.0,0.0,0.0,0.0,0.0,0.0,0.0,0.0,0.0,0.0,0.0,0.0,0.0,0.0,0.0,0.0,0.0,0.0,0.0,0.0,0.0,0.0,0.0,0.0,0.0,0.0,0.0,0.0,0.0,0.0,0.0,0.0,0.0,0.0,0.0,0.0,0.0,0.0,0.0,0.0,0.0,0.0,0.0,0.0,0.0,0.0,0.0,0.0,0.0,0.0,0.0,0.0,0.0,0.0,0.0,0.0,0.0,0.0,0.0,0.0,0.0,0.0,0.0,0.0,0.0,0.0,0.0,0.0,0.0,0.0,0.0,0.0,0.0,0.0,0.0,0.0,0.0,0.0,0.0,0.0,0.0,0.0,0.0,0.0,0.0,0.0,0.0,0.0,0.0,0.0,0.0,0.0,0.0,0.0,0.0,0.0,0.0,1.8723,2.1068,2.3767,2.4103,2.4254,2.4663,2.2752,2.1232,2.0482,1.7911,0.0,0.0,0.0,0.0,0.0,0.0,0.0,0.0,0.0,0.0,0.0,0.0,0.0,0.0,0.0,0.0,0.0,0.0,0.0,0.0,0.0,0.0,0.0,0.0,0.0,0.0,0.0,0.0,0.0,0.0,0.0,0.0,0.0,0.0,0.0,0.0,0.0,0.0,0.0,0.0,0.0,0.0,0.0,0.0,0.0,0.0,0.0,0.0,0.0,0.0,0.0,0.0,0.0,0.0,0.0,0.0,0.0,0.0,0.0,0.0,0.0,0.0,0.0,0.0,0.0,0.0,0.0,0.0,0.0,0.0,0.0,0.0,0.0,0.0,0.0,0.0,0.0,0.0,0.0,0.0,0.0,0.0,0.0,0.0,0.0,0.0,0.0,0.0,0.0,0.0,0.0,0.0,0.0,0.0,0.0,0.0,0.0,0.0,0.0,0.0,0.0,0.0,1.995,2.2259,0.0,2.4961,2.4987,2.4806,2.3401,2.1924,2.0502,0.0,0.0,0.0,0.0,0.0,0.0,0.0,0.0,0.0,0.0,0.0,0.0,0.0,0.0,0.0,0.0,0.0,0.0,0.0,0.0,0.0,0.0,0.0,0.0,0.0,0.0,0.0,0.0,0.0,0.0,0.0,0.0,0.0,0.0,0.0,0.0,0.0,0.0,0.0,0.0,0.0,0.0,0.0,0.0,0.0,0.0,0.0,0.0,0.0,0.0,0.0,0.0,0.0,0.0,0.0,0.0,0.0,0.0,0.0,0.0,0.0,0.0,0.0,0.0,0.0,0.0,0.0,0.0,0.0,0.0,0.0,0.0,0.0,0.0,0.0,0.0,0.0,0.0,0.0,0.0,0.0,0.0,0.0,0.0,0.0,0.0,0.0,0.0,0.0,0.0,0.0,0.0,0.0,0.0,0.0,0.0,0.0,0.0,0.0,0.0,0.0,0.0,1.8793,2.1162,2.3369,0.0,2.5747,2.5586,2.4883,2.3786,2.2201,2.0027,0.0,0.0,0.0,0.0,0.0,0.0,0.0,0.0,0.0,0.0,0.0,0.0,0.0,0.0,0.0,0.0,0.0,0.0,0.0,0.0,0.0,0.0,0.0,0.0,0.0,0.0,0.0,0.0,0.0,0.0,0.0,0.0,0.0,0.0,0.0,0.0,0.0,0.0,0.0,0.0,0.0,0.0,0.0,0.0,0.0,0.0,0.0,0.0,0.0,0.0,0.0,0.0,0.0,0.0,0.0,0.0,0.0,0.0,0.0,0.0,0.0,0.0,0.0,0.0,0.0,0.0,0.0,0.0,0.0,0.0,0.0,0.0,0.0,0.0,0.0,0.0,0.0,0.0,0.0,0.0,0.0,0.0,0.0,0.0,0.0,0.0,0.0,0.0,0.0,0.0,0.0,0.0,0.0,0.0,0.0,0.0,0.0,0.0,0.0,0.0,0.0,0.0,2.0229,2.2277,2.4256,2.6271,2.6533,2.6013,2.4921,2.3896,2.2049,0.0,0.0,0.0,0.0,0.0,0.0,0.0,0.0,0.0,0.0,0.0,0.0,0.0,0.0,0.0,0.0,0.0,0.0,0.0,0.0,0.0,0.0,0.0,0.0,0.0,0.0,0.0,0.0,0.0,0.0,0.0,0.0,0.0,0.0,0.0,0.0,0.0,0.0,0.0,0.0,0.0,0.0,0.0,0.0,0.0,0.0,0.0,0.0,0.0,0.0,0.0,0.0,0.0,0.0,0.0,0.0,0.0,0.0,0.0,0.0,0.0,0.0,0.0,0.0,0.0,0.0,0.0,0.0,0.0,0.0,0.0,0.0,0.0,0.0,0.0,0.0,0.0,0.0,0.0,0.0,0.0,0.0,0.0,0.0,0.0,0.0,0.0,0.0,0.0,0.0,0.0,0.0,0.0,0.0,0.0,0.0,0.0,0.0,0.0,0.0,0.0,0.0,0.0,2.081,2.3121,2.4959,2.6339,2.6533,2.6013,2.4921,2.4197,2.2415,1.9021,0.0,0.0,0.0,0.0,0.0,0.0,0.0,0.0,0.0,0.0,0.0,0.0,0.0,0.0,0.0,0.0,0.0,0.0,0.0,0.0,0.0,0.0,0.0,0.0,0.0,0.0,0.0,0.0,0.0,0.0,0.0,0.0,0.0,0.0,0.0,0.0,0.0,0.0,0.0,0.0,0.0,0.0,0.0,0.0,0.0,0.0,0.0,0.0,0.0,0.0,0.0,0.0,0.0,0.0,0.0,0.0,0.0,0.0,0.0,0.0,0.0,0.0,0.0,0.0,0.0,0.0,0.0,0.0,0.0,0.0,0.0,0.0,0.0,0.0,0.0,0.0,0.0,0.0,0.0,0.0,0.0,0.0,0.0,0.0,0.0,0.0,0.0,0.0,0.0,0.0,0.0,0.0,0.0,0.0,0.0,0.0,0.0,0.0,0.0,0.0,0.0,0.0,2.1099,2.3439,2.5247,2.6408,2.6533,2.6013,2.4921,2.4849,2.3256,1.9433,0.0,0.0,0.0,0.0,0.0,0.0,0.0,0.0,0.0,0.0,0.0,0.0,0.0,0.0,0.0,0.0,0.0,0.0,0.0,0.0,0.0,0.0,0.0,0.0,0.0,0.0,0.0,0.0,0.0,0.0,0.0,0.0,0.0,0.0,0.0,0.0,0.0,0.0,0.0,0.0,0.0,0.0,0.0,0.0,0.0,0.0,0.0,0.0,0.0,0.0,0.0,0.0,0.0,0.0,0.0,0.0,0.0,0.0,0.0,0.0,0.0,0.0,0.0,0.0,0.0,0.0,0.0,0.0,0.0,0.0,0.0,0.0,0.0,0.0,0.0,0.0,0.0,0.0,0.0,0.0,0.0,0.0,0.0,0.0,0.0,0.0,0.0,0.0,0.0,0.0,0.0,0.0,0.0,0.0,0.0,0.0,0.0,0.0,0.0,0.0,0.0,0.0,2.1204,2.3477,2.5297,2.6352,2.6533,2.608,2.496,2.5501,2.4189,2.0228,0.0,0.0,0.0,0.0,0.0,0.0,0.0,0.0,0.0,0.0,0.0,0.0,0.0,0.0,0.0,0.0,0.0,0.0,0.0,0.0,0.0,0.0,0.0,0.0,0.0,0.0,0.0,0.0,0.0,0.0,0.0,0.0,0.0,0.0,0.0,0.0,0.0,0.0,0.0,0.0,0.0,0.0,0.0,0.0,0.0,0.0,0.0,0.0,0.0,0.0,0.0,0.0,0.0,0.0,0.0,0.0,0.0,0.0,0.0,0.0,2.1915,0.0,0.0,0.0,0.0,0.0,0.0,0.0,0.0,0.0,0.0,0.0,0.0,0.0,0.0,0.0,0.0,0.0,0.0,0.0,0.0,0.0,0.0,0.0,0.0,0.0,0.0,0.0,0.0,0.0,0.0,0.0,0.0,0.0,0.0,0.0,0.0,0.0,0.0,0.0,0.0,0.0,2.1204,2.3803,2.5686,2.6445,2.6533,2.6257,2.5712,2.5319,2.4086,2.1623,0.0,0.0,0.0,0.0,0.0,0.0,0.0,0.0,0.0,0.0,0.0,0.0,0.0,0.0,0.0,0.0,0.0,0.0,0.0,0.0,0.0,0.0,0.0,0.0,0.0,0.0,0.0,0.0,0.0,0.0,0.0,0.0,0.0,0.0,0.0,0.0,0.0,0.0,0.0,0.0,0.0,0.0,0.0,0.0,0.0,0.0,0.0,0.0,0.0,0.0,0.0,0.0,0.0,0.0,0.0,0.0,0.0,0.0,0.0,0.0,0.0,2.3593,0.0,0.0,0.0,0.0,0.0,0.0,0.0,0.0,0.0,0.0,0.0,0.0,0.0,0.0,0.0,0.0,0.0,0.0,0.0,0.0,0.0,0.0,0.0,0.0,0.0,0.0,0.0,0.0,0.0,0.0,0.0,0.0,0.0,0.0,0.0,0.0,0.0,0.0,0.0,0.0,2.1594,2.4054,2.5824,2.6471,2.6533,2.6304,2.5794,2.5553,2.453,2.2587,2.0615,0.0,0.0,0.0,0.0,0.0,0.0,0.0,0.0,0.0,0.0,0.0,0.0,0.0,0.0,0.0,0.0,0.0,0.0,0.0,0.0,0.0,0.0,0.0,0.0,0.0,0.0,0.0,0.0,0.0,0.0,0.0,0.0,0.0,0.0,0.0,0.0,0.0,0.0,0.0,0.0,0.0,0.0,0.0,0.0,0.0,0.0,0.0,0.0,0.0,0.0,0.0,0.0,0.0,3.3642,3.2188,3.139,3.1294,3.1854,3.2796,2.9098,2.803,2.8644,0.0,0.0,0.0,0.0,0.0,0.0,0.0,0.0,0.0,0.0,0.0,0.0,0.0,0.0,0.0,0.0,0.0,0.0,0.0,0.0,0.0,0.0,0.0,0.0,0.0,2.5765,2.5228,0.0,0.0,0.0,0.0,0.0,0.0,0.0,0.0,0.0,0.0,0.0,0.0,2.2184,2.4381,2.5937,2.6483,2.6533,2.6294,2.5836,2.5755,2.504,2.3589,2.1931,2.0022,0.0,0.0,0.0,0.0,0.0,0.0,0.0,0.0,0.0,0.0,0.0,0.0,0.0,0.0,0.0,0.0,0.0,0.0,0.0,0.0,0.0,0.0,0.0,0.0,0.0,0.0,0.0,0.0,0.0,0.0,0.0,0.0,2.0378,2.1201,0.0,0.0,0.0,0.0,0.0,0.0,0.0,0.0,0.0,0.0,0.0,0.0,0.0,2.4283,2.2577,3.1165,3.6073,3.7165,3.6775,3.5985,3.4831,3.408,3.4244,3.5085,3.4483,0.0,2.9924,2.8719,0.0,0.0,0.0,0.0,0.0,0.0,0.0,0.0,0.0,0.0,0.0,0.0,0.0,0.0,0.0,0.0,0.0,0.0,0.0,0.0,0.0,0.0,2.8391,2.9299,2.9203,2.8717,0.0,2.4816,2.1484,2.0569,1.8755,0.0,0.0,0.0,0.0,0.0,0.0,0.0,2.2811,2.4971,2.6445,2.6521,2.6533,2.654,2.657,2.5537,2.4942,2.4925,2.2711,2.0886,1.9707,1.7978,0.0,0.0,0.0,0.0,0.0,0.0,0.0,0.0,0.0,0.0,0.0,0.0,0.0,0.0,0.0,0.0,0.0,0.0,0.0,0.0,0.0,0.0,0.0,0.0,0.0,0.0,0.0,0.0,0.0,2.0303,2.2443,2.2727,2.343,2.3355,0.0,0.0,0.0,0.0,0.0,0.0,0.0,0.0,0.0,2.934,2.8382,2.934,3.2467,3.5968,3.7988,3.8527,3.7778,3.712,3.6582,3.6956,3.7345,3.7704,3.7704,3.6821,3.525,3.338,3.0806,2.7784,0.0,0.0,0.0,0.0,2.2398,2.2393,2.5934,2.9713,0.0,3.0127,0.0,0.0,0.0,0.0,0.0,0.0,0.0,0.0,0.0,0.0,0.0,3.1806,3.1921,3.1696,3.1751,2.9778,2.7118,0.0,2.2876,2.1513,1.9476,0.0,0.0,0.0,0.0,0.0,2.5091,2.6673,2.7682,2.7695,2.7424,2.6992,2.6601,2.576,2.5166,2.5005,2.3357,2.1908,2.0913,1.9193,1.74,0.0,0.0,0.0,0.0,0.0,0.0,0.0,0.0,0.0,0.0,0.0,0.0,0.0,0.0,0.0,0.0,0.0,0.0,0.0,0.0,0.0,0.0,0.0,0.0,0.0,0.0,0.0,0.0,2.2503,2.4373,2.4373,2.5704,2.5914,0.0,0.0,0.0,0.0,0.0,0.0,2.9968,3.091,3.2251,3.4128,3.2497,3.4113,3.9364,3.9424,3.9424,3.9409,3.8407,3.7913,3.7958,3.896,3.9424,3.9454,4.0127,4.0427,4.0217,3.7599,3.4951,3.2258,2.9295,2.8143,2.8023,2.7006,2.7066,2.8502,3.4442,3.6507,3.6118,3.3799,0.0,3.4786,3.3664,0.0,0.0,0.0,0.0,2.8768,3.1229,3.1833,3.2205,3.3645,3.4008,3.4008,3.4008,3.3484,3.1871,0.0,2.6919,2.5861,2.3252,0.0,0.0,0.0,0.0,2.5045,2.7205,2.8239,2.867,2.8347,2.7887,2.7317,2.6533,2.5937,2.5372,2.4858,2.3904,2.2849,2.1744,2.0526,1.902,1.72,0.0,0.0,0.0,0.0,0.0,0.0,0.0,0.0,0.0,0.0,0.0,0.0,0.0,0.0,0.0,0.0,0.0,0.0,0.0,0.0,0.0,0.0,0.0,0.0,0.0,0.0,0.0,0.0,0.0,2.6437,2.8173,0.0,0.0,0.0,0.0,2.9101,3.0462,3.1854,3.32,3.5278,3.689,3.7793,3.7315,3.7793,3.9409,3.9424,3.9424,3.9424,3.9349,3.932,3.932,3.9394,3.9424,3.9559,4.2058,4.3135,4.2925,4.0307,3.7674,3.5295,3.5085,3.5011,3.4996,3.4936,3.6477,3.8676,3.908,3.9215,3.899,3.7569,3.5519,3.3499,3.3021,3.2027,0.0,0.0,3.2147,3.2611,3.4743,3.523,3.526,3.5385,3.54,3.54,3.54,3.4861,3.3746,0.0,3.0189,2.8944,2.7423,0.0,2.5923,2.6984,2.7204,2.7577,2.8478,2.9111,2.8935,2.7544,2.7326,2.71,2.6571,2.5937,2.5372,2.4858,2.428,2.3452,2.2322,2.2196,2.1129,1.8895,1.779,0.0,0.0,0.0,0.0,0.0,0.0,0.0,0.0,0.0,0.0,0.0,0.0,0.0,0.0,0.0,0.0,0.0,0.0,0.0,0.0,0.0,0.0,0.0,0.0,0.0,0.0,0.0,0.0,3.0479,3.2879,0.0,0.0,3.2707,3.2834,3.1747,3.6154,3.9043,3.9342,4.0354,4.1243,4.2014,4.0715,4.0187,4.0681,4.1519,4.1938,4.1938,4.1938,4.1938,4.2,4.448,4.4272,4.1983,4.2925,4.3329,4.3269,4.2327,4.0891,3.92,3.8362,3.8018,3.8018,3.8018,3.8616,3.9424,3.9424,3.905,3.8497,3.8018,3.6851,3.5594,3.5444,3.502,3.4741,3.5021,3.5309,3.577,3.6529,3.6731,3.6731,3.6731,3.6731,3.6731,3.6731,3.6222,3.5559,3.4807,3.3309,3.1663,3.0338,2.9681,2.9402,2.934,2.9594,2.9951,3.0583,3.0773,3.0422,2.9412,2.8568,2.7773,2.7075,2.6138,2.5372,2.4858,2.4305,2.3653,2.2874,2.2159,2.1242,2.0112,1.8656,1.681,0.0,0.0,0.0,0.0,0.0,0.0,0.0,0.0,0.0,0.0,0.0,0.0,0.0,0.0,0.0,0.0,0.0,0.0,0.0,0.0,0.0,0.0,0.0,0.0,0.0,0.0,3.2228,3.3403,3.6238,3.7367,3.5623,3.6766,3.7188,3.5984,4.0368,4.3089,4.311,4.3668,4.4008,4.4097,4.3558,4.2808,4.2028,4.2895,4.3329,4.3329,4.3329,4.3329,4.3409,4.5945,4.6032,4.4251,4.3615,4.3329,4.3329,4.3329,4.2821,4.1953,4.1085,4.0741,4.0681,4.0247,4.0083,4.0023,3.9574,3.9185,3.8856,3.8631,3.8003,3.7345,3.7345,3.709,3.6851,3.7075,3.7419,3.7749,3.7749,3.7749,3.7689,3.7464,3.7404,3.7404,3.7404,3.709,3.6791,3.6791,3.537,3.3814,3.2721,3.2492,3.2288,3.1801,3.1988,3.2146,3.2069,3.1999,3.1382,3.0012,2.8983,2.8055,2.7364,2.6251,2.5372,2.4858,2.4305,2.3653,2.2887,2.2159,2.1418,2.0731,1.9045,1.7287,1.5429,0.0,0.0,0.0,0.0,0.0,0.0,0.0,0.0,0.0,0.0,0.0,0.0,0.0,0.0,0.0,0.0,0.0,0.0,0.0,0.0,0.0,0.0,0.0,2.7964,3.1424,3.4265,3.5126,3.8173,3.9661,3.835,4.0107,4.156,4.2173,4.2896,4.3603,4.4212,4.5129,4.5147,4.4118,4.592,4.5783,4.3536,4.3329,4.3453,4.3593,4.3593,4.3578,4.3468,4.3468,4.4465,4.608,4.422,4.3359,4.3329,4.3329,4.3329,4.3329,4.3314,4.3299,4.315,4.1848,4.1384,4.119,3.9918,3.9903,4.0322,3.9664,3.899,3.8452,3.8422,3.7973,3.7599,3.8242,3.8422,3.8422,3.8422,3.8422,3.8257,3.7629,3.7464,3.7464,3.7464,3.7464,3.7434,3.7434,3.6432,3.5355,3.4681,3.4547,3.4532,3.4532,3.4517,0.0,3.2736,3.2593,3.16,2.9226,2.8448,2.7896,2.7356,2.6239,2.536,2.4858,2.4268,2.3464,2.2385,2.2297,2.1782,2.0743,1.9083,1.7702,1.6572,0.0,0.0,0.0,0.0,0.0,0.0,0.0,0.0,0.0,0.0,0.0,0.0,0.0,0.0,0.0,0.0,0.0,0.0,0.0,0.0,0.0,0.0,3.0876,3.1393,3.5053,3.8341,4.0097,4.2543,4.3964,4.3621,4.4591,4.5025,4.4601,4.5844,4.642,4.593,4.7261,4.7897,4.7616,4.8824,4.8832,4.744,4.4675,4.5757,5.0681,5.0681,4.9377,4.7044,4.7734,4.7511,4.6523,4.5479,4.4337,4.3329,4.3329,4.3329,4.3284,4.2821,4.2626,4.2521,4.1683,4.1384,4.1324,4.0965,4.0965,4.0995,4.0337,4.0008,3.9753,3.9275,3.9005,3.8901,3.908,3.914,3.914,3.914,3.914,3.9095,3.8916,3.8871,3.8871,3.8871,3.8482,3.8123,3.8123,3.7449,3.6821,3.6626,3.6237,3.5938,3.5938,3.4935,0.0,3.2721,3.2033,3.1053,2.9719,2.8687,2.8047,2.7896,2.6126,2.4971,2.4833,2.354,2.2811,2.2912,2.2133,2.138,2.0731,1.9811,1.8832,0.0,0.0,0.0,0.0,0.0,0.0,0.0,0.0,0.0,0.0,0.0,0.0,0.0,0.0,0.0,0.0,0.0,0.0,0.0,0.0,0.0,0.0,3.1992,3.4892,3.6194,3.8488,4.089,4.2989,4.4714,4.5821,4.6126,4.6836,4.7046,4.6569,4.7676,4.8158,4.7655,4.8769,4.9509,4.9627,5.0219,5.0642,5.0879,4.867,4.9603,5.3501,5.2537,5.1024,4.9087,4.9224,4.8586,0.0,4.6545,4.5695,4.4747,4.4298,4.4152,0.0,0.0,0.0,0.0,0.0,4.2207,4.2147,4.1788,4.1713,4.1683,4.1025,4.0816,4.0741,4.0352,4.0053,3.9828,3.9828,3.9634,3.9424,3.9424,3.9424,3.9424,3.9424,3.9424,3.9424,3.9424,3.9095,3.8826,3.8826,3.8512,0.0,3.8257,3.7479,3.6881,3.6881,3.5866,3.4719,3.3706,3.2544,3.1402,3.0495,2.9188,2.8448,2.8448,2.696,0.0,0.0,0.0,2.394,2.3725,2.2273,0.0,0.0,0.0,0.0,0.0,0.0,0.0,0.0,1.9334,1.9685,0.0,0.0,0.0,0.0,0.0,0.0,0.0,0.0,0.0,0.0,0.0,0.0,0.0,0.0,0.0,0.0,3.5792,3.9189,4.1365,4.173,4.2505,4.448,4.5449,4.621,4.6853,4.7597,4.8037,4.8037,4.8646,4.9035,4.912,0.0,0.0,0.0,0.0,5.1555,5.3315,5.345,5.3501,5.3501,5.145,5.0495,5.0479,4.9289,4.8755,4.8602,4.7509,4.6951,4.6811,4.5753,4.5289,4.517,4.3928,4.3404,4.3329,4.3329,4.3329,4.3225,4.2447,0.0,0.0,4.1713,4.1489,4.1474,4.1399,4.0965,4.0502,4.0502,4.0038,3.9529,3.9529,3.9484,3.9424,3.9424,3.9424,3.9424,3.9424,3.9424,3.9424,3.9424,3.9424,3.9424,3.9424,3.8362,3.7524,3.7524,3.6903,3.6035,3.4977,3.3607,3.2245,3.1193,0.0,0.0,2.9076,2.8334,2.7802,2.7855,2.6998,2.5994,2.4747,2.2991,2.23,2.2869,2.2687,2.256,2.2498,2.3577,2.3891,2.3464,2.1355,2.143,0.0,0.0,0.0,0.0,0.0,0.0,0.0,0.0,0.0,0.0,0.0,0.0,0.0,0.0,0.0,3.5727,3.8649,4.1461,4.3654,4.4468,4.5031,4.5449,4.6667,4.7547,4.7682,4.8359,4.8798,4.8798,4.8934,4.9255,4.9847,5.0016,0.0,5.1065,5.1657,5.2063,5.2283,5.3095,5.3501,5.3501,0.0,0.0,5.2824,5.1702,5.0933,5.0287,4.8432,4.7386,4.6811,4.5753,4.5289,4.5214,4.4436,4.3808,4.3329,4.3329,4.3329,4.3314,4.315,4.3105,4.303,4.2387,4.2177,4.2073,4.1534,4.1294,0.0,4.119,4.0711,4.0217,4.0217,3.9813,3.9424,3.9424,3.9424,3.9424,3.9424,3.9424,3.9424,3.9424,3.9424,3.9424,3.9424,3.8736,3.8197,3.8197,3.7028,3.5553,3.4068,3.3612,3.2576,3.033,3.0738,3.0953,3.0144,2.9105,2.8598,2.8812,2.7778,2.6828,2.6162,2.5539,2.505,2.4726,2.4451,2.4117,2.3678,2.4343,2.5059,2.5787,2.4469,2.4079,0.0,0.0,0.0,0.0,0.0,0.0,0.0,0.0,0.0,0.0,0.0,3.033,3.1641,0.0,3.7157,3.8941,4.1321,4.3474,4.4919,4.6109,4.6819,4.6819,4.7462,4.8054,4.8426,4.8781,4.9001,4.9001,4.934,4.9712,5.0067,5.0794,5.1369,5.1742,5.2503,5.2858,5.2739,5.3247,5.3501,5.3501,5.3501,5.3501,5.3501,5.2956,5.2497,5.2077,5.0005,4.8906,4.8513,4.6917,4.6097,4.5783,4.5454,4.4706,4.3823,4.3823,4.3614,4.3329,4.3329,4.3329,4.3284,4.2955,4.2851,4.2791,4.2462,4.2132,4.1878,4.1878,4.116,4.0397,4.0397,3.9903,3.9424,3.9424,3.9424,3.9424,3.9424,3.9424,3.9424,3.9424,3.9424,3.9424,3.9424,3.9125,3.8901,3.8901,3.7934,3.676,3.5666,3.4783,3.3716,3.2042,3.2061,3.2011,3.1541,3.0645,3.0345,3.0773,2.9425,2.8424,2.7924,2.7346,2.6569,2.5559,2.5908,2.5787,2.5234,2.6063,2.6741,2.7268,2.6728,2.6465,0.0,0.0,0.0,0.0,0.0,0.0,0.0,0.0,2.8591,3.0256,3.2637,3.479,3.5964,3.8305,4.0467,4.1743,4.3581,4.5111,4.6007,4.7175,4.797,4.8122,4.8122,4.8359,4.8951,4.9001,4.9069,4.9204,4.9763,5.0219,5.0507,5.1657,5.2367,5.2536,5.3162,5.3501,5.3501,5.3501,5.3501,5.3501,5.3501,5.3501,5.3501,5.3501,5.3501,5.3348,5.1336,5.0242,4.9931,4.8072,4.6995,4.6516,4.6516,4.5768,4.4691,4.4556,4.4092,4.3524,4.3524,4.3449,4.3329,4.3329,4.3329,4.3329,4.3329,4.297,4.2551,4.2551,4.1698,4.0786,4.0786,4.0202,3.9604,3.9604,3.9514,3.9424,3.9424,3.9424,3.9424,3.9424,3.9424,3.9424,3.9424,3.9424,3.9424,3.9424,3.8945,3.8277,3.7466,3.6215,3.5059,3.4051,3.3465,3.3101,3.289,3.2471,3.2302,3.2581,3.1401,3.048,3.0102,2.9226,2.8126,2.6907,2.7391,2.7417,2.6779,2.767,2.816,2.826,2.826,2.826,2.4337,2.3632,2.3822,2.6078,2.6494,2.7583,0.0,0.0,3.3876,3.6452,3.8253,3.9603,4.0387,4.1805,4.3209,4.4069,4.497,4.6075,4.7479,4.7817,4.8156,4.8798,4.8883,4.8917,4.9001,4.9001,4.9272,4.9915,5.0033,5.0659,5.1978,5.2215,5.2638,5.3348,5.345,5.3501,5.3501,5.3501,5.3501,5.3501,5.3501,5.3501,5.3501,5.3501,5.3501,5.3348,5.1336,4.9852,4.8907,4.7764,4.7264,4.7189,4.7189,4.6741,4.6022,4.5409,4.4766,4.4212,4.4212,4.3823,4.3329,4.3329,4.3329,4.3329,4.3329,4.3284,4.3225,4.3225,4.2701,4.2147,4.2147,4.122,4.0292,4.0292,3.9843,3.9424,3.9424,3.9424,3.9424,3.9424,3.9424,3.9424,3.9424,3.9424,3.9424,3.9424,3.9349,3.8748,3.7245,3.7116,3.623,3.3898,3.4524,3.4839,3.3891,3.4076,3.3873,3.3064,3.3103,3.3106,3.3034,3.2164,3.1273,3.0264,2.9587,2.8782,2.7921,2.8047,2.836,2.8837,2.8837,2.8837,2.8666,2.842,0.0,0.0,3.1242,3.3053,3.5037,3.6555,3.802,3.9543,4.1054,4.2148,4.2436,4.3369,4.435,0.0,4.5855,4.6718,4.7767,4.7919,4.802,4.8342,4.8376,4.8545,4.8968,4.9001,4.9306,5.0033,5.049,5.12,5.2249,5.2739,5.3162,5.3501,5.3501,5.3501,5.3501,5.3501,5.3501,5.3501,5.3501,5.3501,5.3501,5.3501,5.3179,5.2487,5.1021,4.9773,4.8743,4.7679,4.7309,4.7309,4.7309,4.713,4.6815,4.6142,4.5469,4.4885,4.4885,4.4451,4.3898,4.3898,4.3643,4.3329,4.3329,4.3329,4.3329,4.3329,4.2865,4.2357,4.2357,4.1669,4.0965,4.0965,4.0472,3.9993,3.9993,3.9694,3.9424,3.9424,3.9424,3.9424,3.9424,3.9424,3.9424,3.9424,3.9424,3.9011,3.7955,3.7927,3.7292,3.547,3.5792,3.5762,3.4949,3.4427,3.4281,3.4456,3.4032,3.363,3.3328,3.326,3.2478,3.0946,3.0667,3.0165,2.9443,2.9212,2.9377,2.9905,2.9905,3.0068,3.1389,0.0,0.0,3.2992,3.5415,3.7652,3.7453,3.9312,4.1153,4.1711,4.2844,4.3741,4.3741,4.4198,4.4891,4.5855,4.6447,4.7124,4.8088,4.8054,4.7919,4.7919,4.7733,4.7902,4.8629,4.8883,4.939,5.0321,5.0913,5.164,5.2587,5.3179,5.3501,5.3501,5.3501,5.3501,5.3501,5.3501,5.3501,5.3501,5.3501,5.3501,5.3501,5.3501,5.311,5.2312,5.1245,5.0242,4.915,4.8141,4.7523,4.7309,4.7309,4.7309,4.7249,4.677,4.6157,4.5589,4.5589,4.514,4.4556,4.4377,4.3988,4.3569,4.3389,4.3329,4.3329,4.3329,4.3,4.2626,4.2626,4.2147,4.1654,4.1654,4.1145,4.0621,4.0442,4.0023,3.9634,3.9454,3.9424,3.9424,3.9424,3.9424,3.9424,3.9424,3.9424,3.923,3.8736,3.8497,3.7973,3.6866,3.6596,3.6297,3.5818,3.4942,3.4691,3.5424,3.4839,3.4257,3.3871,3.4228,3.3609,3.1864,3.167,3.1263,3.0586,3.0254,3.0363,3.1057,3.0905,3.1259,0.0,0.0,3.4766,3.6253,3.8331,4.0172,4.0865,4.2236,4.3318,4.3352,4.3995,4.4536,4.4536,4.4553,4.506,4.6515,4.6786,4.731,4.8765,4.8359,4.7919,4.7919,4.7276,4.7124,0.0,4.8595,4.961,5.1065,5.12,5.1877,5.3382,5.3501,5.3501,5.3501,5.3501,5.3501,5.3501,5.3501,5.3501,5.3501,5.3501,5.3501,5.3501,5.3501,5.3501,5.3416,5.2312,5.1303,5.0242,4.9231,4.8141,4.7309,4.7309,4.7309,4.7309,4.7279,4.686,4.6292,4.6292,4.5843,4.5155,4.4526,4.4302,4.4167,4.3524,4.3329,4.3329,4.3329,4.3329,4.3299,4.3299,4.2821,4.2327,4.2327,4.1833,4.1175,4.0531,4.0382,4.0187,3.9544,3.9424,3.9424,3.9424,3.9424,3.9424,3.9424,3.9424,3.9409,3.9394,3.8796,3.8138,3.7449,3.6851,3.6477,3.6462,3.5878,3.5439,3.5504,3.5439,3.5424,3.5409,3.5424,3.4971,3.3901,3.3003,3.2092,3.1154,3.0738,3.111,3.218,3.158,3.2196,0.0,0.0,3.7838,3.9343,4.1018,4.2371,4.2608,4.347,4.4045,4.3521,4.3639,4.3656,4.3149,4.347,4.4299,4.5821,4.6481,4.731,4.8798,4.8376,4.7733,4.7225,4.7394,0.0,0.0,0.0,0.0,5.0355,5.093,5.1657,5.2655,5.3213,5.3501,5.3501,5.3501,5.3501,5.3501,5.3501,5.3501,5.3501,5.3501,5.3501,5.3501,5.3501,5.3501,5.3433,5.24,5.132,5.0397,5.0009,4.9231,4.8293,4.8293,4.8293,4.821,4.7538,4.7174,4.698,4.698,4.6531,4.5948,4.5723,4.505,4.4272,4.4047,4.3673,4.3329,4.3329,4.3329,4.3329,4.3329,4.3165,4.3015,4.3015,4.2506,4.1968,4.1758,4.1354,4.0861,4.0187,4.0068,3.9933,3.9499,3.9424,3.9424,3.9424,3.9424,3.9424,3.9424,3.9215,3.8811,3.8138,3.7868,3.7569,3.7135,3.6896,3.6761,3.6761,3.6387,3.6148,3.6148,3.6148,3.6,3.5703,3.5134,3.4682,3.4379,3.3581,3.3603,3.429,3.4184,3.4497,3.7618,3.9022,4.0189,4.1904,4.3234,4.4192,4.4422,4.4647,4.456,4.356,4.2927,4.2295,4.1645,4.1694,4.2506,4.4553,4.5517,4.6616,4.8376,4.8206,4.7733,4.7259,4.7394,0.0,0.0,0.0,0.0,4.9982,5.0777,5.1539,5.2266,5.3061,5.3501,5.3501,5.3501,5.3501,5.3501,5.3501,5.3501,5.3501,5.3501,5.3501,5.3501,5.3501,5.3501,5.3433,5.2784,5.1865,5.093,5.093,5.0071,4.8825,4.8825,4.8594,4.8225,4.7538,4.7309,4.7309,4.7309,4.7025,4.6636,4.6396,4.5738,4.4945,4.4466,4.4018,4.3643,4.3404,4.3329,4.3329,4.3329,4.3329,4.3329,4.3329,4.3015,4.2641,4.2417,4.2028,4.1534,4.0876,4.0561,4.0262,3.9843,3.9574,3.9424,3.9424,3.9424,3.9424,3.9424,3.9424,3.9245,3.8796,3.8542,3.8227,3.7793,3.7539,3.7404,3.7404,3.7045,3.6821,3.6821,3.6821,3.6821,3.6821,3.6307,3.5985,3.5985,3.525,3.5272,3.5967,3.5794,3.61,3.8751,4.0256,4.1835,4.3905,4.4974,4.563,4.6139,4.5664,4.473,4.3371,4.1856,4.0565,0.0,0.0,3.9935,4.2794,4.4028,4.5415,4.7597,4.7953,4.7953,0.0,0.0,0.0,0.0,0.0,0.0,5.005,0.0,5.1539,5.2266,5.3061,5.3501,5.3501,5.3501,5.3501,5.3501,5.3501,5.3501,5.3501,5.3501,5.3501,5.3501,5.3501,5.3501,5.3501,5.3501,5.287,5.1905,5.1993,5.0763,4.8973,4.8973,4.8377,4.7452,4.7381,4.7294,4.7309,4.7309,4.7309,4.7204,4.6576,4.6352,4.6082,4.4811,4.4362,4.4182,4.3554,4.3359,4.3329,4.3329,4.3329,4.3329,4.3329,4.3329,4.3165,4.2551,4.2417,4.2222,4.1564,4.0876,4.0397,4.0397,3.9858,3.9424,3.9424,3.9424,3.9424,3.9424,3.9424,3.9424,3.9424,3.8841,3.8437,3.8437,3.7868,3.7509,3.7509,3.7479,3.7464,3.7464,3.7464,3.7464,3.7464,3.6585,3.6158,3.6158,3.5789,3.616,3.7112,3.6571,3.6852,4.1036,4.2501,4.3735,4.4377,4.5041,4.5252,4.4387,4.3973,4.3079,4.062,3.9316,3.8095,0.0,0.0,0.0,4.0747,4.347,0.0,4.7682,4.8392,0.0,0.0,0.0,4.8511,4.8714,4.9221,0.0,0.0,5.1099,5.1539,5.2266,5.3061,5.3501,5.3501,5.3501,5.3501,5.3501,5.3501,5.3501,5.3501,5.3501,5.3501,5.3501,5.3501,5.3501,5.3501,5.3501,5.287,5.1993,5.2784,5.2312,5.1139,5.1139,5.0458,4.9472,4.8677,4.7904,4.7309,4.7309,4.7309,4.7279,4.7115,4.6726,4.6262,4.5918,4.511,4.4272,4.4107,4.3718,4.3329,4.3329,4.3329,4.3329,4.3329,4.3329,4.3284,4.312,4.309,4.2895,4.2237,4.119,4.0397,4.0397,3.9858,3.9424,3.9424,3.9424,3.9424,3.9424,3.9424,3.9424,3.9424,3.926,3.9155,3.9155,3.9005,3.8916,3.8916,3.8422,3.8138,3.8138,3.8138,3.8138,3.8138,3.8403,3.8513,3.8513,3.8458,3.8531,3.8779,3.862,3.8294,4.3308,4.4446,4.5373,4.5728,4.5835,4.5464,4.4243,4.3225,4.163,3.8382,3.6732,0.0,0.0,0.0,0.0,0.0,0.0,0.0,4.7175,4.8342,4.8968,0.0,4.9238,0.0,4.9932,5.0338,5.0896,0.0,5.1691,5.186,5.2283,5.3061,5.3501,5.3501,5.3501,5.3501,5.3501,5.3501,5.3501,5.3501,5.3501,5.3501,5.3501,5.3501,5.3501,5.3501,0.0,5.3179,5.2627,5.3264,5.287,5.1921,5.1921,5.1005,4.9615,4.9054,4.8141,4.7381,4.7849,4.7988,4.7919,4.7452,4.7352,4.7213,4.6481,4.5798,4.514,4.4825,4.4272,4.3763,4.3763,4.3554,4.3329,4.3329,4.3329,4.3329,4.3329,4.3329,4.3135,4.2491,4.1758,4.1175,4.0876,4.0292,3.9843,3.9843,3.9604,3.9424,3.9424,3.9424,3.9424,3.9424,3.9424,3.9424,3.9424,3.9424,3.9424,3.9424,3.905,3.8841,3.8841,3.8841,3.8841,3.8841,3.923,3.9424,3.9424,3.9424,3.9424,3.9424,3.9709,3.9535,4.5318,4.6081,4.676,4.708,4.6618,4.5719,4.4375,4.252,4.0001,3.6218,0.0,3.2357,3.0866,3.2053,3.4218,3.7127,0.0,4.3978,4.6447,4.7986,4.9171,4.9999,5.0084,5.0422,5.1268,5.1369,5.1674,5.2401,5.2469,5.2469,5.2469,5.3129,5.3501,5.3501,5.3501,5.3501,5.3501,5.3501,5.3501,5.3501,5.3501,5.3501,5.3501,5.3501,5.3501,5.3501,0.0,0.0,5.3501,5.3501,5.2939,5.2082,5.2082,5.0914,4.9215,4.9054,4.8377,4.7609,4.8527,4.8907,4.8841,4.7849,4.8057,4.8486,4.693,4.6396,4.6202,4.5603,4.496,4.4421,4.4332,4.3883,4.3449,4.3359,4.3329,4.3329,4.3329,4.3329,4.3165,4.2596,4.2417,4.2177,4.1609,4.0965,4.0531,4.0531,4.0053,3.9649,3.9559,3.9469,3.9424,3.9424,3.9424,3.9424,3.9424,3.9424,3.9424,3.9424,3.9424,3.9424,3.9424,3.9424,3.9424,3.9424,3.9424,3.9424,3.9424,3.9424,3.9469,3.9574,4.0127,4.0368,4.6323,4.7176,4.7823,4.6239,4.5658,4.465,4.16,3.9616,0.0,0.0,0.0,3.0003,2.7876,3.0209,0.0,3.5639,0.0,0.0,0.0,0.0,4.8595,0.0,0.0,0.0,0.0,0.0,0.0,0.0,0.0,5.3298,5.3298,5.3433,5.3501,5.3501,5.3501,5.3501,5.3501,5.3501,5.3501,5.3501,5.3501,5.3501,5.3501,5.3501,5.3501,5.3501,5.3501,0.0,5.3501,5.3501,5.3416,5.3195,5.3195,5.247,5.1229,5.0397,4.9456,4.8594,4.8743,4.9376,4.9931,4.8907,4.8677,4.8579,4.7473,4.6756,4.6307,4.6172,4.5648,4.5005,4.4451,4.4227,4.4003,4.3464,4.3329,4.3329,4.3329,4.3329,4.3299,4.318,4.2731,4.2327,4.2207,4.1654,4.1205,4.1205,4.1115,4.0846,4.0307,3.9753,3.9424,3.9424,3.9424,3.9424,3.9424,3.9424,3.9424,3.9424,3.9424,3.9424,3.9424,3.9424,3.9424,3.9424,3.9424,3.9424,3.9424,3.9424,3.9694,4.0232,4.0352,4.0201,4.7621,4.7962,4.8245,4.6831,4.529,4.3244,3.9973,0.0,0.0,0.0,0.0,2.7875,2.6404,0.0,0.0,0.0,0.0,0.0,0.0,0.0,0.0,0.0,0.0,0.0,0.0,0.0,0.0,0.0,0.0,5.3501,5.3501,5.3501,5.3501,5.3501,5.3501,5.3501,5.3501,5.3501,5.3501,5.3501,5.3501,5.3501,5.3501,5.3501,5.3501,5.3501,5.3501,0.0,5.3501,5.3501,5.3501,5.3501,5.3501,5.287,5.1849,5.1394,5.0534,4.9694,5.0227,5.0763,5.1005,5.0009,4.9615,4.9311,4.7764,4.7085,4.683,4.683,4.6352,4.5753,4.5439,4.484,4.4242,4.3928,4.3584,4.3329,4.3329,4.3329,4.3329,4.3329,4.309,4.2865,4.2865,4.2327,4.1893,4.1893,4.1594,4.1145,4.0487,4.0127,3.9798,3.9454,3.9424,3.9424,3.9424,3.9424,3.9424,3.9424,3.9424,3.9424,3.9424,3.9424,3.9424,3.9424,3.9424,3.9589,3.9933,3.9933,4.0262,4.092,4.1265,4.1335,4.8489,4.8439,4.8395,4.7435,4.5009,4.1974,3.8784,3.53,0.0,0.0,2.6612,2.6048,2.5473,0.0,0.0,0.0,0.0,0.0,0.0,0.0,0.0,0.0,0.0,0.0,0.0,0.0,0.0,0.0,0.0,0.0,5.3501,5.3501,5.3501,5.3501,5.3501,5.3501,5.3501,5.3501,5.3501,5.3501,5.3501,5.3501,5.3501,5.3501,5.3501,5.3501,5.3501,0.0,0.0,5.3501,5.3501,5.3501,5.3501,5.2956,5.2224,5.1993,5.1394,5.0855,5.1614,5.1921,5.176,5.0703,5.0397,5.0009,4.7934,4.7309,4.7309,4.7309,4.6935,4.6501,4.6367,4.5424,4.4451,4.4167,4.3703,4.3329,4.3329,4.3329,4.3329,4.3329,4.3329,4.3329,4.3329,4.291,4.2566,4.2566,4.2132,4.1564,4.0905,4.0816,4.0516,3.9709,3.9514,3.9424,3.9424,3.9424,3.9424,3.9424,3.9424,3.9424,3.9424,3.9424,3.9484,3.9634,3.9634,3.9948,4.0606,4.0606,4.095,4.1609,4.2117,4.2354,4.8324,4.8439,4.8245,4.686,4.439,4.1336,3.774,0.0,0.0,2.6538,2.52,2.4692,2.4625,2.5913,2.8163,0.0,0.0,3.6757,0.0,0.0,0.0,0.0,0.0,0.0,0.0,0.0,0.0,0.0,0.0,0.0,5.3501,5.3501,5.3501,5.3501,5.3501,5.3501,5.3501,5.3501,5.3501,5.3501,5.3501,5.3501,5.3501,5.3501,5.3501,5.3501,5.3501,0.0,0.0,5.3501,5.3501,5.3501,5.3501,5.3433,5.3264,5.2241,5.1849,5.176,5.1849,5.1921,5.176,5.0703,5.0397,5.0009,4.7934,4.7309,4.7309,4.7309,4.7264,4.707,4.6486,4.5768,4.49,4.3703,4.3374,4.3329,4.3329,4.3329,4.3329,4.3329,4.3329,4.3329,4.3329,4.3284,4.324,4.324,4.3195,4.2925,4.2267,4.2177,4.1698,4.0442,3.9768,3.9424,3.9424,3.9424,3.9424,3.9424,3.9424,3.9424,3.9424,3.9424,3.9709,4.0307,4.0307,4.0636,4.1294,4.1294,4.1624,4.2267,4.2327,4.2154,4.7128,4.7533,4.7618,4.5677,4.2884,3.9704,3.6197,0.0,2.8665,2.5571,2.434,2.3951,2.4438,2.4997,2.652,3.0088,3.0793,3.3058,0.0,0.0,0.0,0.0,0.0,0.0,0.0,0.0,0.0,0.0,0.0,0.0,5.3501,5.3501,5.3501,5.3501,5.3501,5.3501,5.3501,5.3501,5.3501,5.3501,5.3501,5.3501,5.3501,5.3501,5.3501,5.3501,5.3501,0.0,0.0,5.3501,5.3501,5.3501,5.3501,5.3501,5.3433,5.3025,5.287,5.287,5.287,5.287,5.2557,5.0946,5.0397,5.0009,4.7934,4.7309,4.7309,4.7309,4.7309,4.7249,4.698,4.6097,4.5065,4.4137,4.3614,4.3329,4.3329,4.3329,4.3329,4.3329,4.3329,4.3329,4.3329,4.3329,4.3329,4.3329,4.3329,4.309,4.2447,4.2357,4.2013,4.1085,4.0397,3.9843,3.9454,3.9424,3.9424,3.9424,3.9424,3.9589,3.9993,4.0008,4.0322,4.098,4.0995,4.1309,4.1968,4.1968,4.2312,4.294,4.294,4.2823,4.5482,4.5963,4.6055,4.4659,4.1687,3.8351,0.0,3.1482,2.7614,2.5162,2.3803,2.3291,2.4036,2.4445,2.563,2.8464,2.9132,3.1359,3.719,0.0,0.0,0.0,0.0,0.0,0.0,0.0,0.0,0.0,0.0,0.0,0.0,5.3501,5.3501,5.3501,5.3501,5.3501,5.3501,5.3501,5.3501,5.3501,5.3501,5.3501,5.3501,5.3501,5.3501,5.3501,0.0,0.0,0.0,5.3501,5.3501,5.3501,5.3501,5.3501,5.3501,5.3501,5.3501,5.3501,5.3501,5.3264,5.2714,5.0946,5.0181,4.9631,4.7849,4.7309,4.7309,4.7309,4.7309,4.7249,4.707,4.6307,4.5379,4.4526,4.3958,4.3569,4.3374,4.3329,4.3329,4.3329,4.3329,4.3329,4.3329,4.3329,4.3329,4.3329,4.3329,4.3165,4.2701,4.2656,4.2402,4.1743,4.125,4.0636,3.9783,3.9529,3.9499,3.9694,3.9709,4.0008,4.0666,4.0696,4.0995,4.1654,4.1669,4.1998,4.2656,4.2656,4.288,4.3329,4.3329,4.29,4.349,4.3625,4.3454,4.3966,4.1001,3.7558,0.0,3.1704,2.7267,2.5472,2.3624,2.2547,2.3274,2.4322,2.5594,2.7061,2.9548,3.2859,3.7386,0.0,0.0,0.0,0.0,0.0,0.0,0.0,0.0,0.0,0.0,0.0,0.0,5.3501,5.3501,5.3501,5.3501,5.3501,5.3501,5.3501,5.3501,5.3501,5.3501,5.3501,5.3501,5.3501,5.3501,0.0,0.0,0.0,0.0,5.3501,5.3501,5.3501,5.3501,5.3501,5.3501,5.3501,5.3501,5.3501,5.3501,5.2784,5.176,5.0703,4.9694,4.8594,4.7609,4.7309,4.7309,4.7309,4.7309,4.716,4.6501,4.6322,4.5978,4.4631,4.4302,4.4122,4.3464,4.3329,4.3329,4.3329,4.3329,4.3329,4.3329,4.3329,4.3329,4.3329,4.3329,4.3329,4.3329,4.3329,4.3075,4.2417,4.2342,4.1818,4.0502,3.9798,3.9694,4.0352,4.0382,4.0681,4.1339,4.1369,4.1669,4.2419,4.2434,4.2671,4.3329,4.3329,4.3329,4.3329,4.3329,4.2126,3.9276,4.001,4.0253,3.8079,3.6044,3.4094,3.2342,2.9248,2.6375,2.4987,2.3425,2.253,2.3257,2.3938,2.5631,2.9589,3.1196,0.0,0.0,0.0,0.0,0.0,0.0,0.0,0.0,0.0,0.0,0.0,0.0,0.0,0.0,5.3501,5.3501,5.3501,5.3501,5.3501,5.3501,5.3501,5.3501,5.3501,5.3501,5.3501,5.3501,5.3501,0.0,0.0,0.0,0.0,0.0,5.3501,5.3501,5.3501,5.3501,5.3501,5.3501,5.3501,5.3501,5.3501,5.3501,5.28,5.176,5.0703,4.9694,4.8594,4.7609,4.7309,4.7309,4.7309,4.7309,4.7249,4.7055,4.6651,4.6217,4.5798,4.499,4.4257,4.4047,4.3643,4.3329,4.3329,4.3329,4.3329,4.3329,4.3329,4.3329,4.3329,4.3329,4.3329,4.3329,4.3329,4.3254,4.3045,4.2626,4.2013,4.1145,4.0876,4.0846,4.1055,4.107,4.1369,4.2028,4.2058,4.2357,4.3015,4.303,4.3135,4.3329,4.3329,4.3329,4.325,4.2467,4.1337,3.5364,3.6556,3.7013,3.5088,3.358,3.2208,3.0903,2.8216,2.5764,2.4837,2.3402,2.2457,2.305,2.3925,2.564,2.882,3.0794,0.0,0.0,0.0,0.0,0.0,0.0,0.0,0.0,0.0,0.0,0.0,0.0,0.0,0.0,5.3501,5.3501,5.3501,5.3501,5.3501,5.3501,5.3501,5.3501,5.3501,5.3501,5.3501,5.3501,5.3501,0.0,0.0,0.0,0.0,0.0,5.3501,5.3501,5.3501,5.3501,5.3501,5.3501,5.3501,5.3501,5.3433,5.3041,5.2241,5.1155,5.0165,4.9069,4.8141,4.7452,4.7309,4.7309,4.7309,4.7309,4.7309,4.7309,4.6995,4.6636,4.6381,4.5678,4.493,4.4421,4.3988,4.3629,4.3389,4.3329,4.3329,4.3329,4.3329,4.3329,4.3329,4.3329,4.3329,4.3329,4.3329,4.3329,4.3329,4.297,4.2566,4.2147,4.1669,4.1489,4.1728,4.1758,4.2043,4.2701,4.2731,4.2925,4.3329,4.3329,4.3329,4.3329,4.3329,4.3329,4.325,4.2359,4.1511,0.0,3.3,3.3627,3.4005,3.2686,3.1254,3.1038,2.8156,0.0,2.4939,2.3517,2.2504,2.292,2.4443,2.5778,2.6152,0.0,0.0,0.0,0.0,0.0,0.0,0.0,0.0,0.0,0.0,0.0,0.0,0.0,0.0,0.0,5.3501,5.3501,5.3501,5.3501,5.3501,5.3501,5.3501,5.3501,5.3501,5.3501,5.3501,5.3501,5.3501,0.0,0.0,0.0,0.0,0.0,5.3501,5.3501,5.3501,5.3501,5.3501,5.3501,5.3501,5.3501,5.3348,5.2241,5.1229,5.0242,4.9069,4.8057,4.7309,4.7309,4.7309,4.7309,4.7309,4.7309,4.7309,4.7309,4.7309,4.7145,4.6546,4.6352,4.5978,4.4661,4.4347,4.4122,4.3464,4.3329,4.3329,4.3329,4.3329,4.3329,4.3329,4.3329,4.3329,4.3329,4.3329,4.3329,4.3329,4.3329,4.3329,4.3329,4.2222,4.1773,4.2387,4.2432,4.2701,4.3314,4.3329,4.3329,4.3329,4.3329,4.3329,4.3329,4.3329,4.3329,4.3265,4.2586,4.2353,2.6138,0.0,2.8749,2.7596,2.6966,2.6661,0.0,2.5703,2.4585,2.447,0.0,2.3566,2.5482,2.5922,2.7396,0.0,0.0,0.0,0.0,0.0,0.0,0.0,0.0,0.0,0.0,0.0,0.0,0.0,0.0,0.0,0.0,5.3501,5.3501,5.3501,5.3501,5.3501,5.3501,5.3501,5.3501,5.3501,5.3501,5.3501,5.3501,5.3501,0.0,0.0,0.0,0.0,5.3501,5.3501,5.3501,5.3501,5.3501,5.3501,5.3501,5.3501,5.3501,5.3348,5.2241,5.1229,5.0103,4.8225,4.7452,4.7309,4.7309,4.7309,4.7309,4.7309,4.7309,4.7309,4.7309,4.7309,4.7264,4.7115,4.6696,4.6097,4.5244,4.4661,4.4122,4.3464,4.3329,4.3329,4.3329,4.3329,4.3329,4.3329,4.3329,4.3329,4.3329,4.3329,4.3329,4.3329,4.3329,4.3329,4.3329,4.3045,4.294,4.309,4.3105,4.3165,4.3329,4.3329,4.3329,4.3329,4.3329,4.3329,4.3329,4.3329,4.3329,4.3265,4.1796,4.1109,2.3511,2.5646,2.7513,2.6602,2.6486,2.657,2.6541,2.5383,0.0,0.0,0.0,2.3756,2.5607,2.6639,0.0,0.0,0.0,0.0,0.0,0.0,0.0,0.0,0.0,0.0,0.0,0.0,0.0,0.0,0.0,0.0,0.0,5.3501,5.3501,5.3501,5.3501,5.3501,5.3501,5.3501,5.3501,5.3501,5.3501,5.3501,5.3501,5.3501,5.3501,0.0,0.0,0.0,5.3501,5.3501,5.3501,5.3501,5.3501,5.3501,5.3501,5.3501,5.3501,5.3348,5.2241,5.1229,5.0242,4.9085,4.8692,4.8625,4.8157,4.7988,4.7919,4.7467,4.7309,4.7309,4.7309,4.7309,4.7309,4.7309,4.704,4.6591,4.5918,4.5244,4.4571,4.3913,4.3539,4.3329,4.3329,4.3329,4.3329,4.3329,4.3329,4.3329,4.3329,4.3329,4.3329,4.3329,4.3329,4.3329,4.3329,4.3329,4.3329,4.3329,4.3329,4.3329,4.3329,4.3329,4.3329,4.3329,4.3329,4.3329,4.3329,4.3329,4.3329,4.3265,4.2353,4.2233,2.311,2.5684,2.8109,2.7628,2.7878,2.8117,2.7702,0.0,0.0,0.0,0.0,0.0,0.0,0.0,0.0,0.0,0.0,0.0,0.0,0.0,0.0,0.0,0.0,0.0,0.0,0.0,0.0,0.0,0.0,0.0,0.0,5.3382,5.3382,5.3501,5.3501,5.3501,5.3501,5.3501,5.3501,5.3501,5.3501,5.3501,5.3501,5.3501,5.3501,0.0,0.0,0.0,5.3501,5.3501,5.3501,5.3501,5.3501,5.3501,5.3501,5.3501,5.3501,5.3348,5.2241,5.1229,5.0397,5.0397,5.0397,5.0165,4.915,4.8825,4.8594,4.7609,4.7309,4.7309,4.7309,4.7309,4.7309,4.7309,4.7309,4.713,4.6471,4.5783,4.5095,4.4436,4.3778,4.3329,4.3329,4.3329,4.3329,4.3329,4.3329,4.3329,4.3329,4.3329,4.3329,4.3329,4.3329,4.3329,4.3329,4.3329,4.3329,4.3329,4.3329,4.3329,4.3329,4.3329,4.3329,4.3329,4.3329,4.3329,4.3329,4.3329,4.3329,4.328,4.3401,4.4101,2.5195,2.7423,2.8487,2.5991,2.6435,2.7332,2.6896,0.0,0.0,0.0,0.0,0.0,0.0,0.0,0.0,0.0,0.0,0.0,0.0,0.0,0.0,0.0,0.0,0.0,0.0,0.0,0.0,0.0,0.0,0.0,0.0,5.2844,5.2807,5.3484,5.3501,5.3501,5.3501,5.3501,5.3501,5.3501,5.3501,5.3501,5.3501,5.3501,5.3501,0.0,0.0,5.3501,5.3501,5.3501,5.3501,5.3501,5.3501,5.3501,5.3501,5.3501,5.3501,5.3348,5.2241,5.1229,5.0397,5.0397,5.0397,5.0165,4.915,4.8825,4.8594,4.7609,4.7309,4.7309,4.7309,4.7309,4.7309,4.7309,4.7309,4.713,4.6471,4.5783,4.5095,4.4436,4.3778,4.3329,4.3329,4.3329,4.3329,4.3329,4.3329,4.3329,4.3329,4.3329,4.3329,4.3329,4.3329,4.3329,4.3329,4.3329,4.3329,4.3329,4.3329,4.3329,4.3329,4.3329,4.3329,4.3329,4.3329,4.3329,4.3329,4.3329,4.3329,4.3344,4.3284,4.405,2.4552,2.6548,2.8026,2.7295,2.8974,3.0629,3.0002,0.0,0.0,0.0,0.0,0.0,0.0,0.0,0.0,0.0,0.0,0.0,0.0,0.0,0.0,0.0,0.0,0.0,0.0,0.0,0.0,0.0,0.0,0.0,0.0,0.0,5.2063,5.2841,5.2858,5.3061,5.3501,5.3501,5.3501,5.3501,5.3501,5.3501,5.3501,5.3501,5.3501,5.3501,0.0,5.3501,5.3501,5.3501,5.3501,5.3501,5.3501,5.3501,5.3501,5.3501,5.3501,5.3433,5.2956,5.2487,5.2115,5.2115,5.2115,5.1793,5.0149,4.9694,4.9296,4.7779,4.7309,4.7309,4.7309,4.7309,4.7309,4.7309,4.7309,4.7219,4.692,4.6037,4.5319,4.5379,4.4287,4.3449,4.3808,4.3569,4.3329,4.3329,4.3329,4.3329,4.3329,4.3329,4.3329,4.3329,4.3329,4.3329,4.3329,4.3329,4.3329,4.3329,4.3329,4.3329,4.3329,4.3329,4.3329,4.3329,4.3329,4.3329,4.3329,4.3329,4.3329,4.3344,4.4062,4.4721,2.4581,2.6175,2.7901,2.924,0.0,3.2999,3.3146,0.0,0.0,0.0,0.0,0.0,0.0,0.0,0.0,0.0,0.0,0.0,0.0,0.0,0.0,0.0,0.0,0.0,0.0,0.0,0.0,0.0,0.0,0.0,0.0,0.0,5.1461,5.2029,5.2046,5.235,5.2959,5.2976,5.3145,5.3501,5.3501,5.3501,5.3501,5.3501,5.3501,5.3501,5.3501,5.3501,5.3501,5.3501,5.3501,5.3501,5.3501,5.3501,5.3501,5.3501,5.3501,5.3501,5.3501,5.3501,5.3433,5.3195,5.311,5.2731,5.0627,5.0009,4.9615,4.7849,4.7309,4.7309,4.7309,4.7309,4.7309,4.7309,4.7309,4.7309,4.7309,4.6381,4.5648,4.6022,4.4721,4.3673,4.4018,4.3658,4.3329,4.3329,4.3329,4.3329,4.3329,4.3329,4.3329,4.3329,4.3329,4.3329,4.3329,4.3329,4.3329,4.3329,4.3329,4.3329,4.3329,4.3329,4.3329,4.3329,4.3329,4.3329,4.3329,4.3329,4.3329,4.3374,4.5005,4.5768,2.7457,2.8279,2.888,3.0766,3.0834,0.0,3.4147,3.3642,0.0,3.5459,0.0,0.0,0.0,0.0,0.0,0.0,0.0,0.0,0.0,0.0,0.0,0.0,0.0,0.0,0.0,0.0,0.0,0.0,0.0,0.0,0.0,0.0,0.0,5.1268,5.1302,5.1319,5.1369,5.1386,5.2097,5.3501,5.3501,5.3501,5.3501,5.3501,5.3501,5.3501,5.3501,5.3501,5.3501,5.3501,5.3501,5.3501,5.3501,5.3501,5.3501,5.3501,5.3501,5.3501,5.3501,5.3501,5.3348,5.2312,5.1993,5.1614,4.952,4.8907,4.8677,4.7609,4.7309,4.7309,4.7309,4.7309,4.7309,4.7309,4.7309,4.7309,4.7309,4.6756,4.6082,4.5484,4.4766,4.4062,4.3509,4.3359,4.3329,4.3329,4.3329,4.3329,4.3329,4.3329,4.3329,4.3329,4.3329,4.3329,4.3329,4.3329,4.3329,4.3329,4.3329,4.3329,4.3329,4.3329,4.3329,4.3329,4.3329,4.3329,4.3329,4.3329,4.3329,4.3389,4.5963,4.716,2.6147,2.7283,2.8498,3.0222,3.1549,0.0,0.0,3.6505,3.7698,0.0,0.0,0.0,0.0,0.0,0.0,0.0,0.0,0.0,0.0,0.0,0.0,0.0,0.0,0.0,0.0,0.0,0.0,0.0,0.0,0.0,0.0,0.0,0.0,5.049,5.0524,5.0744,5.1217,5.1217,5.1505,5.208,5.208,5.2317,5.2756,5.2756,5.3027,5.3501,5.3501,5.3501,5.3501,5.3501,5.3501,5.3501,5.3501,5.3501,5.3501,5.3501,5.3501,5.3416,5.2714,5.2956,5.3195,5.1557,5.1394,5.1525,4.944,4.8825,4.8594,4.7609,4.7309,4.7309,4.7309,4.7309,4.7309,4.7309,4.7309,4.7309,4.7309,4.6785,4.6367,4.6516,4.5663,4.493,4.4975,4.4541,4.3988,4.3419,4.3329,4.3329,4.3329,4.3329,4.3329,4.3329,4.3329,4.3329,4.3329,4.3329,4.3329,4.3329,4.3329,4.3329,4.3329,4.3329,4.3329,4.3329,4.496,4.5798,4.5798,4.5798,4.5798,4.5828,4.683,4.7309,2.5695,2.6943,2.8576,3.0173,0.0,0.0,3.6872,3.8707,4.0487,0.0,0.0,0.0,0.0,0.0,0.0,0.0,0.0,0.0,0.0,0.0,0.0,0.0,0.0,0.0,0.0,0.0,0.0,0.0,0.0,0.0,0.0,0.0,0.0,0.0,4.9746,4.9999,5.0507,5.0524,5.0524,5.0524,5.0524,5.115,5.23,5.23,5.2739,5.3501,5.3501,5.3501,5.3501,5.3501,5.3501,5.3501,5.3501,5.3501,5.3501,5.3501,5.3264,5.287,5.2153,5.217,5.2258,5.0871,5.0627,5.0687,4.9215,4.8594,4.8141,4.7452,4.7309,4.7309,4.7309,4.7309,4.7309,4.7309,4.7309,4.7309,4.7309,4.695,4.6711,4.695,4.6411,4.5858,4.5633,4.52,4.4526,4.3494,4.3329,4.3329,4.3329,4.3329,4.3329,4.3329,4.3329,4.3673,4.4511,4.4586,4.4586,4.4586,4.4586,4.4212,4.3374,4.3329,4.3733,4.4571,4.6381,4.7309,4.7309,4.7309,4.7309,4.7309,4.7309,4.7309,2.6796,2.7787,2.9379,0.0,0.0,0.0,3.9001,3.9918,4.0836,0.0,0.0,0.0,0.0,0.0,0.0,0.0,0.0,0.0,0.0,0.0,0.0,0.0,0.0,0.0,0.0,0.0,0.0,0.0,0.0,0.0,0.0,0.0,0.0,0.0,4.9001,4.9001,4.9001,4.9001,4.9001,4.9001,4.9001,5.0152,5.2283,5.2283,5.2723,5.3484,5.3484,5.3484,5.3501,5.3501,5.3501,5.3501,5.3501,5.3501,5.3501,5.3501,5.28,5.1921,5.1921,5.1229,5.0413,5.0413,4.9694,4.8825,4.8825,4.8057,4.7309,4.7309,4.7309,4.7309,4.7309,4.7309,4.7309,4.7309,4.7309,4.7309,4.7309,4.7309,4.7115,4.6456,4.686,4.6756,4.502,4.505,4.487,4.3524,4.3329,4.3329,4.3329,4.3329,4.3344,4.3374,4.3374,4.4436,4.707,4.7309,4.7309,4.7309,4.7279,4.6097,4.3479,4.3374,4.4616,4.7249,4.7309,4.7309,4.7309,4.7309,4.7309,4.7309,4.7309,4.7309,2.5764,2.7177,0.0,0.0,0.0,0.0,0.0,4.2029,0.0,0.0,0.0,0.0,0.0,0.0,0.0,0.0,0.0,0.0,0.0,0.0,0.0,0.0,0.0,0.0,0.0,0.0,0.0,0.0,0.0,0.0,0.0,0.0,0.0,0.0,4.9001,4.9001,4.9001,4.9001,4.9001,4.9001,4.9001,4.9627,5.0744,5.0744,5.1166,5.1894,5.1894,5.2198,5.2706,5.3264,5.3501,5.3501,5.3501,5.3501,5.3433,5.2627,5.2627,5.2714,5.0458,5.0458,5.108,4.8922,4.846,4.8677,4.7988,4.7538,4.7309,4.7309,4.7309,4.7309,4.7309,4.7309,4.7309,4.7309,4.7309,4.7309,4.7309,4.7309,4.7249,4.7055,4.7174,4.7145,4.6621,4.6636,4.5933,4.3673,4.3329,4.3329,4.3329,4.3329,4.4047,4.5918,4.6127,4.6456,4.7234,4.7309,4.7309,4.7309,4.5544,4.5005,4.6082,4.6127,4.6501,4.7294,4.7309,4.7309,4.7309,4.7309,4.7309,4.7309,4.7309,4.7309,2.7376,0.0,0.0,0.0,0.0,0.0,0.0,0.0,0.0,0.0,0.0,0.0,0.0,0.0,0.0,0.0,0.0,0.0,0.0,0.0,0.0,0.0,0.0,0.0,0.0,0.0,0.0,0.0,0.0,0.0,0.0,0.0,0.0,0.0,4.9001,4.9001,4.9001,4.9001,4.9001,4.9001,4.9001,4.9238,4.9661,4.9965,5.0507,5.1217,5.1217,5.1471,5.1911,5.2401,5.2773,5.3027,5.3027,5.323,5.3433,5.2784,5.24,5.2026,5.0534,5.0071,4.9915,4.8856,4.8377,4.8141,4.7988,4.7609,4.7309,4.7309,4.7309,4.7309,4.7309,4.7309,4.7309,4.7309,4.7309,4.7309,4.7309,4.7309,4.7309,4.7309,4.6456,4.6067,4.713,4.6426,4.5185,4.3569,4.3329,4.3329,4.3329,4.4257,4.5529,4.713,4.7309,4.7309,4.7309,4.7309,4.7309,4.7309,4.5798,4.5633,4.7234,4.7309,4.7309,4.7309,4.7309,4.7309,4.7309,4.7309,4.7309,4.7309,4.7309,4.7309,3.0246,0.0,0.0,0.0,0.0,0.0,0.0,0.0,0.0,0.0,0.0,0.0,0.0,0.0,0.0,0.0,0.0,0.0,0.0,0.0,0.0,0.0,0.0,0.0,0.0,0.0,0.0,0.0,0.0,0.0,0.0,0.0,0.0,4.9001,4.9001,4.9001,4.9001,4.9001,4.9001,0.0,4.9001,4.9001,4.9018,4.9678,5.0371,5.1014,5.1082,5.1116,5.1116,5.1183,5.1606,5.2198,5.2198,5.2689,5.3399,5.3315,5.212,5.0795,5.1394,4.9852,4.7849,4.9551,4.8856,4.7452,4.8377,4.7988,4.7309,4.7309,4.7309,4.7309,4.7309,4.7309,4.7309,4.7309,4.7309,4.7309,4.7309,4.7309,4.7234,4.6995,4.499,4.4107,4.6531,4.493,4.3329,4.3329,4.3329,4.3329,4.3329,4.5663,4.7309,4.7309,4.7309,4.7309,4.7309,4.7309,4.7309,4.7309,4.7309,4.7309,4.7309,4.7309,4.7309,4.7309,4.7309,4.7309,4.7309,4.7309,4.7309,4.7309,4.7309,4.7019,0.0,3.0848,0.0,0.0,0.0,0.0,0.0,0.0,0.0,0.0,0.0,0.0,0.0,0.0,0.0,0.0,0.0,0.0,0.0,0.0,0.0,0.0,0.0,0.0,0.0,0.0,0.0,0.0,0.0,0.0,0.0,0.0,0.0,4.9001,4.9001,4.9001,4.9001,4.9001,4.9001,0.0,4.9001,4.9001,4.9018,4.9171,4.9323,4.9509,5.0084,5.0338,5.0371,5.098,5.1302,5.1454,5.1454,5.1911,5.2487,5.1658,5.1988,5.2487,5.0227,4.9615,4.9551,4.8309,4.7694,4.7294,4.7538,4.7452,4.7309,4.7309,4.7309,4.7309,4.7309,4.7309,4.7309,4.7309,4.7309,4.7309,4.7309,4.7309,4.6696,4.4601,4.3718,4.3509,4.4092,4.3718,4.3329,4.3329,4.3329,4.3329,4.3329,4.5663,4.7309,4.7309,4.7309,4.7309,4.7309,4.7309,4.7309,4.7309,4.7309,4.7309,4.7309,4.7309,4.7309,4.7309,4.7309,4.7309,4.7309,4.7309,4.7309,4.7309,4.7309,4.5115,0.0,0.0,0.0,0.0,0.0,0.0,0.0,0.0,0.0,0.0,0.0,0.0,0.0,0.0,0.0,0.0,0.0,0.0,0.0,0.0,0.0,0.0,0.0,0.0,0.0,0.0,0.0,0.0,0.0,0.0,0.0,4.8277,4.8455,4.846,4.8477,4.8646,4.9001,4.9001,4.9001,4.9001,4.9001,4.9001,4.9001,4.9001,4.9001,4.9018,4.9407,4.956,4.9593,4.9999,5.0355,5.0676,5.0676,5.1133,5.171,5.1196,5.1311,5.1508,5.035,4.9581,4.9032,4.8441,4.7814,4.7309,4.7309,4.7309,4.7309,4.7309,4.7309,4.7309,4.7309,4.7309,4.698,4.5708,4.6381,4.7309,4.7309,4.6307,4.499,4.3599,4.4362,4.4825,4.3554,4.3329,4.3763,4.5035,4.5244,4.5244,4.5244,4.6456,4.7309,4.7309,4.7309,4.7309,4.7309,4.7309,4.7309,4.7309,4.7309,4.7309,4.7309,4.7309,4.7309,4.7309,4.7309,4.7309,4.7309,4.7309,4.7309,4.7207,4.4826,4.2266,0.0,0.0,0.0,0.0,0.0,0.0,0.0,0.0,0.0,0.0,0.0,0.0,0.0,0.0,0.0,0.0,0.0,0.0,0.0,0.0,0.0,0.0,0.0,0.0,0.0,0.0,0.0,0.0,0.0,0.0,4.6658,4.6718,4.7073,4.7699,4.7733,4.8003,4.8612,4.8629,4.868,4.8815,4.8951,4.9001,4.9001,4.9001,4.9001,4.9001,4.9001,4.9001,4.9001,4.9001,4.9357,4.9898,4.9898,5.0355,5.1014,5.1014,5.0592,5.0055,5.0709,4.9687,4.8169,4.8882,4.8304,4.7428,4.7336,4.7309,4.7309,4.7309,4.7309,4.7309,4.7309,4.6965,4.6067,4.3868,4.502,4.6621,4.6621,4.4885,4.3464,4.3928,4.5798,4.6456,4.3793,4.3329,4.4242,4.6905,4.7309,4.7309,4.7309,4.7309,4.7309,4.7309,4.7309,4.7309,4.7309,4.7309,4.7309,4.7309,4.7309,4.7309,4.7309,4.7309,4.7309,4.7309,4.7309,4.7309,4.7309,4.7309,4.6829,4.5869,4.1703,3.9697,0.0,0.0,0.0,0.0,0.0,0.0,0.0,0.0,0.0,0.0,0.0,0.0,0.0,0.0,0.0,0.0,0.0,0.0,0.0,0.0,0.0,0.0,0.0,0.0,0.0,0.0,0.0,0.0,0.0,0.0,4.5896,4.6447,4.6836,4.6938,4.6938,4.6989,4.709,4.709,4.7411,4.8071,4.8697,4.9001,4.9001,4.9001,4.9001,4.9001,4.9001,4.9001,4.9001,4.9001,4.9069,4.9154,4.9154,4.9593,5.0236,5.0236,5.0578,5.0924,5.0139,4.969,4.931,4.8396,4.7997,4.7753,4.7382,4.7309,4.7309,4.7309,4.7309,4.7309,4.7309,4.5603,4.3778,4.3419,4.3599,4.3868,4.3868,4.3584,4.4018,4.6322,4.707,4.6456,4.3793,4.3329,4.4242,4.6905,4.7309,4.7309,4.7309,4.7309,4.7309,4.7309,4.7309,4.7309,4.7309,4.7309,4.7309,4.7309,4.7309,4.7309,4.7309,4.7309,4.7309,4.7309,4.7309,4.7309,4.7309,4.7309,4.5024,4.0743,3.9981,3.9697,2.7296,3.1952,3.6633,0.0,0.0,0.0,0.0,0.0,0.0,0.0,0.0,0.0,0.0,0.0,0.0,0.0,0.0,0.0,0.0,0.0,0.0,0.0,0.0,0.0,0.0,0.0,0.0,0.0,0.0,4.5346,4.5134,4.5382,4.5754,4.6177,4.6177,4.638,4.6786,4.6786,4.7175,4.7919,4.824,4.8612,4.9001,4.9001,4.9001,4.9001,4.9001,4.9001,4.9001,4.9001,4.9001,4.9001,4.9001,4.9204,4.9475,4.9475,4.9695,4.9902,4.9469,4.9177,4.8924,4.8613,4.8312,4.7917,4.7416,4.7309,4.7309,4.7309,4.7309,4.7309,4.7309,4.6441,4.5559,4.5559,4.5559,4.5559,4.5559,4.5559,4.5903,4.707,4.6097,4.4706,4.3539,4.3329,4.3733,4.49,4.6352,4.7309,4.7309,4.7309,4.7309,4.7309,4.7309,4.7309,4.7309,4.7309,4.7309,4.7309,4.7309,4.7309,4.7309,4.4549,4.3026,4.3026,4.5869,4.7309,4.7309,4.4442,4.1887,3.9697,3.9697,3.9697,2.8044,3.1462,3.4266,3.8762,0.0,0.0,0.0,0.0,0.0,0.0,0.0,0.0,0.0,0.0,0.0,0.0,0.0,0.0,0.0,0.0,0.0,0.0,0.0,0.0,0.0,0.0,0.0,0.0,0.0,4.4587,4.4587,4.4587,4.484,4.5399,4.5415,4.5686,4.6227,4.643,4.6802,4.7361,4.7547,4.802,4.8731,4.8731,4.8832,4.9001,4.9001,4.9001,4.9001,4.9001,4.9001,4.9001,4.9001,4.9001,4.9001,4.9001,4.9001,4.9001,4.9001,4.8773,4.8595,4.8892,4.868,4.8063,4.6665,4.6292,4.6441,4.7115,4.7309,4.7309,4.7309,4.7309,4.7309,4.7309,4.7309,4.7309,4.7309,4.7309,4.71,4.6426,4.4691,4.3329,4.3329,4.3329,4.3569,4.4242,4.6037,4.7309,4.7309,4.7309,4.7309,4.7309,4.7309,4.7309,4.7309,4.6062,4.5883,4.7207,4.7309,4.7309,4.7309,4.3693,4.1604,4.1604,4.4069,4.5403,4.5403,4.1505,3.9697,3.9697,3.9697,3.9697,2.525,2.7471,0.0,0.0,0.0,0.0,0.0,0.0,0.0,0.0,0.0,0.0,0.0,0.0,0.0,0.0,0.0,0.0,0.0,0.0,0.0,0.0,0.0,0.0,0.0,0.0,0.0,0.0,0.0,4.4587,4.4587,4.4587,4.4604,4.4637,4.4637,4.4654,4.4688,4.5399,4.5788,4.5821,4.6515,4.7242,4.797,4.797,4.8359,4.9001,4.9001,4.9001,4.9001,4.9001,4.9001,4.9001,4.9001,4.9001,4.9001,4.9001,4.9001,4.9001,4.9001,4.8973,4.899,4.9018,4.899,4.8277,4.4588,4.3539,4.4062,4.6591,4.7309,4.7309,4.7309,4.7309,4.7309,4.7309,4.7309,4.7309,4.7309,4.7309,4.6561,4.4032,4.3434,4.3329,4.3329,4.3329,4.4182,4.6711,4.7219,4.7309,4.7309,4.7309,4.7309,4.7309,4.7309,4.7309,4.7309,4.2834,4.2168,4.7019,4.7309,4.7309,4.7309,4.7019,4.6916,4.6916,4.2461,4.007,4.007,3.9788,3.9697,3.9697,3.9697,3.9697,2.3456,2.564,0.0,0.0,0.0,0.0,0.0,0.0,0.0,0.0,0.0,0.0,0.0,0.0,0.0,0.0,0.0,0.0,0.0,0.0,0.0,0.0,0.0,0.0,0.0,0.0,0.0,0.0,0.0,0.0,4.4587,4.4587,4.4587,4.4587,4.4587,4.4587,4.4587,4.484,4.5229,4.5703,4.5974,4.6481,4.7208,4.7699,4.8054,4.8342,4.8798,4.9001,4.9001,4.9001,4.9001,4.9001,4.9001,4.9001,4.9001,4.9001,4.9001,4.9001,4.9001,4.9001,4.9001,4.9001,4.9001,4.8289,4.4464,4.3329,4.3539,4.4481,4.4751,4.5155,4.686,4.7309,4.6875,4.5155,4.4751,4.4751,4.4751,4.4751,4.4481,4.3524,4.3329,4.3329,4.3329,4.4751,4.6202,4.716,4.7309,4.7309,4.7309,4.7309,4.7309,4.7309,4.7309,4.5973,4.2738,4.0743,4.0453,4.2266,4.5494,4.7309,4.7309,4.7309,4.7309,4.7309,4.5494,4.293,3.9697,3.9697,3.9697,3.9697,3.9697,3.9697,2.1308,0.0,0.0,0.0,0.0,0.0,0.0,0.0,0.0,0.0,0.0,0.0,0.0,0.0,0.0,0.0,0.0,0.0,0.0,0.0,0.0,0.0,0.0,0.0,0.0,0.0,0.0,0.0,0.0,0.0,4.4587,4.4587,4.4587,4.4587,4.4587,4.4587,4.4587,4.4587,4.484,4.5331,4.5331,4.572,4.6447,4.6955,4.731,4.7564,4.8054,4.8545,4.9001,4.9001,4.9001,4.9001,4.9001,4.9001,4.9001,4.9001,4.9001,4.9001,4.9001,4.9001,4.9001,4.9001,4.9001,4.8289,4.4464,4.3329,4.3329,4.3329,4.3329,4.3748,4.5514,4.5978,4.5529,4.3748,4.3329,4.3329,4.3329,4.3329,4.3329,4.3329,4.3329,4.3629,4.4511,4.6142,4.7309,4.7309,4.7309,4.7309,4.7309,4.7309,4.7309,4.7309,4.5779,4.4069,4.2363,4.0642,3.9697,3.9697,4.4456,4.7309,4.7309,4.7309,4.7309,4.7309,4.7309,4.5598,4.2266,4.0554,3.9697,3.9697,3.9697,3.9697,0.0,0.0,0.0,0.0,0.0,0.0,0.0,0.0,0.0,0.0,0.0,0.0,0.0,0.0,0.0,0.0,0.0,0.0,0.0,0.0,0.0,0.0,0.0,0.0,0.0,0.0,0.0,0.0,0.0,4.4587,4.4587,4.4587,4.4587,4.4587,4.4587,4.4626,4.4626,4.4626,4.4626,4.4626,4.4626,4.4959,4.5669,4.5703,4.6092,4.6811,4.6827,4.7657,4.8995,4.8951,4.8968,4.8968,4.9001,4.9001,4.9001,4.9001,4.9001,4.9001,4.9001,4.9001,4.9001,4.9001,4.8923,4.8144,4.4388,4.3329,4.3329,4.3329,4.3329,4.3329,4.3329,4.3329,4.3329,4.3329,4.3329,4.3329,4.3329,4.3329,4.3329,4.3329,4.3329,4.4182,4.6845,4.7309,4.7309,4.7309,4.7309,4.7309,4.7309,4.7309,4.7309,4.7309,4.2738,4.169,4.6638,4.2558,3.9697,3.9697,4.4456,4.7309,4.7309,4.7309,4.7309,4.7309,4.7309,4.7309,4.7309,4.2363,3.989,3.9697,3.9697,3.9697,1.8463,0.0,0.0,0.0,0.0,0.0,0.0,0.0,0.0,0.0,0.0,0.0,0.0,0.0,0.0,0.0,0.0,0.0,0.0,0.0,0.0,0.0,0.0,0.0,0.0,0.0,0.0,0.0,4.4587,4.4587,4.4587,4.4587,4.4587,4.4587,4.4587,4.4814,4.5232,4.4814,4.4814,4.5232,4.4814,4.4688,4.4908,4.5466,4.6039,4.6677,4.7227,4.7969,4.8747,4.8353,4.8223,4.8274,4.8798,4.9001,4.9001,4.9001,4.9001,4.9001,4.9001,4.9001,4.9001,4.9001,4.7155,4.4675,4.3615,4.3329,4.3329,4.3329,4.3329,4.3329,4.3329,4.3329,4.3329,4.3329,4.3329,4.3329,4.3329,4.3329,4.3329,4.3329,4.3329,4.4182,4.6845,4.7309,4.7309,4.7309,4.7309,4.7309,4.7309,4.7309,4.7309,4.7309,4.2738,4.0262,4.169,4.0554,3.9697,3.9697,4.4456,4.7309,4.7309,4.7309,4.7309,4.7309,4.7309,4.7309,4.7309,4.5869,4.3313,3.9697,3.9697,3.9697,1.8812,2.017,0.0,0.0,0.0,0.0,0.0,0.0,0.0,0.0,0.0,0.0,0.0,0.0,0.0,0.0,0.0,0.0,0.0,0.0,0.0,0.0,0.0,0.0,0.0,0.0,0.0,4.3677,4.3927,4.4231,4.4553,4.4587,4.4587,4.4587,4.4587,4.4906,4.5494,4.5142,4.5267,4.5865,4.5511,4.5232,4.5015,4.5405,4.5795,4.6187,4.6584,4.716,4.7749,4.7767,4.794,4.8343,4.877,4.8923,4.9001,4.9001,4.9001,4.9001,4.9001,4.9001,4.9001,4.9001,4.6437,4.3329,4.3329,4.3329,4.3615,4.5253,4.454,4.3329,4.3329,4.3329,4.3329,4.3329,4.3329,4.3329,4.3329,4.3329,4.3658,4.4781,4.499,4.5484,4.704,4.7309,4.7309,4.7309,4.7309,4.7309,4.7309,4.7309,4.7309,4.7309,4.4642,4.2834,4.2834,4.2834,4.2834,4.2834,4.5689,4.7309,4.7309,4.7309,4.7309,4.7309,4.7309,4.6255,4.4163,4.4163,4.2641,3.9697,3.9697,3.9697,1.9932,2.0939,0.0,0.0,0.0,0.0,2.7291,2.7842,0.0,0.0,0.0,0.0,0.0,0.0,0.0,0.0,0.0,0.0,0.0,0.0,0.0,0.0,0.0,0.0,0.0,4.2909,4.3011,4.2339,4.2912,4.3644,4.4376,4.4372,4.4427,4.4521,4.4483,4.4741,4.5438,4.5474,4.5743,4.6259,4.6283,4.6014,4.5511,4.5511,4.5597,4.5681,4.5681,4.6063,4.6671,4.7305,4.7959,4.8574,4.8678,4.8723,4.8765,4.8849,4.8883,4.89,4.8968,4.9001,4.9001,4.9001,4.673,4.3897,4.3897,4.3897,4.454,4.7506,4.5889,4.3329,4.3329,4.3329,4.3329,4.3329,4.3329,4.3329,4.3329,4.3329,4.4032,4.6396,4.71,4.7309,4.7309,4.7309,4.7309,4.7309,4.7309,4.7309,4.7309,4.7309,4.7309,4.7309,4.7309,4.7309,4.7309,4.7309,4.7309,4.7309,4.7309,4.7174,4.6875,4.686,4.701,4.7294,4.6726,4.4256,3.9697,3.9697,3.9697,3.9697,3.9697,3.9697,2.2501,2.3456,2.4466,0.0,0.0,0.0,0.0,2.4595,0.0,0.0,0.0,0.0,0.0,0.0,0.0,0.0,0.0,0.0,0.0,0.0,0.0,0.0,0.0,0.0,0.0,4.2846,4.3011,4.2339,4.2422,4.2822,4.3459,4.3028,4.3151,4.4078,4.3675,4.3999,4.5076,4.522,4.5305,4.5446,4.5618,4.5597,4.5511,4.5511,4.6063,4.7017,4.7017,4.7385,4.7897,4.7547,4.7257,4.7069,4.7692,4.7626,4.7293,4.7919,4.8122,4.8206,4.8798,4.9001,4.9001,4.9001,4.8513,4.7868,4.7868,4.7868,4.7373,4.5032,4.3897,4.3329,4.3329,4.3329,4.3329,4.3329,4.3329,4.3329,4.3329,4.3329,4.3479,4.4003,4.5843,4.7309,4.7309,4.7309,4.7309,4.7309,4.7309,4.7309,4.7309,4.7309,4.7309,4.7309,4.7309,4.7309,4.7309,4.7309,4.7309,4.7309,4.7309,4.6337,4.4197,4.4107,4.5125,4.7264,4.3313,4.0642,3.9697,3.9697,3.9697,3.9697,3.9697,3.9697,2.4079,2.4561,2.5311,2.4905,0.0,0.0,0.0,0.0,0.0,0.0,0.0,0.0,0.0,0.0,0.0,0.0,0.0,0.0,0.0,0.0,0.0,0.0,0.0,0.0,0.0,4.0717,4.1322,4.1747,4.1745,4.2193,4.3126,4.291,4.3126,4.3976,4.3763,4.4039,4.498,4.4769,4.4947,4.5557,4.5784,4.5882,4.5835,4.6271,4.6774,4.7385,4.7385,4.7756,4.8249,4.7656,4.7033,4.6545,4.6986,4.6992,4.6836,4.7225,4.7513,4.775,4.8122,4.8578,4.9001,4.9001,4.7721,4.6173,4.6173,4.7506,4.8576,4.6662,4.475,4.3329,4.3329,4.3329,4.3329,4.3329,4.3329,4.3329,4.3329,4.3329,4.3329,4.3329,4.4421,4.5738,4.707,4.7309,4.686,4.5529,4.6456,4.7309,4.7309,4.6142,4.5319,4.5319,4.5319,4.5319,4.5319,4.5319,4.5319,4.5319,4.5319,4.4721,4.3389,4.3329,4.2821,4.1834,3.9412,3.8027,3.8027,3.8027,3.8605,3.9697,3.9697,3.9697,0.0,0.0,0.0,0.0,0.0,2.5456,0.0,0.0,0.0,2.727,0.0,0.0,0.0,0.0,0.0,0.0,0.0,0.0,0.0,0.0,0.0,0.0,0.0,0.0,0.0,3.7872,3.8802,4.0443,4.029,4.0897,4.2628,4.2753,4.3062,4.3713,4.3625,4.3845,4.4389,4.4031,4.4335,4.5158,4.5516,4.5681,4.5656,4.6413,4.6877,4.7003,4.7108,4.7469,4.7879,4.7281,4.6728,4.6262,4.636,4.6412,4.638,4.6532,4.6853,4.7242,4.7411,4.8156,4.9001,4.9001,4.6437,4.3329,4.3329,4.5457,4.7868,4.7868,4.5674,4.3329,4.3329,4.3329,4.3329,4.3329,4.3329,4.3329,4.3329,4.3329,4.3329,4.3329,4.3329,4.4018,4.6172,4.6531,4.5813,4.3658,4.5155,4.6531,4.6531,4.4661,4.3329,4.3329,4.3329,4.3329,4.3329,4.3329,4.3329,4.3329,4.3329,4.3329,4.3329,4.2467,4.0204,3.6452,3.6358,3.6358,3.6358,3.6358,3.7287,3.9044,3.9044,3.9044,0.0,0.0,0.0,0.0,2.8594,0.0,0.0,0.0,2.5713,2.4043,0.0,0.0,0.0,0.0,0.0,0.0,0.0,0.0,0.0,0.0,0.0,0.0,0.0,0.0,0.0,0.0,3.591,3.8125,3.7026,3.7659,4.0817,4.1073,4.1665,4.2789,4.2329,4.2119,4.2143,4.2774,4.2926,4.2521,4.3288,4.3655,4.3655,4.4223,4.4884,4.5569,4.6108,4.646,4.6571,4.5965,4.5699,4.5597,4.5598,4.5314,4.4908,4.5585,4.5974,4.6312,4.7192,4.8156,4.9001,4.9001,4.6437,4.3329,4.3329,4.3615,4.3974,4.3974,4.3615,4.3329,4.3329,4.3329,4.3329,4.3329,4.3329,4.3329,4.3329,4.3329,4.3329,4.3329,4.3329,4.3434,4.3733,4.3778,4.3688,4.3389,4.3584,4.3778,4.3778,4.3524,4.3329,4.3329,4.3329,4.3329,4.3329,4.3329,4.3329,4.3329,4.3329,4.3329,4.3329,3.9332,3.6977,3.6452,3.6358,3.6358,3.6358,3.6358,3.6496,3.6734,3.6734,3.6734,0.0,0.0,0.0,0.0,0.0,0.0,0.0,0.0,2.4635,0.0,0.0,0.0,0.0,0.0,0.0,0.0,0.0,0.0,0.0,0.0,0.0,0.0,0.0,0.0,0.0,0.0,0.0,0.0,0.0,3.6104,3.8758,3.9364,4.0193,4.1484,4.1304,4.1392,4.181,4.1807,4.1848,4.1928,4.241,4.2805,4.316,4.3827,4.4334,4.468,4.4938,4.5321,4.5693,4.5102,4.5095,4.5459,4.5089,4.4814,4.4621,4.4942,4.5111,4.5246,4.5652,4.6075,4.637,4.5853,4.4615,4.3045,4.1519,4.107,4.1369,4.291,4.3329,4.3329,4.3329,4.3329,4.3329,4.3329,4.3329,4.3329,4.3329,4.3329,4.3329,4.3329,4.3329,4.3329,4.3329,4.3329,4.3329,4.3329,4.3329,4.3329,4.3329,4.3329,4.3329,4.3329,4.3329,4.2208,3.9508,3.9332,3.9332,3.9332,3.9332,3.9332,3.9332,3.7415,3.6358,3.6358,3.6358,3.6358,3.6358,3.6358,3.6358,3.6358,3.6358,3.6358,3.0052,0.0,0.0,0.0,0.0,0.0,0.0,0.0,0.0,0.0,0.0,0.0,0.0,0.0,0.0,0.0,0.0,0.0,0.0,0.0,0.0,0.0,0.0,0.0,0.0,0.0,0.0,0.0,0.0,0.0,3.7134,3.8009,3.8946,4.0098,4.0369,4.0654,4.1016,4.077,4.0874,4.1348,4.1527,4.1834,4.2216,4.2941,4.3328,4.3401,4.354,4.3962,4.4445,4.4213,4.4458,4.4869,4.4674,4.4587,4.4587,4.4587,4.4587,4.4514,4.4047,4.3545,4.3049,4.2463,4.2267,4.1908,4.0008,3.9424,3.9813,4.1728,4.2776,4.3329,4.3329,4.3329,4.3329,4.3329,4.3329,4.3329,4.3329,4.3329,4.3329,4.3329,4.3329,4.3329,4.3329,4.3329,4.3329,4.3329,4.3329,4.3329,4.3329,4.3329,4.2805,4.1504,4.142,4.0017,3.6722,3.6358,3.6358,3.6358,3.6358,3.6358,3.6358,3.6358,3.6358,3.6358,3.6358,3.6358,3.6358,3.6358,3.6358,3.6358,3.6358,3.6358,0.0,0.0,0.0,2.806,0.0,0.0,0.0,0.0,2.5505,0.0,0.0,0.0,0.0,0.0,2.431,2.2482,0.0,0.0,0.0,0.0,0.0,0.0,0.0,0.0,0.0,0.0,0.0,0.0,0.0,0.0,3.6255,3.7228,3.7992,3.8738,3.944,3.9617,3.9103,3.9765,4.0121,4.0171,4.0138,4.0155,4.0205,4.0772,4.1088,4.1341,4.1943,4.2257,4.2424,4.3169,4.3436,4.3521,4.4282,4.4587,4.4587,4.4587,4.4587,4.4384,4.2645,4.0961,3.9553,3.9514,3.9544,3.9529,3.9454,3.9424,3.9439,3.9529,4.1369,4.3329,4.3329,4.3329,4.3329,4.3329,4.3329,4.3329,4.3329,4.3329,4.3329,4.3329,4.3329,4.3329,4.3329,4.3329,4.3329,4.3329,4.3329,4.3329,4.3329,4.3329,4.1587,3.7057,3.6628,3.6534,3.6452,3.6358,3.6358,3.6358,3.6358,3.6358,3.6358,3.6358,3.6358,3.6358,3.6358,3.6358,3.6358,3.6358,3.6358,3.6358,3.6358,3.6358,0.0,0.0,3.4967,3.0442,0.0,0.0,0.0,0.0,0.0,0.0,0.0,0.0,0.0,0.0,2.4835,2.3476,2.2207,0.0,0.0,0.0,0.0,0.0,0.0,0.0,0.0,0.0,0.0,0.0,0.0,0.0,0.0,3.4626,3.5907,3.6614,3.7399,3.8193,3.8988,3.9242,3.9597,4.007,4.007,4.007,4.0138,4.0286,4.0585,4.1003,4.0859,4.1304,4.2156,4.1987,4.254,4.3504,4.4282,4.4587,4.4497,4.3722,4.3196,4.2645,4.0894,3.9864,3.9424,3.9424,3.9424,3.9424,3.9424,3.9424,3.9424,3.9424,4.1309,4.3329,4.3329,4.3329,4.3329,4.3329,4.3329,4.3329,4.3329,4.3329,4.3329,4.3329,4.3329,4.3329,4.3329,4.3329,4.3329,4.3329,4.3329,4.3329,4.3329,4.3329,4.1504,3.6883,3.6358,3.6358,3.6358,3.6358,3.6358,3.6358,3.6358,3.6358,3.6358,3.4964,3.4186,3.4186,3.4186,3.4186,3.4186,3.4186,3.2568,2.9353,2.9353,2.9925,3.4737,3.6065,0.0,3.2352,3.2102,0.0,2.6792,0.0,0.0,0.0,0.0,0.0,0.0,0.0,2.5578,2.478,2.2991,2.1099,0.0,0.0,0.0,0.0,0.0,0.0,0.0,0.0,2.4119,2.6954,0.0,0.0,0.0,0.0,3.3897,3.5182,3.596,3.6958,3.8193,3.8734,3.9225,3.9698,3.9952,4.0204,4.0368,4.0368,4.0703,4.1178,4.0625,4.0868,4.1622,4.1308,4.1762,4.2709,4.347,4.4096,4.444,4.3015,4.1917,4.0961,4.0115,3.9666,3.9424,3.9424,3.9424,3.9424,3.9424,3.9424,3.9424,3.9424,4.0636,4.1938,4.1938,4.1938,4.1938,4.1938,4.1938,4.1938,4.1938,4.2671,4.3329,4.3329,4.3329,4.3329,4.3329,4.3329,4.3329,4.3329,4.3329,4.2725,4.107,4.0802,3.9669,3.6709,3.6358,3.6358,3.6358,3.5642,3.519,3.519,3.519,3.519,3.519,3.3834,3.3081,3.3081,3.3081,3.2239,3.0508,3.0508,2.8855,2.5742,2.5742,2.6328]}]]